Wetterdaten: Freitag, 27.09.2019
Datum Zeit Temp. A. Pool Temp. Temp. 5cm Feuchte A. Luftdruck Regen Wind Richtung Richtung Sonnenschein ET UV Solar Taupunkt Windchill Windben Empfang
27.09.2019 00:00 14,6 C 13,9 C 14,4 C 91 % 1015,5 hPa 0,0 l/m 4,8 km/h (1 Bft) S-SW 194 0 min 0,000 mm 0,0 UV-I 0 W/m 13,1 C 14,6 C 6,4 km/h (2 Bft) 97,87 %
27.09.2019 00:02 14,6 C 13,9 C 14,4 C 90 % 1015,5 hPa 0,0 l/m 4,2 km/h (1 Bft) S-SW 198 0 min 0,000 mm 0,0 UV-I 0 W/m 13,0 C 14,6 C 4,8 km/h (1 Bft) 97,44 %
27.09.2019 00:04 14,7 C 13,9 C 14,4 C 90 % 1015,5 hPa 0,0 l/m 2,2 km/h (1 Bft) SW 221 0 min 0,000 mm 0,0 UV-I 0 W/m 13,1 C 14,7 C 4,8 km/h (1 Bft) 96,00 %
27.09.2019 00:06 14,6 C 13,9 C 14,4 C 90 % 1015,5 hPa 0,0 l/m 2,7 km/h (1 Bft) W 271 0 min 0,000 mm 0,0 UV-I 0 W/m 13,0 C 14,6 C 4,8 km/h (1 Bft) 93,62 %
27.09.2019 00:08 14,5 C 13,9 C 14,4 C 90 % 1015,5 hPa 0,0 l/m 2,4 km/h (1 Bft) W 271 0 min 0,000 mm 0,0 UV-I 0 W/m 12,9 C 14,5 C 4,8 km/h (1 Bft) 95,74 %
27.09.2019 00:10 14,4 C 13,9 C 14,4 C 91 % 1015,5 hPa 0,0 l/m 3,9 km/h (1 Bft) W 270 0 min 0,000 mm 0,0 UV-I 0 W/m 12,9 C 14,4 C 4,8 km/h (1 Bft) 95,74 %
27.09.2019 00:12 14,4 C 13,9 C 14,4 C 91 % 1015,4 hPa 0,0 l/m 3,6 km/h (1 Bft) SW 215 0 min 0,000 mm 0,0 UV-I 0 W/m 12,9 C 14,4 C 4,8 km/h (1 Bft) 97,87 %
27.09.2019 00:14 14,4 C 13,9 C 14,4 C 91 % 1015,5 hPa 0,0 l/m 3,9 km/h (1 Bft) SW 215 0 min 0,000 mm 0,0 UV-I 0 W/m 12,9 C 14,4 C 4,8 km/h (1 Bft) 95,74 %
27.09.2019 00:16 14,4 C 13,9 C 14,4 C 91 % 1015,4 hPa 0,0 l/m 4,2 km/h (1 Bft) SW 215 0 min 0,000 mm 0,0 UV-I 0 W/m 12,9 C 14,4 C 4,8 km/h (1 Bft) 97,87 %
27.09.2019 00:18 14,4 C 13,9 C 14,4 C 91 % 1015,4 hPa 0,0 l/m 3,1 km/h (1 Bft) SW 215 0 min 0,000 mm 0,0 UV-I 0 W/m 12,9 C 14,4 C 4,8 km/h (1 Bft) 95,74 %
27.09.2019 00:20 14,4 C 13,9 C 13,9 C 91 % 1015,4 hPa 0,0 l/m 1,8 km/h (1 Bft) SW 215 0 min 0,000 mm 0,0 UV-I 0 W/m 12,9 C 14,4 C 3,2 km/h (1 Bft) 97,92 %
27.09.2019 00:22 14,4 C 13,9 C 13,9 C 91 % 1015,4 hPa 0,0 l/m 1,2 km/h (1 Bft) SW 215 0 min 0,000 mm 0,0 UV-I 0 W/m 12,9 C 14,4 C 3,2 km/h (1 Bft) 97,87 %
27.09.2019 00:24 14,4 C 13,9 C 13,9 C 91 % 1015,4 hPa 0,0 l/m 0,7 km/h (0 Bft) SW 215 0 min 0,000 mm 0,0 UV-I 0 W/m 12,9 C 14,4 C 1,6 km/h (1 Bft) 97,87 %
27.09.2019 00:26 14,4 C 13,9 C 13,9 C 91 % 1015,4 hPa 0,0 l/m 1,6 km/h (1 Bft) SW 215 0 min 0,000 mm 0,0 UV-I 0 W/m 12,9 C 14,4 C 3,2 km/h (1 Bft) 93,62 %
27.09.2019 00:28 14,4 C 13,9 C 13,9 C 91 % 1015,4 hPa 0,0 l/m 1,3 km/h (1 Bft) SW 215 0 min 0,000 mm 0,0 UV-I 0 W/m 12,9 C 14,4 C 1,6 km/h (1 Bft) 95,74 %
27.09.2019 00:30 14,4 C 13,9 C 13,9 C 91 % 1015,4 hPa 0,0 l/m 1,7 km/h (1 Bft) SW 215 0 min 0,000 mm 0,0 UV-I 0 W/m 12,9 C 14,4 C 3,2 km/h (1 Bft) 93,62 %
27.09.2019 00:32 14,5 C 13,9 C 13,9 C 91 % 1015,4 hPa 0,0 l/m 1,5 km/h (1 Bft) SW 215 0 min 0,000 mm 0,0 UV-I 0 W/m 13,0 C 14,5 C 3,2 km/h (1 Bft) 93,62 %
27.09.2019 00:34 14,5 C 13,9 C 13,9 C 91 % 1015,4 hPa 0,0 l/m 1,1 km/h (1 Bft) SW 215 0 min 0,000 mm 0,0 UV-I 0 W/m 13,0 C 14,5 C 1,6 km/h (1 Bft) 94,29 %
27.09.2019 00:36 14,5 C 13,9 C 13,9 C 91 % 1015,4 hPa 0,0 l/m 1,0 km/h (0 Bft) SW 215 0 min 0,000 mm 0,0 UV-I 0 W/m 13,0 C 14,5 C 1,6 km/h (1 Bft) 96,00 %
27.09.2019 00:38 14,4 C 13,9 C 13,9 C 91 % 1015,5 hPa 0,0 l/m 1,0 km/h (0 Bft) SW 215 0 min 0,000 mm 0,0 UV-I 0 W/m 12,9 C 14,4 C 1,6 km/h (1 Bft) 95,74 %
27.09.2019 00:40 14,4 C 13,9 C 13,9 C 91 % 1015,5 hPa 0,0 l/m 0,7 km/h (0 Bft) SW 215 0 min 0,000 mm 0,0 UV-I 0 W/m 12,9 C 14,4 C 1,6 km/h (1 Bft) 95,74 %
27.09.2019 00:42 14,3 C 13,9 C 13,9 C 91 % 1015,4 hPa 0,0 l/m 0,7 km/h (0 Bft) SW 215 0 min 0,000 mm 0,0 UV-I 0 W/m 12,8 C 14,3 C 1,6 km/h (1 Bft) 93,62 %
27.09.2019 00:44 14,3 C 13,9 C 13,9 C 91 % 1015,4 hPa 0,0 l/m 1,3 km/h (1 Bft) SW 215 0 min 0,000 mm 0,0 UV-I 0 W/m 12,8 C 14,3 C 3,2 km/h (1 Bft) 95,74 %
27.09.2019 00:46 14,3 C 13,9 C 13,9 C 92 % 1015,5 hPa 0,0 l/m 0,6 km/h (0 Bft) SW 215 0 min 0,000 mm 0,0 UV-I 0 W/m 13,0 C 14,3 C 1,6 km/h (1 Bft) 92,00 %
27.09.2019 00:48 14,2 C 13,9 C 13,9 C 92 % 1015,4 hPa 0,0 l/m 0,0 km/h (0 Bft) SW 215 0 min 0,000 mm 0,0 UV-I 0 W/m 12,9 C 14,2 C 0,0 km/h (0 Bft) 95,74 %
27.09.2019 00:50 14,3 C 13,9 C 13,9 C 92 % 1015,4 hPa 0,0 l/m 0,7 km/h (0 Bft) SW 215 0 min 0,000 mm 0,0 UV-I 0 W/m 13,0 C 14,3 C 1,6 km/h (1 Bft) 94,00 %
27.09.2019 00:52 14,3 C 13,9 C 13,9 C 92 % 1015,5 hPa 0,0 l/m 1,0 km/h (0 Bft) SW 215 0 min 0,000 mm 0,0 UV-I 0 W/m 13,0 C 14,3 C 1,6 km/h (1 Bft) 97,44 %
27.09.2019 00:54 14,3 C 13,9 C 14,4 C 92 % 1015,4 hPa 0,0 l/m 0,5 km/h (0 Bft) SW 215 0 min 0,000 mm 0,0 UV-I 0 W/m 13,0 C 14,3 C 1,6 km/h (1 Bft) 97,87 %
27.09.2019 00:56 14,3 C 13,9 C 14,4 C 92 % 1015,5 hPa 0,0 l/m 0,5 km/h (0 Bft) SW 215 0 min 0,000 mm 0,0 UV-I 0 W/m 13,0 C 14,3 C 1,6 km/h (1 Bft) 97,87 %
27.09.2019 00:58 14,3 C 13,9 C 14,4 C 92 % 1015,5 hPa 0,0 l/m 1,1 km/h (1 Bft) SW 215 0 min 0,000 mm 0,0 UV-I 0 W/m 13,0 C 14,3 C 1,6 km/h (1 Bft) 97,87 %
27.09.2019 01:00 14,3 C 13,9 C 14,4 C 92 % 1015,4 hPa 0,0 l/m 0,6 km/h (0 Bft) SW 215 0 min 0,000 mm 0,0 UV-I 0 W/m 13,0 C 14,3 C 1,6 km/h (1 Bft) 97,87 %
27.09.2019 01:02 14,3 C 13,9 C 14,4 C 92 % 1015,5 hPa 0,0 l/m 0,8 km/h (0 Bft) SW 215 0 min 0,000 mm 0,0 UV-I 0 W/m 13,0 C 14,3 C 1,6 km/h (1 Bft) 98,00 %
27.09.2019 01:04 14,3 C 13,9 C 14,4 C 92 % 1015,5 hPa 0,0 l/m 0,2 km/h (0 Bft) SW 215 0 min 0,000 mm 0,0 UV-I 0 W/m 13,0 C 14,3 C 1,6 km/h (1 Bft) 97,87 %
27.09.2019 01:06 14,3 C 13,9 C 14,4 C 92 % 1015,5 hPa 0,0 l/m 1,3 km/h (1 Bft) SW 215 0 min 0,000 mm 0,0 UV-I 0 W/m 13,0 C 14,3 C 3,2 km/h (1 Bft) 94,00 %
27.09.2019 01:08 14,3 C 13,9 C 14,4 C 92 % 1015,5 hPa 0,0 l/m 0,4 km/h (0 Bft) SW 215 0 min 0,000 mm 0,0 UV-I 0 W/m 13,0 C 14,3 C 1,6 km/h (1 Bft) 93,62 %
27.09.2019 01:10 14,3 C 13,9 C 14,4 C 92 % 1015,5 hPa 0,0 l/m 0,0 km/h (0 Bft) SW 215 0 min 0,000 mm 0,0 UV-I 0 W/m 13,0 C 14,3 C 0,0 km/h (0 Bft) 97,87 %
27.09.2019 01:12 14,3 C 13,9 C 14,4 C 92 % 1015,5 hPa 0,0 l/m 1,3 km/h (1 Bft) SW 215 0 min 0,000 mm 0,0 UV-I 0 W/m 13,0 C 14,3 C 1,6 km/h (1 Bft) 97,87 %
27.09.2019 01:14 14,3 C 13,9 C 14,4 C 92 % 1015,5 hPa 0,0 l/m 1,4 km/h (1 Bft) SW 215 0 min 0,000 mm 0,0 UV-I 0 W/m 13,0 C 14,3 C 3,2 km/h (1 Bft) 100,00 %
27.09.2019 01:16 14,3 C 13,9 C 14,4 C 92 % 1015,5 hPa 0,0 l/m 0,4 km/h (0 Bft) SW 215 0 min 0,000 mm 0,0 UV-I 0 W/m 13,0 C 14,3 C 1,6 km/h (1 Bft) 97,87 %
27.09.2019 01:18 14,3 C 13,9 C 14,4 C 92 % 1015,5 hPa 0,0 l/m 0,0 km/h (0 Bft) SW 215 0 min 0,000 mm 0,0 UV-I 0 W/m 13,0 C 14,3 C 0,0 km/h (0 Bft) 95,74 %
27.09.2019 01:20 14,3 C 13,9 C 14,4 C 92 % 1015,5 hPa 0,0 l/m 0,6 km/h (0 Bft) SW 215 0 min 0,000 mm 0,0 UV-I 0 W/m 13,0 C 14,3 C 1,6 km/h (1 Bft) 95,74 %
27.09.2019 01:22 14,3 C 13,9 C 14,4 C 92 % 1015,5 hPa 0,0 l/m 1,4 km/h (1 Bft) SW 215 0 min 0,000 mm 0,0 UV-I 0 W/m 13,0 C 14,3 C 3,2 km/h (1 Bft) 100,00 %
27.09.2019 01:24 14,4 C 13,9 C 14,4 C 92 % 1015,5 hPa 0,0 l/m 0,7 km/h (0 Bft) SW 215 0 min 0,000 mm 0,0 UV-I 0 W/m 13,1 C 14,4 C 1,6 km/h (1 Bft) 100,00 %
27.09.2019 01:26 14,4 C 13,9 C 14,4 C 92 % 1015,5 hPa 0,0 l/m 1,2 km/h (1 Bft) SW 215 0 min 0,000 mm 0,0 UV-I 0 W/m 13,1 C 14,4 C 1,6 km/h (1 Bft) 97,37 %
27.09.2019 01:28 14,4 C 13,9 C 14,4 C 93 % 1015,5 hPa 0,0 l/m 0,8 km/h (0 Bft) SW 215 0 min 0,000 mm 0,0 UV-I 0 W/m 13,3 C 14,4 C 1,6 km/h (1 Bft) 98,00 %
27.09.2019 01:30 14,3 C 13,9 C 14,4 C 93 % 1015,5 hPa 0,0 l/m 1,2 km/h (1 Bft) SW 215 0 min 0,000 mm 0,0 UV-I 0 W/m 13,2 C 14,3 C 1,6 km/h (1 Bft) 97,87 %
27.09.2019 01:32 14,3 C 13,9 C 14,4 C 93 % 1015,5 hPa 0,0 l/m 1,0 km/h (0 Bft) SW 215 0 min 0,000 mm 0,0 UV-I 0 W/m 13,2 C 14,3 C 1,6 km/h (1 Bft) 97,87 %
27.09.2019 01:34 14,3 C 13,9 C 14,4 C 93 % 1015,5 hPa 0,0 l/m 0,2 km/h (0 Bft) SW 215 0 min 0,000 mm 0,0 UV-I 0 W/m 13,2 C 14,3 C 1,6 km/h (1 Bft) 95,83 %
27.09.2019 01:36 14,4 C 13,9 C 14,4 C 92 % 1015,5 hPa 0,0 l/m 0,0 km/h (0 Bft) SW 215 0 min 0,000 mm 0,0 UV-I 0 W/m 13,1 C 14,4 C 1,6 km/h (1 Bft) 96,00 %
27.09.2019 01:38 14,3 C 13,9 C 14,4 C 92 % 1015,5 hPa 0,0 l/m 1,0 km/h (0 Bft) SW 215 0 min 0,000 mm 0,0 UV-I 0 W/m 13,0 C 14,3 C 1,6 km/h (1 Bft) 97,14 %
27.09.2019 01:40 14,4 C 13,9 C 14,4 C 93 % 1015,4 hPa 0,0 l/m 0,8 km/h (0 Bft) SW 215 0 min 0,000 mm 0,0 UV-I 0 W/m 13,3 C 14,4 C 1,6 km/h (1 Bft) 98,11 %
27.09.2019 01:42 14,4 C 13,9 C 14,4 C 93 % 1015,4 hPa 0,0 l/m 0,2 km/h (0 Bft) SW 215 0 min 0,000 mm 0,0 UV-I 0 W/m 13,3 C 14,4 C 1,6 km/h (1 Bft) 97,87 %
27.09.2019 01:44 14,3 C 13,9 C 14,4 C 93 % 1015,4 hPa 0,0 l/m 0,0 km/h (0 Bft) SW 215 0 min 0,000 mm 0,0 UV-I 0 W/m 13,2 C 14,3 C 0,0 km/h (0 Bft) 97,87 %
27.09.2019 01:46 14,3 C 13,9 C 14,4 C 93 % 1015,4 hPa 0,0 l/m 0,0 km/h (0 Bft) SW 215 0 min 0,000 mm 0,0 UV-I 0 W/m 13,2 C 14,3 C 0,0 km/h (0 Bft) 97,87 %
27.09.2019 01:48 14,3 C 13,9 C 14,4 C 93 % 1015,4 hPa 0,0 l/m 0,4 km/h (0 Bft) SW 215 0 min 0,000 mm 0,0 UV-I 0 W/m 13,2 C 14,3 C 1,6 km/h (1 Bft) 98,00 %
27.09.2019 01:50 14,3 C 13,9 C 14,4 C 93 % 1015,4 hPa 0,0 l/m 0,5 km/h (0 Bft) SW 215 0 min 0,000 mm 0,0 UV-I 0 W/m 13,2 C 14,3 C 1,6 km/h (1 Bft) 100,00 %
27.09.2019 01:52 14,3 C 13,9 C 14,4 C 93 % 1015,4 hPa 0,0 l/m 0,1 km/h (0 Bft) SW 215 0 min 0,000 mm 0,0 UV-I 0 W/m 13,2 C 14,3 C 1,6 km/h (1 Bft) 97,87 %
27.09.2019 01:54 14,4 C 13,9 C 14,4 C 93 % 1015,4 hPa 0,0 l/m 0,0 km/h (0 Bft) SW 215 0 min 0,000 mm 0,0 UV-I 0 W/m 13,3 C 14,4 C 0,0 km/h (0 Bft) 93,62 %
27.09.2019 01:56 14,3 C 13,9 C 14,4 C 93 % 1015,3 hPa 0,0 l/m 0,1 km/h (0 Bft) SW 215 0 min 0,000 mm 0,0 UV-I 0 W/m 13,2 C 14,3 C 1,6 km/h (1 Bft) 97,87 %
27.09.2019 01:58 14,3 C 13,9 C 14,4 C 93 % 1015,3 hPa 0,0 l/m 1,4 km/h (1 Bft) SW 215 0 min 0,000 mm 0,0 UV-I 0 W/m 13,2 C 14,3 C 1,6 km/h (1 Bft) 97,87 %
27.09.2019 02:00 14,3 C 13,9 C 14,4 C 93 % 1015,3 hPa 0,0 l/m 1,7 km/h (1 Bft) SW 215 0 min 0,000 mm 0,0 UV-I 0 W/m 13,2 C 14,3 C 3,2 km/h (1 Bft) 98,00 %
27.09.2019 02:02 14,3 C 13,9 C 14,4 C 93 % 1015,3 hPa 0,0 l/m 1,2 km/h (1 Bft) SW 215 0 min 0,000 mm 0,0 UV-I 0 W/m 13,2 C 14,3 C 3,2 km/h (1 Bft) 95,74 %
27.09.2019 02:04 14,3 C 13,9 C 14,4 C 93 % 1015,3 hPa 0,0 l/m 0,0 km/h (0 Bft) SW 215 0 min 0,000 mm 0,0 UV-I 0 W/m 13,2 C 14,3 C 1,6 km/h (1 Bft) 97,14 %
27.09.2019 02:06 14,4 C 13,9 C 14,4 C 93 % 1015,3 hPa 0,0 l/m 0,5 km/h (0 Bft) SW 215 0 min 0,000 mm 0,0 UV-I 0 W/m 13,3 C 14,4 C 1,6 km/h (1 Bft) 93,62 %
27.09.2019 02:08 14,4 C 13,9 C 14,4 C 93 % 1015,2 hPa 0,0 l/m 1,8 km/h (1 Bft) SW 215 0 min 0,000 mm 0,0 UV-I 0 W/m 13,3 C 14,4 C 3,2 km/h (1 Bft) 95,83 %
27.09.2019 02:10 14,4 C 13,9 C 14,4 C 93 % 1015,2 hPa 0,0 l/m 2,7 km/h (1 Bft) SW 215 0 min 0,000 mm 0,0 UV-I 0 W/m 13,3 C 14,4 C 4,8 km/h (1 Bft) 97,87 %
27.09.2019 02:12 14,3 C 13,9 C 14,4 C 93 % 1015,1 hPa 0,0 l/m 2,7 km/h (1 Bft) SW 215 0 min 0,000 mm 0,0 UV-I 0 W/m 13,2 C 14,3 C 3,2 km/h (1 Bft) 91,49 %
27.09.2019 02:14 14,3 C 13,9 C 14,4 C 93 % 1015,2 hPa 0,0 l/m 1,6 km/h (1 Bft) SW 215 0 min 0,000 mm 0,0 UV-I 0 W/m 13,2 C 14,3 C 4,8 km/h (1 Bft) 98,00 %
27.09.2019 02:16 14,3 C 13,9 C 14,4 C 93 % 1015,2 hPa 0,0 l/m 0,6 km/h (0 Bft) SW 215 0 min 0,000 mm 0,0 UV-I 0 W/m 13,2 C 14,3 C 1,6 km/h (1 Bft) 100,00 %
27.09.2019 02:18 14,3 C 13,9 C 14,4 C 93 % 1015,2 hPa 0,0 l/m 1,1 km/h (1 Bft) SW 215 0 min 0,000 mm 0,0 UV-I 0 W/m 13,2 C 14,3 C 1,6 km/h (1 Bft) 100,00 %
27.09.2019 02:20 14,3 C 13,9 C 14,4 C 93 % 1015,1 hPa 0,0 l/m 0,4 km/h (0 Bft) SW 215 0 min 0,000 mm 0,0 UV-I 0 W/m 13,2 C 14,3 C 1,6 km/h (1 Bft) 100,00 %
27.09.2019 02:22 14,3 C 13,9 C 14,4 C 93 % 1015,1 hPa 0,0 l/m 0,0 km/h (0 Bft) SW 215 0 min 0,000 mm 0,0 UV-I 0 W/m 13,2 C 14,3 C 0,0 km/h (0 Bft) 95,74 %
27.09.2019 02:24 14,3 C 13,9 C 14,4 C 93 % 1015,2 hPa 0,0 l/m 0,5 km/h (0 Bft) SW 215 0 min 0,000 mm 0,0 UV-I 0 W/m 13,2 C 14,3 C 1,6 km/h (1 Bft) 97,87 %
27.09.2019 02:26 14,3 C 13,9 C 14,4 C 93 % 1015,1 hPa 0,0 l/m 0,0 km/h (0 Bft) SW 215 0 min 0,000 mm 0,0 UV-I 0 W/m 13,2 C 14,3 C 0,0 km/h (0 Bft) 95,74 %
27.09.2019 02:28 14,3 C 13,9 C 14,4 C 93 % 1015,1 hPa 0,0 l/m 0,0 km/h (0 Bft) SW 215 0 min 0,000 mm 0,0 UV-I 0 W/m 13,2 C 14,3 C 0,0 km/h (0 Bft) 100,00 %
27.09.2019 02:30 14,3 C 13,9 C 14,4 C 93 % 1015,1 hPa 0,0 l/m 0,0 km/h (0 Bft) SW 215 0 min 0,000 mm 0,0 UV-I 0 W/m 13,2 C 14,3 C 0,0 km/h (0 Bft) 100,00 %
27.09.2019 02:32 14,3 C 13,9 C 14,4 C 93 % 1015,1 hPa 0,0 l/m 0,2 km/h (0 Bft) SW 215 0 min 0,000 mm 0,0 UV-I 0 W/m 13,2 C 14,3 C 1,6 km/h (1 Bft) 100,00 %
27.09.2019 02:34 14,3 C 13,9 C 14,4 C 93 % 1015,2 hPa 0,0 l/m 0,3 km/h (0 Bft) SW 215 0 min 0,000 mm 0,0 UV-I 0 W/m 13,2 C 14,3 C 1,6 km/h (1 Bft) 97,87 %
27.09.2019 02:36 14,3 C 13,9 C 14,4 C 93 % 1015,1 hPa 0,0 l/m 1,2 km/h (1 Bft) SW 215 0 min 0,000 mm 0,0 UV-I 0 W/m 13,2 C 14,3 C 1,6 km/h (1 Bft) 100,00 %
27.09.2019 02:38 14,3 C 13,9 C 14,4 C 93 % 1015,2 hPa 0,0 l/m 1,4 km/h (1 Bft) SW 215 0 min 0,000 mm 0,0 UV-I 0 W/m 13,2 C 14,3 C 3,2 km/h (1 Bft) 100,00 %
27.09.2019 02:40 14,2 C 13,9 C 14,4 C 93 % 1015,4 hPa 0,0 l/m 2,8 km/h (1 Bft) SW 216 0 min 0,000 mm 0,0 UV-I 0 W/m 13,1 C 14,2 C 4,8 km/h (1 Bft) 97,87 %
27.09.2019 02:42 14,2 C 13,9 C 14,4 C 93 % 1015,3 hPa 0,0 l/m 2,8 km/h (1 Bft) SW 216 0 min 0,000 mm 0,0 UV-I 0 W/m 13,1 C 14,2 C 4,8 km/h (1 Bft) 100,00 %
27.09.2019 02:44 14,2 C 13,9 C 14,4 C 93 % 1015,4 hPa 0,0 l/m 1,9 km/h (1 Bft) SW 216 0 min 0,000 mm 0,0 UV-I 0 W/m 13,1 C 14,2 C 3,2 km/h (1 Bft) 100,00 %
27.09.2019 02:46 14,1 C 13,9 C 14,4 C 93 % 1015,4 hPa 0,0 l/m 2,2 km/h (1 Bft) SW 216 0 min 0,000 mm 0,0 UV-I 0 W/m 13,0 C 14,1 C 3,2 km/h (1 Bft) 100,00 %
27.09.2019 02:48 14,2 C 13,9 C 14,4 C 94 % 1015,3 hPa 0,0 l/m 1,4 km/h (1 Bft) SW 216 0 min 0,000 mm 0,0 UV-I 0 W/m 13,2 C 14,2 C 3,2 km/h (1 Bft) 100,00 %
27.09.2019 02:50 14,2 C 13,9 C 14,4 C 94 % 1015,4 hPa 0,0 l/m 1,5 km/h (1 Bft) SW 216 0 min 0,000 mm 0,0 UV-I 0 W/m 13,2 C 14,2 C 3,2 km/h (1 Bft) 100,00 %
27.09.2019 02:52 14,2 C 13,9 C 14,4 C 94 % 1015,4 hPa 0,0 l/m 2,7 km/h (1 Bft) SW 216 0 min 0,000 mm 0,0 UV-I 0 W/m 13,2 C 14,2 C 3,2 km/h (1 Bft) 97,92 %
27.09.2019 02:54 14,2 C 13,9 C 14,4 C 94 % 1015,3 hPa 0,0 l/m 1,7 km/h (1 Bft) SW 216 0 min 0,000 mm 0,0 UV-I 0 W/m 13,2 C 14,2 C 3,2 km/h (1 Bft) 100,00 %
27.09.2019 02:56 14,2 C 13,9 C 14,4 C 94 % 1015,3 hPa 0,0 l/m 2,5 km/h (1 Bft) SW 216 0 min 0,000 mm 0,0 UV-I 0 W/m 13,2 C 14,2 C 3,2 km/h (1 Bft) 100,00 %
27.09.2019 02:58 14,2 C 13,9 C 14,4 C 94 % 1015,3 hPa 0,0 l/m 1,3 km/h (1 Bft) SW 216 0 min 0,000 mm 0,0 UV-I 0 W/m 13,2 C 14,2 C 3,2 km/h (1 Bft) 100,00 %
27.09.2019 03:00 14,2 C 13,9 C 14,4 C 94 % 1015,2 hPa 0,0 l/m 1,4 km/h (1 Bft) SW 216 0 min 0,000 mm 0,0 UV-I 0 W/m 13,2 C 14,2 C 3,2 km/h (1 Bft) 100,00 %
27.09.2019 03:02 14,2 C 13,9 C 14,4 C 94 % 1015,2 hPa 0,0 l/m 1,4 km/h (1 Bft) SW 216 0 min 0,000 mm 0,0 UV-I 0 W/m 13,2 C 14,2 C 3,2 km/h (1 Bft) 100,00 %
27.09.2019 03:04 14,2 C 13,9 C 14,4 C 94 % 1015,2 hPa 0,0 l/m 2,1 km/h (1 Bft) SW 216 0 min 0,000 mm 0,0 UV-I 0 W/m 13,2 C 14,2 C 3,2 km/h (1 Bft) 100,00 %
27.09.2019 03:06 14,1 C 13,9 C 14,4 C 94 % 1015,2 hPa 0,0 l/m 2,4 km/h (1 Bft) SW 216 0 min 0,000 mm 0,0 UV-I 0 W/m 13,1 C 14,1 C 4,8 km/h (1 Bft) 97,87 %
27.09.2019 03:08 14,2 C 13,9 C 14,4 C 94 % 1015,2 hPa 0,0 l/m 2,6 km/h (1 Bft) SW 216 0 min 0,000 mm 0,0 UV-I 0 W/m 13,2 C 14,2 C 4,8 km/h (1 Bft) 100,00 %
27.09.2019 03:10 14,2 C 13,9 C 14,4 C 94 % 1015,2 hPa 0,0 l/m 2,3 km/h (1 Bft) SW 216 0 min 0,000 mm 0,0 UV-I 0 W/m 13,2 C 14,2 C 4,8 km/h (1 Bft) 100,00 %
27.09.2019 03:12 14,2 C 13,9 C 14,4 C 94 % 1015,1 hPa 0,0 l/m 2,1 km/h (1 Bft) SW 216 0 min 0,000 mm 0,0 UV-I 0 W/m 13,2 C 14,2 C 4,8 km/h (1 Bft) 97,87 %
27.09.2019 03:14 14,3 C 13,9 C 14,4 C 94 % 1015,1 hPa 0,0 l/m 2,6 km/h (1 Bft) SW 216 0 min 0,000 mm 0,0 UV-I 0 W/m 13,3 C 14,3 C 3,2 km/h (1 Bft) 96,00 %
27.09.2019 03:16 14,3 C 13,9 C 14,4 C 94 % 1015,1 hPa 0,0 l/m 3,3 km/h (1 Bft) S-SW 203 0 min 0,000 mm 0,0 UV-I 0 W/m 13,3 C 14,3 C 4,8 km/h (1 Bft) 95,74 %
27.09.2019 03:18 14,3 C 13,9 C 14,4 C 94 % 1015,1 hPa 0,0 l/m 4,2 km/h (1 Bft) S 188 0 min 0,000 mm 0,0 UV-I 0 W/m 13,3 C 14,3 C 6,4 km/h (2 Bft) 98,00 %
27.09.2019 03:20 14,3 C 13,9 C 14,4 C 94 % 1015,1 hPa 0,0 l/m 3,3 km/h (1 Bft) S 189 0 min 0,000 mm 0,0 UV-I 0 W/m 13,3 C 14,3 C 4,8 km/h (1 Bft) 95,74 %
27.09.2019 03:22 14,3 C 13,9 C 14,4 C 94 % 1015,1 hPa 0,0 l/m 3,8 km/h (1 Bft) S 189 0 min 0,000 mm 0,0 UV-I 0 W/m 13,3 C 14,3 C 4,8 km/h (1 Bft) 95,74 %
27.09.2019 03:24 14,4 C 13,9 C 14,4 C 94 % 1015,1 hPa 0,0 l/m 2,9 km/h (1 Bft) S 189 0 min 0,000 mm 0,0 UV-I 0 W/m 13,4 C 14,4 C 4,8 km/h (1 Bft) 95,74 %
27.09.2019 03:26 14,4 C 13,9 C 14,4 C 94 % 1015,0 hPa 0,0 l/m 2,8 km/h (1 Bft) S 189 0 min 0,000 mm 0,0 UV-I 0 W/m 13,4 C 14,4 C 4,8 km/h (1 Bft) 95,74 %
27.09.2019 03:28 14,4 C 13,9 C 14,4 C 94 % 1015,0 hPa 0,0 l/m 3,6 km/h (1 Bft) S 189 0 min 0,000 mm 0,0 UV-I 0 W/m 13,4 C 14,4 C 4,8 km/h (1 Bft) 95,74 %
27.09.2019 03:30 14,4 C 13,9 C 14,4 C 94 % 1015,0 hPa 0,0 l/m 2,2 km/h (1 Bft) S 189 0 min 0,000 mm 0,0 UV-I 0 W/m 13,4 C 14,4 C 3,2 km/h (1 Bft) 94,44 %
27.09.2019 03:32 14,4 C 13,9 C 14,4 C 94 % 1015,0 hPa 0,0 l/m 1,9 km/h (1 Bft) S 189 0 min 0,000 mm 0,0 UV-I 0 W/m 13,4 C 14,4 C 3,2 km/h (1 Bft) 92,00 %
27.09.2019 03:34 14,5 C 13,9 C 14,4 C 94 % 1015,0 hPa 0,0 l/m 0,4 km/h (0 Bft) S 189 0 min 0,000 mm 0,0 UV-I 0 W/m 13,5 C 14,5 C 1,6 km/h (1 Bft) 91,49 %
27.09.2019 03:36 14,4 C 13,9 C 14,4 C 94 % 1015,0 hPa 0,0 l/m 0,5 km/h (0 Bft) S 189 0 min 0,000 mm 0,0 UV-I 0 W/m 13,4 C 14,4 C 1,6 km/h (1 Bft) 95,83 %
27.09.2019 03:38 14,4 C 13,9 C 14,4 C 94 % 1015,0 hPa 0,0 l/m 0,8 km/h (0 Bft) S 189 0 min 0,000 mm 0,0 UV-I 0 W/m 13,4 C 14,4 C 1,6 km/h (1 Bft) 95,74 %
27.09.2019 03:40 14,4 C 13,9 C 14,4 C 94 % 1014,9 hPa 0,0 l/m 1,6 km/h (1 Bft) S 189 0 min 0,000 mm 0,0 UV-I 0 W/m 13,4 C 14,4 C 3,2 km/h (1 Bft) 94,00 %
27.09.2019 03:42 14,4 C 13,9 C 14,4 C 94 % 1014,9 hPa 0,0 l/m 2,6 km/h (1 Bft) S 189 0 min 0,000 mm 0,0 UV-I 0 W/m 13,4 C 14,4 C 3,2 km/h (1 Bft) 94,00 %
27.09.2019 03:44 14,4 C 13,9 C 14,4 C 94 % 1014,9 hPa 0,0 l/m 1,9 km/h (1 Bft) S 189 0 min 0,000 mm 0,0 UV-I 0 W/m 13,4 C 14,4 C 4,8 km/h (1 Bft) 97,87 %
27.09.2019 03:46 14,4 C 13,9 C 14,4 C 94 % 1014,9 hPa 0,0 l/m 0,6 km/h (0 Bft) S 189 0 min 0,000 mm 0,0 UV-I 0 W/m 13,4 C 14,4 C 1,6 km/h (1 Bft) 95,74 %
27.09.2019 03:48 14,4 C 13,9 C 14,4 C 94 % 1014,9 hPa 0,0 l/m 1,6 km/h (1 Bft) S 189 0 min 0,000 mm 0,0 UV-I 0 W/m 13,4 C 14,4 C 3,2 km/h (1 Bft) 97,87 %
27.09.2019 03:50 14,4 C 13,9 C 14,4 C 94 % 1014,8 hPa 0,0 l/m 1,5 km/h (1 Bft) S 189 0 min 0,000 mm 0,0 UV-I 0 W/m 13,4 C 14,4 C 3,2 km/h (1 Bft) 100,00 %
27.09.2019 03:52 14,4 C 13,9 C 14,4 C 94 % 1014,8 hPa 0,0 l/m 0,7 km/h (0 Bft) S 189 0 min 0,000 mm 0,0 UV-I 0 W/m 13,4 C 14,4 C 1,6 km/h (1 Bft) 100,00 %
27.09.2019 03:54 14,3 C 13,9 C 14,4 C 94 % 1014,9 hPa 0,0 l/m 0,0 km/h (0 Bft) S 189 0 min 0,000 mm 0,0 UV-I 0 W/m 13,3 C 14,3 C 0,0 km/h (0 Bft) 95,74 %
27.09.2019 03:56 14,3 C 13,9 C 14,4 C 94 % 1014,9 hPa 0,0 l/m 0,0 km/h (0 Bft) S 189 0 min 0,000 mm 0,0 UV-I 0 W/m 13,3 C 14,3 C 0,0 km/h (0 Bft) 100,00 %
27.09.2019 03:58 14,3 C 13,9 C 14,4 C 94 % 1015,0 hPa 0,0 l/m 0,0 km/h (0 Bft) S 189 0 min 0,000 mm 0,0 UV-I 0 W/m 13,3 C 14,3 C 0,0 km/h (0 Bft) 93,62 %
27.09.2019 04:00 14,3 C 13,9 C 14,4 C 94 % 1014,9 hPa 0,0 l/m 0,8 km/h (0 Bft) S 189 0 min 0,000 mm 0,0 UV-I 0 W/m 13,3 C 14,3 C 1,6 km/h (1 Bft) 97,14 %
27.09.2019 04:02 14,4 C 13,9 C 14,4 C 94 % 1015,0 hPa 0,0 l/m 0,9 km/h (0 Bft) S 189 0 min 0,000 mm 0,0 UV-I 0 W/m 13,4 C 14,4 C 1,6 km/h (1 Bft) 96,43 %
27.09.2019 04:04 14,3 C 13,9 C 14,4 C 94 % 1015,0 hPa 0,0 l/m 0,6 km/h (0 Bft) S 189 0 min 0,000 mm 0,0 UV-I 0 W/m 13,3 C 14,3 C 1,6 km/h (1 Bft) 97,87 %
27.09.2019 04:06 14,3 C 13,9 C 13,9 C 94 % 1015,0 hPa 0,0 l/m 1,6 km/h (1 Bft) S 189 0 min 0,000 mm 0,0 UV-I 0 W/m 13,3 C 14,3 C 3,2 km/h (1 Bft) 97,87 %
27.09.2019 04:08 14,3 C 13,9 C 13,9 C 94 % 1015,0 hPa 0,0 l/m 2,6 km/h (1 Bft) S 189 0 min 0,000 mm 0,0 UV-I 0 W/m 13,3 C 14,3 C 3,2 km/h (1 Bft) 98,00 %
27.09.2019 04:10 14,2 C 13,9 C 13,9 C 94 % 1015,0 hPa 0,0 l/m 2,5 km/h (1 Bft) S 189 0 min 0,000 mm 0,0 UV-I 0 W/m 13,2 C 14,2 C 3,2 km/h (1 Bft) 95,74 %
27.09.2019 04:12 14,2 C 13,9 C 13,9 C 95 % 1015,0 hPa 0,0 l/m 1,5 km/h (1 Bft) S 189 0 min 0,000 mm 0,0 UV-I 0 W/m 13,4 C 14,2 C 3,2 km/h (1 Bft) 97,87 %
27.09.2019 04:14 14,1 C 13,9 C 13,9 C 95 % 1015,0 hPa 0,0 l/m 1,4 km/h (1 Bft) S 189 0 min 0,000 mm 0,0 UV-I 0 W/m 13,3 C 14,1 C 3,2 km/h (1 Bft) 95,74 %
27.09.2019 04:16 14,2 C 13,9 C 14,4 C 95 % 1015,0 hPa 0,0 l/m 2,4 km/h (1 Bft) S 189 0 min 0,000 mm 0,0 UV-I 0 W/m 13,4 C 14,2 C 3,2 km/h (1 Bft) 97,87 %
27.09.2019 04:18 14,2 C 13,9 C 14,4 C 95 % 1014,9 hPa 0,0 l/m 2,7 km/h (1 Bft) S 188 0 min 0,000 mm 0,0 UV-I 0 W/m 13,4 C 14,2 C 4,8 km/h (1 Bft) 93,62 %
27.09.2019 04:20 14,2 C 13,9 C 14,4 C 95 % 1014,9 hPa 0,0 l/m 1,3 km/h (1 Bft) S 188 0 min 0,000 mm 0,0 UV-I 0 W/m 13,4 C 14,2 C 3,2 km/h (1 Bft) 95,74 %
27.09.2019 04:22 14,2 C 13,9 C 14,4 C 95 % 1014,9 hPa 0,0 l/m 0,8 km/h (0 Bft) S 188 0 min 0,000 mm 0,0 UV-I 0 W/m 13,4 C 14,2 C 1,6 km/h (1 Bft) 95,74 %
27.09.2019 04:24 14,1 C 13,9 C 14,4 C 95 % 1014,9 hPa 0,0 l/m 0,6 km/h (0 Bft) S 188 0 min 0,000 mm 0,0 UV-I 0 W/m 13,3 C 14,1 C 1,6 km/h (1 Bft) 95,74 %
27.09.2019 04:26 14,1 C 13,9 C 14,4 C 95 % 1014,9 hPa 0,0 l/m 1,5 km/h (1 Bft) S 188 0 min 0,000 mm 0,0 UV-I 0 W/m 13,3 C 14,1 C 3,2 km/h (1 Bft) 96,00 %
27.09.2019 04:28 14,1 C 13,9 C 14,4 C 95 % 1014,9 hPa 0,0 l/m 2,4 km/h (1 Bft) S 188 0 min 0,000 mm 0,0 UV-I 0 W/m 13,3 C 14,1 C 3,2 km/h (1 Bft) 97,87 %
27.09.2019 04:30 14,1 C 13,9 C 14,4 C 95 % 1014,9 hPa 0,0 l/m 2,9 km/h (1 Bft) S 188 0 min 0,000 mm 0,0 UV-I 0 W/m 13,3 C 14,1 C 4,8 km/h (1 Bft) 94,74 %
27.09.2019 04:32 14,1 C 13,9 C 14,4 C 95 % 1014,9 hPa 0,0 l/m 3,7 km/h (1 Bft) S 188 0 min 0,000 mm 0,0 UV-I 0 W/m 13,3 C 14,1 C 4,8 km/h (1 Bft) 95,74 %
27.09.2019 04:34 14,1 C 13,9 C 14,4 C 96 % 1014,8 hPa 0,0 l/m 3,5 km/h (1 Bft) S-SO 157 0 min 0,000 mm 0,0 UV-I 0 W/m 13,5 C 14,1 C 8,0 km/h (2 Bft) 97,87 %
27.09.2019 04:36 14,2 C 13,9 C 14,4 C 95 % 1014,8 hPa 0,0 l/m 1,5 km/h (1 Bft) S-SO 157 0 min 0,000 mm 0,0 UV-I 0 W/m 13,4 C 14,2 C 3,2 km/h (1 Bft) 98,00 %
27.09.2019 04:38 14,2 C 13,9 C 14,4 C 95 % 1014,8 hPa 0,0 l/m 3,0 km/h (1 Bft) S-SO 157 0 min 0,000 mm 0,0 UV-I 0 W/m 13,4 C 14,2 C 4,8 km/h (1 Bft) 97,87 %
27.09.2019 04:40 14,2 C 13,9 C 14,4 C 95 % 1014,8 hPa 0,0 l/m 3,8 km/h (1 Bft) S-SO 157 0 min 0,000 mm 0,0 UV-I 0 W/m 13,4 C 14,2 C 4,8 km/h (1 Bft) 97,87 %
27.09.2019 04:42 14,1 C 13,9 C 14,4 C 95 % 1014,8 hPa 0,0 l/m 2,4 km/h (1 Bft) S-SO 157 0 min 0,000 mm 0,0 UV-I 0 W/m 13,3 C 14,1 C 4,8 km/h (1 Bft) 97,87 %
27.09.2019 04:44 14,1 C 13,9 C 14,4 C 95 % 1014,8 hPa 0,0 l/m 2,1 km/h (1 Bft) S-SO 157 0 min 0,000 mm 0,0 UV-I 0 W/m 13,3 C 14,1 C 4,8 km/h (1 Bft) 95,83 %
27.09.2019 04:46 14,1 C 13,9 C 14,4 C 96 % 1014,7 hPa 0,0 l/m 2,1 km/h (1 Bft) S-SO 157 0 min 0,000 mm 0,0 UV-I 0 W/m 13,5 C 14,1 C 3,2 km/h (1 Bft) 93,62 %
27.09.2019 04:48 14,1 C 13,9 C 14,4 C 96 % 1014,7 hPa 0,0 l/m 3,1 km/h (1 Bft) S-SO 157 0 min 0,000 mm 0,0 UV-I 0 W/m 13,5 C 14,1 C 4,8 km/h (1 Bft) 95,74 %
27.09.2019 04:50 14,1 C 13,9 C 14,4 C 96 % 1014,7 hPa 0,0 l/m 1,1 km/h (1 Bft) S-SO 157 0 min 0,000 mm 0,0 UV-I 0 W/m 13,5 C 14,1 C 3,2 km/h (1 Bft) 95,74 %
27.09.2019 04:52 14,1 C 13,9 C 14,4 C 96 % 1014,7 hPa 0,0 l/m 0,5 km/h (0 Bft) S-SO 157 0 min 0,000 mm 0,0 UV-I 0 W/m 13,5 C 14,1 C 1,6 km/h (1 Bft) 95,74 %
27.09.2019 04:54 14,1 C 13,9 C 14,4 C 96 % 1014,7 hPa 0,0 l/m 0,0 km/h (0 Bft) S-SO 157 0 min 0,000 mm 0,0 UV-I 0 W/m 13,5 C 14,1 C 0,0 km/h (0 Bft) 91,49 %
27.09.2019 04:56 14,1 C 13,9 C 13,9 C 96 % 1014,8 hPa 0,0 l/m 0,0 km/h (0 Bft) S-SO 157 0 min 0,000 mm 0,0 UV-I 0 W/m 13,5 C 14,1 C 0,0 km/h (0 Bft) 95,74 %
27.09.2019 04:58 14,1 C 13,9 C 13,9 C 96 % 1014,8 hPa 0,0 l/m 0,0 km/h (0 Bft) S-SO 157 0 min 0,000 mm 0,0 UV-I 0 W/m 13,5 C 14,1 C 0,0 km/h (0 Bft) 95,74 %
27.09.2019 05:00 14,1 C 13,9 C 13,9 C 96 % 1014,8 hPa 0,0 l/m 0,2 km/h (0 Bft) S-SO 157 0 min 0,000 mm 0,0 UV-I 0 W/m 13,5 C 14,1 C 1,6 km/h (1 Bft) 95,74 %
27.09.2019 05:02 14,1 C 13,9 C 13,9 C 96 % 1014,8 hPa 0,0 l/m 1,3 km/h (1 Bft) S-SO 157 0 min 0,000 mm 0,0 UV-I 0 W/m 13,5 C 14,1 C 3,2 km/h (1 Bft) 97,87 %
27.09.2019 05:04 14,0 C 13,9 C 13,9 C 95 % 1014,8 hPa 0,0 l/m 2,3 km/h (1 Bft) S-SO 157 0 min 0,000 mm 0,0 UV-I 0 W/m 13,2 C 14,0 C 3,2 km/h (1 Bft) 93,62 %
27.09.2019 05:06 14,0 C 13,9 C 13,9 C 95 % 1014,8 hPa 0,0 l/m 3,0 km/h (1 Bft) S-SO 157 0 min 0,000 mm 0,0 UV-I 0 W/m 13,2 C 14,0 C 3,2 km/h (1 Bft) 95,74 %
27.09.2019 05:08 13,9 C 13,9 C 13,9 C 95 % 1014,9 hPa 0,0 l/m 3,4 km/h (1 Bft) O-NO 74 0 min 0,000 mm 0,0 UV-I 0 W/m 13,1 C 13,9 C 4,8 km/h (1 Bft) 95,74 %
27.09.2019 05:10 13,9 C 13,9 C 13,9 C 95 % 1014,9 hPa 0,0 l/m 2,7 km/h (1 Bft) O-NO 74 0 min 0,000 mm 0,0 UV-I 0 W/m 13,1 C 13,9 C 3,2 km/h (1 Bft) 100,00 %
27.09.2019 05:12 13,9 C 13,9 C 13,9 C 95 % 1015,0 hPa 0,0 l/m 2,1 km/h (1 Bft) O-NO 74 0 min 0,000 mm 0,0 UV-I 0 W/m 13,1 C 13,9 C 3,2 km/h (1 Bft) 100,00 %
27.09.2019 05:14 13,9 C 13,9 C 13,9 C 96 % 1015,0 hPa 0,0 l/m 1,2 km/h (1 Bft) O-NO 74 0 min 0,000 mm 0,0 UV-I 0 W/m 13,3 C 13,9 C 3,2 km/h (1 Bft) 97,87 %
27.09.2019 05:16 13,9 C 13,9 C 13,9 C 96 % 1015,0 hPa 0,0 l/m 1,1 km/h (1 Bft) O-NO 74 0 min 0,000 mm 0,0 UV-I 0 W/m 13,3 C 13,9 C 1,6 km/h (1 Bft) 95,74 %
27.09.2019 05:18 13,9 C 13,9 C 13,9 C 96 % 1015,0 hPa 0,0 l/m 2,2 km/h (1 Bft) O-NO 74 0 min 0,000 mm 0,0 UV-I 0 W/m 13,3 C 13,9 C 3,2 km/h (1 Bft) 97,87 %
27.09.2019 05:20 13,9 C 13,9 C 13,9 C 96 % 1015,0 hPa 0,0 l/m 2,5 km/h (1 Bft) O-NO 74 0 min 0,000 mm 0,0 UV-I 0 W/m 13,3 C 13,9 C 3,2 km/h (1 Bft) 95,74 %
27.09.2019 05:22 13,9 C 13,9 C 13,9 C 96 % 1014,9 hPa 0,0 l/m 2,5 km/h (1 Bft) O-NO 74 0 min 0,000 mm 0,0 UV-I 0 W/m 13,3 C 13,9 C 3,2 km/h (1 Bft) 97,92 %
27.09.2019 05:24 13,9 C 13,9 C 13,9 C 96 % 1014,9 hPa 0,0 l/m 2,4 km/h (1 Bft) O-NO 74 0 min 0,000 mm 0,0 UV-I 0 W/m 13,3 C 13,9 C 3,2 km/h (1 Bft) 97,87 %
27.09.2019 05:26 13,9 C 13,9 C 13,9 C 96 % 1014,9 hPa 0,0 l/m 3,3 km/h (1 Bft) O-NO 75 0 min 0,000 mm 0,0 UV-I 0 W/m 13,3 C 13,9 C 4,8 km/h (1 Bft) 95,74 %
27.09.2019 05:28 13,9 C 13,9 C 13,9 C 96 % 1014,9 hPa 0,0 l/m 3,5 km/h (1 Bft) O-NO 75 0 min 0,000 mm 0,0 UV-I 0 W/m 13,3 C 13,9 C 4,8 km/h (1 Bft) 97,87 %
27.09.2019 05:30 13,9 C 13,9 C 13,9 C 96 % 1014,9 hPa 0,0 l/m 2,2 km/h (1 Bft) O-NO 75 0 min 0,000 mm 0,0 UV-I 0 W/m 13,3 C 13,9 C 3,2 km/h (1 Bft) 97,37 %
27.09.2019 05:32 13,9 C 13,9 C 13,9 C 96 % 1014,9 hPa 0,0 l/m 1,3 km/h (1 Bft) O-NO 75 0 min 0,000 mm 0,0 UV-I 0 W/m 13,3 C 13,9 C 1,6 km/h (1 Bft) 97,87 %
27.09.2019 05:34 13,9 C 13,9 C 13,9 C 96 % 1015,0 hPa 0,0 l/m 1,2 km/h (1 Bft) O-NO 75 0 min 0,000 mm 0,0 UV-I 0 W/m 13,3 C 13,9 C 3,2 km/h (1 Bft) 98,00 %
27.09.2019 05:36 13,8 C 13,9 C 13,9 C 96 % 1015,0 hPa 0,0 l/m 0,7 km/h (0 Bft) O-NO 75 0 min 0,000 mm 0,0 UV-I 0 W/m 13,2 C 13,8 C 3,2 km/h (1 Bft) 94,00 %
27.09.2019 05:38 13,8 C 13,9 C 13,9 C 96 % 1015,0 hPa 0,0 l/m 1,4 km/h (1 Bft) O-NO 75 0 min 0,000 mm 0,0 UV-I 0 W/m 13,2 C 13,8 C 3,2 km/h (1 Bft) 97,87 %
27.09.2019 05:40 13,8 C 13,9 C 13,9 C 96 % 1014,9 hPa 0,0 l/m 2,3 km/h (1 Bft) O-NO 75 0 min 0,000 mm 0,0 UV-I 0 W/m 13,2 C 13,8 C 3,2 km/h (1 Bft) 95,74 %
27.09.2019 05:42 13,8 C 13,9 C 13,9 C 96 % 1014,9 hPa 0,0 l/m 3,9 km/h (1 Bft) O-NO 76 0 min 0,000 mm 0,0 UV-I 0 W/m 13,2 C 13,8 C 4,8 km/h (1 Bft) 97,87 %
27.09.2019 05:44 13,8 C 13,9 C 13,9 C 96 % 1014,9 hPa 0,0 l/m 3,3 km/h (1 Bft) O-NO 77 0 min 0,000 mm 0,0 UV-I 0 W/m 13,2 C 13,8 C 4,8 km/h (1 Bft) 93,62 %
27.09.2019 05:46 13,8 C 13,9 C 13,9 C 96 % 1014,8 hPa 0,0 l/m 1,0 km/h (0 Bft) O-NO 77 0 min 0,000 mm 0,0 UV-I 0 W/m 13,2 C 13,8 C 3,2 km/h (1 Bft) 97,87 %
27.09.2019 05:48 13,8 C 13,9 C 13,9 C 96 % 1014,8 hPa 0,0 l/m 1,4 km/h (1 Bft) O-NO 77 0 min 0,000 mm 0,0 UV-I 0 W/m 13,2 C 13,8 C 1,6 km/h (1 Bft) 100,00 %
27.09.2019 05:50 13,8 C 13,9 C 13,9 C 96 % 1014,8 hPa 0,0 l/m 1,8 km/h (1 Bft) O-NO 77 0 min 0,000 mm 0,0 UV-I 0 W/m 13,2 C 13,8 C 3,2 km/h (1 Bft) 100,00 %
27.09.2019 05:52 13,8 C 13,9 C 13,9 C 96 % 1014,7 hPa 0,0 l/m 1,1 km/h (1 Bft) O-NO 77 0 min 0,000 mm 0,0 UV-I 0 W/m 13,2 C 13,8 C 3,2 km/h (1 Bft) 97,37 %
27.09.2019 05:54 13,8 C 13,9 C 13,3 C 96 % 1014,7 hPa 0,0 l/m 0,9 km/h (0 Bft) O-NO 77 0 min 0,000 mm 0,0 UV-I 0 W/m 13,2 C 13,8 C 1,6 km/h (1 Bft) 100,00 %
27.09.2019 05:56 13,8 C 13,9 C 13,3 C 96 % 1014,8 hPa 0,0 l/m 0,9 km/h (0 Bft) O-NO 77 0 min 0,000 mm 0,0 UV-I 0 W/m 13,2 C 13,8 C 1,6 km/h (1 Bft) 98,00 %
27.09.2019 05:58 13,8 C 13,9 C 13,3 C 96 % 1014,8 hPa 0,0 l/m 0,0 km/h (0 Bft) O-NO 77 0 min 0,000 mm 0,0 UV-I 0 W/m 13,2 C 13,8 C 1,6 km/h (1 Bft) 100,00 %
27.09.2019 06:00 13,8 C 13,9 C 12,8 C 96 % 1014,8 hPa 0,0 l/m 0,9 km/h (0 Bft) O-NO 77 0 min 0,000 mm 0,0 UV-I 0 W/m 13,2 C 13,8 C 1,6 km/h (1 Bft) 97,73 %
27.09.2019 06:02 13,8 C 13,9 C 12,8 C 96 % 1014,8 hPa 0,0 l/m 0,4 km/h (0 Bft) O-NO 77 0 min 0,000 mm 0,0 UV-I 0 W/m 13,2 C 13,8 C 1,6 km/h (1 Bft) 100,00 %
27.09.2019 06:04 13,7 C 13,9 C 12,8 C 96 % 1014,8 hPa 0,0 l/m 0,0 km/h (0 Bft) O-NO 77 0 min 0,000 mm 0,0 UV-I 0 W/m 13,1 C 13,7 C 0,0 km/h (0 Bft) 97,87 %
27.09.2019 06:06 13,7 C 13,9 C 12,8 C 96 % 1014,8 hPa 0,0 l/m 0,4 km/h (0 Bft) O-NO 77 0 min 0,000 mm 0,0 UV-I 0 W/m 13,1 C 13,7 C 1,6 km/h (1 Bft) 100,00 %
27.09.2019 06:08 13,7 C 13,9 C 13,3 C 96 % 1014,8 hPa 0,0 l/m 0,7 km/h (0 Bft) O-NO 77 0 min 0,000 mm 0,0 UV-I 0 W/m 13,1 C 13,7 C 1,6 km/h (1 Bft) 95,74 %
27.09.2019 06:10 13,7 C 13,9 C 13,3 C 96 % 1014,8 hPa 0,0 l/m 0,1 km/h (0 Bft) O-NO 77 0 min 0,000 mm 0,0 UV-I 0 W/m 13,1 C 13,7 C 1,6 km/h (1 Bft) 100,00 %
27.09.2019 06:12 13,7 C 13,9 C 13,3 C 96 % 1014,7 hPa 0,0 l/m 0,6 km/h (0 Bft) O-NO 77 0 min 0,000 mm 0,0 UV-I 0 W/m 13,1 C 13,7 C 3,2 km/h (1 Bft) 100,00 %
27.09.2019 06:14 13,7 C 13,9 C 13,3 C 96 % 1014,8 hPa 0,0 l/m 1,2 km/h (1 Bft) O-NO 77 0 min 0,000 mm 0,0 UV-I 0 W/m 13,1 C 13,7 C 1,6 km/h (1 Bft) 97,87 %
27.09.2019 06:16 13,7 C 13,9 C 13,9 C 96 % 1014,7 hPa 0,0 l/m 1,8 km/h (1 Bft) O-NO 77 0 min 0,000 mm 0,0 UV-I 0 W/m 13,1 C 13,7 C 3,2 km/h (1 Bft) 97,87 %
27.09.2019 06:18 13,7 C 13,9 C 13,9 C 96 % 1014,7 hPa 0,0 l/m 1,9 km/h (1 Bft) O-NO 77 0 min 0,000 mm 0,0 UV-I 0 W/m 13,1 C 13,7 C 3,2 km/h (1 Bft) 95,74 %
27.09.2019 06:20 13,7 C 13,9 C 13,9 C 96 % 1014,7 hPa 0,0 l/m 0,7 km/h (0 Bft) O-NO 77 0 min 0,000 mm 0,0 UV-I 0 W/m 13,1 C 13,7 C 1,6 km/h (1 Bft) 97,87 %
27.09.2019 06:22 13,7 C 13,9 C 13,9 C 96 % 1014,8 hPa 0,0 l/m 0,8 km/h (0 Bft) O-NO 77 0 min 0,000 mm 0,0 UV-I 0 W/m 13,1 C 13,7 C 1,6 km/h (1 Bft) 95,74 %
27.09.2019 06:24 13,7 C 13,9 C 13,9 C 96 % 1014,8 hPa 0,0 l/m 1,5 km/h (1 Bft) O-NO 77 0 min 0,000 mm 0,0 UV-I 0 W/m 13,1 C 13,7 C 3,2 km/h (1 Bft) 95,74 %
27.09.2019 06:26 13,7 C 13,9 C 13,9 C 96 % 1014,8 hPa 0,0 l/m 0,2 km/h (0 Bft) O-NO 77 0 min 0,000 mm 0,0 UV-I 0 W/m 13,1 C 13,7 C 1,6 km/h (1 Bft) 97,87 %
27.09.2019 06:28 13,7 C 13,9 C 13,9 C 96 % 1014,8 hPa 0,0 l/m 0,0 km/h (0 Bft) O-NO 77 0 min 0,000 mm 0,0 UV-I 0 W/m 13,1 C 13,7 C 0,0 km/h (0 Bft) 95,74 %
27.09.2019 06:30 13,7 C 13,9 C 13,9 C 96 % 1014,8 hPa 0,0 l/m 0,5 km/h (0 Bft) O-NO 77 0 min 0,000 mm 0,0 UV-I 0 W/m 13,1 C 13,7 C 1,6 km/h (1 Bft) 97,87 %
27.09.2019 06:32 13,7 C 13,9 C 13,9 C 96 % 1014,8 hPa 0,0 l/m 0,9 km/h (0 Bft) O-NO 77 0 min 0,000 mm 0,0 UV-I 0 W/m 13,1 C 13,7 C 1,6 km/h (1 Bft) 97,87 %
27.09.2019 06:34 13,7 C 13,9 C 13,9 C 96 % 1014,8 hPa 0,0 l/m 1,2 km/h (1 Bft) O-NO 77 0 min 0,000 mm 0,0 UV-I 0 W/m 13,1 C 13,7 C 1,6 km/h (1 Bft) 94,00 %
27.09.2019 06:36 13,7 C 13,9 C 13,9 C 96 % 1014,8 hPa 0,0 l/m 1,8 km/h (1 Bft) O-NO 77 0 min 0,000 mm 0,0 UV-I 0 W/m 13,1 C 13,7 C 3,2 km/h (1 Bft) 97,87 %
27.09.2019 06:38 13,7 C 13,9 C 13,9 C 96 % 1014,8 hPa 0,0 l/m 1,5 km/h (1 Bft) O-NO 77 0 min 0,000 mm 0,0 UV-I 0 W/m 13,1 C 13,7 C 3,2 km/h (1 Bft) 100,00 %
27.09.2019 06:40 13,7 C 13,9 C 13,9 C 96 % 1014,9 hPa 0,0 l/m 0,0 km/h (0 Bft) O-NO 77 0 min 0,000 mm 0,0 UV-I 0 W/m 13,1 C 13,7 C 1,6 km/h (1 Bft) 97,92 %
27.09.2019 06:42 13,7 C 13,9 C 13,9 C 96 % 1014,9 hPa 0,0 l/m 1,0 km/h (0 Bft) O-NO 77 0 min 0,000 mm 0,0 UV-I 0 W/m 13,1 C 13,7 C 1,6 km/h (1 Bft) 100,00 %
27.09.2019 06:44 13,7 C 13,9 C 13,9 C 96 % 1015,0 hPa 0,0 l/m 0,1 km/h (0 Bft) O-NO 77 0 min 0,000 mm 0,0 UV-I 0 W/m 13,1 C 13,7 C 1,6 km/h (1 Bft) 100,00 %
27.09.2019 06:46 13,7 C 13,9 C 13,9 C 96 % 1014,9 hPa 0,0 l/m 0,0 km/h (0 Bft) O-NO 77 0 min 0,000 mm 0,0 UV-I 0 W/m 13,1 C 13,7 C 0,0 km/h (0 Bft) 94,74 %
27.09.2019 06:48 13,7 C 13,9 C 13,9 C 96 % 1014,9 hPa 0,0 l/m 0,0 km/h (0 Bft) O-NO 77 0 min 0,000 mm 0,0 UV-I 0 W/m 13,1 C 13,7 C 0,0 km/h (0 Bft) 100,00 %
27.09.2019 06:50 13,7 C 13,9 C 13,9 C 96 % 1015,0 hPa 0,0 l/m 0,0 km/h (0 Bft) O-NO 77 0 min 0,000 mm 0,0 UV-I 0 W/m 13,1 C 13,7 C 0,0 km/h (0 Bft) 97,87 %
27.09.2019 06:52 13,7 C 13,9 C 13,9 C 96 % 1015,0 hPa 0,0 l/m 0,0 km/h (0 Bft) O-NO 77 0 min 0,000 mm 0,0 UV-I 0 W/m 13,1 C 13,7 C 0,0 km/h (0 Bft) 97,87 %
27.09.2019 06:54 13,7 C 13,9 C 13,9 C 96 % 1014,9 hPa 0,0 l/m 0,0 km/h (0 Bft) O-NO 77 0 min 0,000 mm 0,0 UV-I 0 W/m 13,1 C 13,7 C 0,0 km/h (0 Bft) 97,87 %
27.09.2019 06:56 13,7 C 13,9 C 13,9 C 96 % 1015,0 hPa 0,0 l/m 1,3 km/h (1 Bft) O-NO 77 0 min 0,000 mm 0,0 UV-I 1 W/m 13,1 C 13,7 C 3,2 km/h (1 Bft) 100,00 %
27.09.2019 06:58 13,7 C 13,9 C 13,9 C 96 % 1015,0 hPa 0,0 l/m 1,8 km/h (1 Bft) O-NO 77 0 min 0,000 mm 0,0 UV-I 5 W/m 13,1 C 13,7 C 3,2 km/h (1 Bft) 98,00 %
27.09.2019 07:00 13,7 C 13,9 C 13,9 C 96 % 1015,0 hPa 0,0 l/m 1,1 km/h (1 Bft) O-NO 77 0 min 0,000 mm 0,0 UV-I 5 W/m 13,1 C 13,7 C 1,6 km/h (1 Bft) 100,00 %
27.09.2019 07:02 13,8 C 13,9 C 13,9 C 97 % 1015,0 hPa 0,0 l/m 0,7 km/h (0 Bft) O-NO 77 0 min 0,000 mm 0,0 UV-I 6 W/m 13,3 C 13,8 C 1,6 km/h (1 Bft) 100,00 %
27.09.2019 07:04 13,8 C 13,9 C 13,9 C 97 % 1015,0 hPa 0,0 l/m 1,1 km/h (1 Bft) O-NO 77 0 min 0,000 mm 0,0 UV-I 6 W/m 13,3 C 13,8 C 1,6 km/h (1 Bft) 100,00 %
27.09.2019 07:06 13,8 C 13,9 C 13,9 C 97 % 1015,0 hPa 0,0 l/m 1,7 km/h (1 Bft) O-NO 77 0 min 0,000 mm 0,0 UV-I 5 W/m 13,3 C 13,8 C 3,2 km/h (1 Bft) 100,00 %
27.09.2019 07:08 13,8 C 13,9 C 13,9 C 97 % 1015,0 hPa 0,0 l/m 2,4 km/h (1 Bft) O-NO 77 0 min 0,000 mm 0,0 UV-I 5 W/m 13,3 C 13,8 C 3,2 km/h (1 Bft) 100,00 %
27.09.2019 07:10 13,8 C 13,9 C 13,9 C 96 % 1014,9 hPa 0,0 l/m 1,7 km/h (1 Bft) O-NO 77 0 min 0,000 mm 0,0 UV-I 5 W/m 13,2 C 13,8 C 3,2 km/h (1 Bft) 100,00 %
27.09.2019 07:12 13,7 C 13,9 C 13,9 C 96 % 1015,0 hPa 0,0 l/m 1,5 km/h (1 Bft) O-NO 77 0 min 0,000 mm 0,0 UV-I 5 W/m 13,1 C 13,7 C 3,2 km/h (1 Bft) 100,00 %
27.09.2019 07:14 13,7 C 13,9 C 13,9 C 96 % 1015,0 hPa 0,0 l/m 0,7 km/h (0 Bft) O-NO 77 0 min 0,000 mm 0,0 UV-I 5 W/m 13,1 C 13,7 C 1,6 km/h (1 Bft) 97,92 %
27.09.2019 07:16 13,7 C 13,9 C 13,9 C 96 % 1015,1 hPa 0,0 l/m 1,0 km/h (0 Bft) O-NO 77 0 min 0,000 mm 0,0 UV-I 7 W/m 13,1 C 13,7 C 1,6 km/h (1 Bft) 98,00 %
27.09.2019 07:18 13,7 C 13,9 C 14,4 C 96 % 1015,1 hPa 0,0 l/m 0,0 km/h (0 Bft) O-NO 77 0 min 0,000 mm 0,0 UV-I 7 W/m 13,1 C 13,7 C 1,6 km/h (1 Bft) 97,87 %
27.09.2019 07:20 13,8 C 13,9 C 14,4 C 96 % 1015,1 hPa 0,0 l/m 1,0 km/h (0 Bft) O-NO 77 0 min 0,000 mm 0,0 UV-I 7 W/m 13,2 C 13,8 C 3,2 km/h (1 Bft) 96,00 %
27.09.2019 07:22 13,8 C 13,9 C 13,9 C 96 % 1015,1 hPa 0,0 l/m 1,2 km/h (1 Bft) O-NO 77 0 min 0,000 mm 0,0 UV-I 7 W/m 13,2 C 13,8 C 1,6 km/h (1 Bft) 97,87 %
27.09.2019 07:24 13,8 C 13,9 C 13,9 C 96 % 1015,0 hPa 0,0 l/m 0,8 km/h (0 Bft) O-NO 77 0 min 0,000 mm 0,0 UV-I 7 W/m 13,2 C 13,8 C 1,6 km/h (1 Bft) 97,87 %
27.09.2019 07:26 13,8 C 13,9 C 13,9 C 96 % 1015,1 hPa 0,0 l/m 0,7 km/h (0 Bft) O-NO 63 0 min 0,000 mm 0,0 UV-I 7 W/m 13,2 C 13,8 C 1,6 km/h (1 Bft) 97,87 %
27.09.2019 07:28 13,8 C 13,9 C 13,9 C 96 % 1015,0 hPa 0,0 l/m 0,4 km/h (0 Bft) O-NO 63 0 min 0,000 mm 0,0 UV-I 8 W/m 13,2 C 13,8 C 1,6 km/h (1 Bft) 97,87 %
27.09.2019 07:30 13,8 C 13,9 C 14,4 C 96 % 1015,0 hPa 0,0 l/m 0,7 km/h (0 Bft) O-NO 63 0 min 0,000 mm 0,0 UV-I 9 W/m 13,2 C 13,8 C 3,2 km/h (1 Bft) 95,74 %
27.09.2019 07:32 13,8 C 13,9 C 14,4 C 96 % 1015,0 hPa 0,0 l/m 2,6 km/h (1 Bft) O-NO 64 0 min 0,000 mm 0,0 UV-I 10 W/m 13,2 C 13,8 C 3,2 km/h (1 Bft) 97,87 %
27.09.2019 07:34 13,8 C 13,9 C 14,4 C 97 % 1014,9 hPa 0,0 l/m 4,0 km/h (1 Bft) O 79 0 min 0,000 mm 0,0 UV-I 11 W/m 13,3 C 13,8 C 6,4 km/h (2 Bft) 93,62 %
27.09.2019 07:36 13,8 C 13,9 C 14,4 C 97 % 1014,8 hPa 0,0 l/m 4,0 km/h (1 Bft) O 79 0 min 0,000 mm 0,0 UV-I 11 W/m 13,3 C 13,8 C 4,8 km/h (1 Bft) 95,74 %
27.09.2019 07:38 13,9 C 13,9 C 14,4 C 97 % 1014,8 hPa 0,0 l/m 3,0 km/h (1 Bft) O 79 0 min 0,000 mm 0,0 UV-I 11 W/m 13,4 C 13,9 C 4,8 km/h (1 Bft) 95,74 %
27.09.2019 07:40 13,9 C 13,9 C 14,4 C 97 % 1014,8 hPa 0,2 l/m 1,8 km/h (1 Bft) O 79 0 min 0,000 mm 0,0 UV-I 12 W/m 13,4 C 13,9 C 3,2 km/h (1 Bft) 95,74 %
27.09.2019 07:42 13,9 C 13,9 C 14,4 C 97 % 1014,9 hPa 0,0 l/m 2,3 km/h (1 Bft) O 84 0 min 0,000 mm 0,0 UV-I 14 W/m 13,4 C 13,9 C 3,2 km/h (1 Bft) 95,74 %
27.09.2019 07:44 13,9 C 13,9 C 14,4 C 97 % 1014,8 hPa 0,0 l/m 3,8 km/h (1 Bft) S-SO 150 0 min 0,000 mm 0,0 UV-I 15 W/m 13,4 C 13,9 C 4,8 km/h (1 Bft) 95,74 %
27.09.2019 07:46 13,9 C 13,9 C 14,4 C 97 % 1014,9 hPa 0,0 l/m 2,5 km/h (1 Bft) S-SO 150 0 min 0,000 mm 0,0 UV-I 18 W/m 13,4 C 13,9 C 4,8 km/h (1 Bft) 93,62 %
27.09.2019 07:48 13,9 C 13,9 C 14,4 C 97 % 1014,8 hPa 0,0 l/m 2,2 km/h (1 Bft) S-SO 150 0 min 0,000 mm 0,0 UV-I 19 W/m 13,4 C 13,9 C 3,2 km/h (1 Bft) 94,29 %
27.09.2019 07:50 13,9 C 13,9 C 14,4 C 96 % 1014,9 hPa 0,0 l/m 3,1 km/h (1 Bft) S-SO 164 0 min 0,000 mm 0,0 UV-I 21 W/m 13,3 C 13,9 C 6,4 km/h (2 Bft) 93,75 %
27.09.2019 07:52 14,0 C 13,9 C 14,4 C 97 % 1014,9 hPa 0,0 l/m 3,4 km/h (1 Bft) S-SW 192 0 min 0,000 mm 0,0 UV-I 22 W/m 13,5 C 14,0 C 6,4 km/h (2 Bft) 95,74 %
27.09.2019 07:54 14,0 C 13,9 C 14,4 C 96 % 1014,9 hPa 0,0 l/m 5,0 km/h (1 Bft) S 175 0 min 0,000 mm 0,0 UV-I 25 W/m 13,4 C 14,0 C 9,7 km/h (2 Bft) 92,00 %
27.09.2019 07:56 13,9 C 13,9 C 14,4 C 96 % 1014,8 hPa 0,0 l/m 3,7 km/h (1 Bft) S 169 0 min 0,000 mm 0,0 UV-I 27 W/m 13,3 C 13,9 C 6,4 km/h (2 Bft) 95,74 %
27.09.2019 07:58 14,0 C 13,9 C 14,4 C 96 % 1014,8 hPa 0,0 l/m 5,4 km/h (1 Bft) S-SO 162 0 min 0,000 mm 0,0 UV-I 28 W/m 13,4 C 14,0 C 6,4 km/h (2 Bft) 93,62 %
27.09.2019 08:00 14,0 C 13,9 C 14,4 C 96 % 1014,8 hPa 0,0 l/m 3,3 km/h (1 Bft) S 182 0 min 0,000 mm 0,0 UV-I 28 W/m 13,4 C 14,0 C 6,4 km/h (2 Bft) 95,74 %
27.09.2019 08:02 14,0 C 13,9 C 14,4 C 96 % 1014,8 hPa 0,0 l/m 4,1 km/h (1 Bft) S-SO 167 0 min 0,000 mm 0,0 UV-I 28 W/m 13,4 C 14,0 C 6,4 km/h (2 Bft) 95,74 %
27.09.2019 08:04 14,1 C 13,9 C 14,4 C 96 % 1014,7 hPa 0,0 l/m 5,2 km/h (1 Bft) S-SO 162 0 min 0,000 mm 0,0 UV-I 32 W/m 13,5 C 14,1 C 8,0 km/h (2 Bft) 97,87 %
27.09.2019 08:06 14,1 C 13,9 C 15,0 C 96 % 1014,7 hPa 0,0 l/m 5,8 km/h (2 Bft) S-SO 166 0 min 0,000 mm 0,0 UV-I 42 W/m 13,5 C 14,1 C 8,0 km/h (2 Bft) 96,00 %
27.09.2019 08:08 14,1 C 13,9 C 15,0 C 97 % 1014,7 hPa 0,0 l/m 4,8 km/h (1 Bft) S-SO 166 0 min 0,000 mm 0,0 UV-I 49 W/m 13,6 C 14,1 C 6,4 km/h (2 Bft) 97,87 %
27.09.2019 08:10 14,2 C 13,9 C 15,0 C 97 % 1014,6 hPa 0,0 l/m 4,4 km/h (1 Bft) S-SO 166 0 min 0,000 mm 0,0 UV-I 58 W/m 13,7 C 14,2 C 6,4 km/h (2 Bft) 93,62 %
27.09.2019 08:12 14,2 C 13,9 C 15,0 C 97 % 1014,6 hPa 0,0 l/m 5,4 km/h (1 Bft) S-SO 163 0 min 0,000 mm 0,0 UV-I 64 W/m 13,7 C 14,2 C 8,0 km/h (2 Bft) 97,87 %
27.09.2019 08:14 14,3 C 13,9 C 15,0 C 97 % 1014,5 hPa 0,0 l/m 5,3 km/h (1 Bft) S-SO 148 0 min 0,000 mm 0,0 UV-I 64 W/m 13,8 C 14,3 C 8,0 km/h (2 Bft) 97,87 %
27.09.2019 08:16 14,3 C 13,9 C 15,0 C 96 % 1014,5 hPa 0,0 l/m 6,7 km/h (2 Bft) S-SO 163 0 min 0,000 mm 0,0 UV-I 61 W/m 13,7 C 14,1 C 11,3 km/h (2 Bft) 97,87 %
27.09.2019 08:18 14,3 C 13,9 C 15,0 C 96 % 1014,6 hPa 0,0 l/m 7,0 km/h (2 Bft) S-SO 161 0 min 0,000 mm 0,0 UV-I 55 W/m 13,7 C 13,9 C 12,9 km/h (3 Bft) 95,74 %
27.09.2019 08:20 14,3 C 13,9 C 15,0 C 96 % 1014,6 hPa 0,0 l/m 6,6 km/h (2 Bft) S 180 0 min 0,000 mm 0,0 UV-I 48 W/m 13,7 C 14,2 C 9,7 km/h (2 Bft) 100,00 %
27.09.2019 08:22 14,3 C 13,9 C 15,0 C 96 % 1014,6 hPa 0,0 l/m 6,7 km/h (2 Bft) S-SO 150 0 min 0,000 mm 0,0 UV-I 46 W/m 13,7 C 14,1 C 11,3 km/h (2 Bft) 96,15 %
27.09.2019 08:24 14,4 C 13,9 C 15,0 C 96 % 1014,6 hPa 0,0 l/m 4,8 km/h (1 Bft) S 169 0 min 0,000 mm 0,0 UV-I 47 W/m 13,8 C 14,4 C 8,0 km/h (2 Bft) 98,00 %
27.09.2019 08:26 14,4 C 13,9 C 15,0 C 96 % 1014,7 hPa 0,0 l/m 3,8 km/h (1 Bft) S 171 0 min 0,000 mm 0,0 UV-I 51 W/m 13,8 C 14,4 C 6,4 km/h (2 Bft) 97,87 %
27.09.2019 08:28 14,4 C 13,9 C 15,0 C 96 % 1014,7 hPa 0,0 l/m 3,1 km/h (1 Bft) S 171 0 min 0,000 mm 0,0 UV-I 53 W/m 13,8 C 14,4 C 6,4 km/h (2 Bft) 97,87 %
27.09.2019 08:30 14,4 C 13,9 C 15,0 C 96 % 1014,7 hPa 0,0 l/m 2,6 km/h (1 Bft) S-SO 167 0 min 0,000 mm 0,0 UV-I 58 W/m 13,8 C 14,4 C 6,4 km/h (2 Bft) 98,00 %
27.09.2019 08:32 14,4 C 13,9 C 15,0 C 96 % 1014,7 hPa 0,0 l/m 4,3 km/h (1 Bft) S-SO 167 0 min 0,000 mm 0,0 UV-I 66 W/m 13,8 C 14,4 C 6,4 km/h (2 Bft) 97,87 %
27.09.2019 08:34 14,4 C 13,9 C 15,6 C 96 % 1014,7 hPa 0,0 l/m 1,8 km/h (1 Bft) S-SO 167 0 min 0,000 mm 0,0 UV-I 72 W/m 13,8 C 14,4 C 4,8 km/h (1 Bft) 97,44 %
27.09.2019 08:36 14,6 C 13,9 C 15,6 C 96 % 1014,7 hPa 0,0 l/m 0,4 km/h (0 Bft) S-SO 167 0 min 0,000 mm 0,0 UV-I 82 W/m 14,0 C 14,6 C 1,6 km/h (1 Bft) 95,74 %
27.09.2019 08:38 14,6 C 13,9 C 15,6 C 96 % 1014,7 hPa 0,0 l/m 3,3 km/h (1 Bft) S-SO 167 0 min 0,000 mm 0,0 UV-I 109 W/m 14,0 C 14,6 C 4,8 km/h (1 Bft) 97,87 %
27.09.2019 08:40 14,7 C 13,9 C 16,1 C 96 % 1014,7 hPa 0,0 l/m 3,8 km/h (1 Bft) S-SO 167 0 min 0,000 mm 0,0 UV-I 130 W/m 14,1 C 14,7 C 4,8 km/h (1 Bft) 95,74 %
27.09.2019 08:42 14,7 C 13,9 C 16,1 C 96 % 1014,7 hPa 0,0 l/m 1,2 km/h (1 Bft) S-SO 167 0 min 0,000 mm 0,0 UV-I 129 W/m 14,1 C 14,7 C 4,8 km/h (1 Bft) 95,74 %
27.09.2019 08:44 14,8 C 13,9 C 16,1 C 96 % 1014,6 hPa 0,0 l/m 1,5 km/h (1 Bft) S-SO 167 0 min 0,000 mm 0,0 UV-I 119 W/m 14,2 C 14,8 C 4,8 km/h (1 Bft) 96,00 %
27.09.2019 08:46 14,9 C 13,9 C 16,1 C 95 % 1014,7 hPa 0,0 l/m 1,7 km/h (1 Bft) S-SO 167 0 min 0,000 mm 0,2 UV-I 106 W/m 14,1 C 14,9 C 4,8 km/h (1 Bft) 95,74 %
27.09.2019 08:48 14,9 C 13,9 C 16,1 C 95 % 1014,7 hPa 0,0 l/m 2,7 km/h (1 Bft) S-SO 167 0 min 0,000 mm 0,5 UV-I 111 W/m 14,1 C 14,9 C 4,8 km/h (1 Bft) 95,74 %
27.09.2019 08:50 14,9 C 13,9 C 16,1 C 95 % 1014,7 hPa 0,0 l/m 3,7 km/h (1 Bft) S-SO 166 0 min 0,000 mm 0,5 UV-I 121 W/m 14,1 C 14,9 C 6,4 km/h (2 Bft) 95,74 %
27.09.2019 08:52 15,0 C 13,9 C 16,1 C 95 % 1014,7 hPa 0,0 l/m 4,1 km/h (1 Bft) O 84 0 min 0,000 mm 0,5 UV-I 148 W/m 14,2 C 15,0 C 4,8 km/h (1 Bft) 97,87 %
27.09.2019 08:54 15,1 C 13,9 C 16,1 C 95 % 1014,8 hPa 0,0 l/m 4,0 km/h (1 Bft) NO 34 2 min 0,000 mm 0,6 UV-I 211 W/m 14,3 C 15,1 C 4,8 km/h (1 Bft) 98,00 %
27.09.2019 08:56 15,2 C 13,9 C 16,7 C 95 % 1014,7 hPa 0,0 l/m 4,5 km/h (1 Bft) NO 34 2 min 0,000 mm 0,6 UV-I 212 W/m 14,4 C 15,2 C 6,4 km/h (2 Bft) 100,00 %
27.09.2019 08:58 15,3 C 13,9 C 16,7 C 95 % 1014,8 hPa 0,0 l/m 5,7 km/h (1 Bft) NO 34 2 min 0,000 mm 0,6 UV-I 228 W/m 14,5 C 15,3 C 6,4 km/h (2 Bft) 100,00 %
27.09.2019 09:00 15,4 C 13,9 C 17,2 C 95 % 1014,7 hPa 0,0 l/m 4,4 km/h (1 Bft) NO 34 2 min 0,051 mm 0,6 UV-I 202 W/m 14,6 C 15,4 C 6,4 km/h (2 Bft) 100,00 %
27.09.2019 09:02 15,4 C 13,9 C 17,2 C 95 % 1014,7 hPa 0,0 l/m 4,5 km/h (1 Bft) NO 50 2 min 0,000 mm 0,6 UV-I 226 W/m 14,6 C 15,4 C 6,4 km/h (2 Bft) 100,00 %
27.09.2019 09:04 15,4 C 13,9 C 17,2 C 95 % 1014,7 hPa 0,0 l/m 3,8 km/h (1 Bft) NO 49 2 min 0,000 mm 0,7 UV-I 250 W/m 14,6 C 15,4 C 4,8 km/h (1 Bft) 100,00 %
27.09.2019 09:06 15,6 C 13,9 C 17,2 C 95 % 1014,7 hPa 0,0 l/m 3,5 km/h (1 Bft) NO 48 2 min 0,000 mm 0,7 UV-I 240 W/m 14,8 C 15,6 C 4,8 km/h (1 Bft) 93,75 %
27.09.2019 09:08 15,6 C 13,9 C 17,2 C 94 % 1014,7 hPa 0,0 l/m 3,9 km/h (1 Bft) NO 48 0 min 0,000 mm 0,6 UV-I 188 W/m 14,6 C 15,6 C 4,8 km/h (1 Bft) 95,74 %
27.09.2019 09:10 15,7 C 13,9 C 17,2 C 95 % 1014,7 hPa 0,0 l/m 5,3 km/h (1 Bft) NO 49 0 min 0,000 mm 0,6 UV-I 158 W/m 14,9 C 15,7 C 6,4 km/h (2 Bft) 97,87 %
27.09.2019 09:12 15,7 C 13,9 C 17,2 C 94 % 1014,7 hPa 0,0 l/m 4,3 km/h (1 Bft) NO 49 0 min 0,000 mm 0,7 UV-I 166 W/m 14,7 C 15,7 C 6,4 km/h (2 Bft) 98,00 %
27.09.2019 09:14 15,7 C 13,9 C 17,2 C 94 % 1014,7 hPa 0,0 l/m 5,1 km/h (1 Bft) O-NO 63 0 min 0,000 mm 0,7 UV-I 174 W/m 14,7 C 15,7 C 6,4 km/h (2 Bft) 95,74 %
27.09.2019 09:16 15,6 C 13,9 C 17,2 C 94 % 1014,6 hPa 0,0 l/m 4,6 km/h (1 Bft) O-NO 62 2 min 0,000 mm 0,7 UV-I 205 W/m 14,6 C 15,6 C 6,4 km/h (2 Bft) 94,00 %
27.09.2019 09:18 15,6 C 13,9 C 17,2 C 94 % 1014,7 hPa 0,0 l/m 3,3 km/h (1 Bft) O-NO 62 2 min 0,000 mm 0,8 UV-I 237 W/m 14,6 C 15,6 C 4,8 km/h (1 Bft) 95,74 %
27.09.2019 09:20 15,6 C 13,9 C 17,8 C 94 % 1014,7 hPa 0,0 l/m 3,2 km/h (1 Bft) O-NO 62 0 min 0,000 mm 0,7 UV-I 190 W/m 14,6 C 15,6 C 4,8 km/h (1 Bft) 93,62 %
27.09.2019 09:22 15,7 C 13,9 C 17,8 C 94 % 1014,7 hPa 0,0 l/m 3,2 km/h (1 Bft) O-NO 62 0 min 0,000 mm 0,8 UV-I 199 W/m 14,7 C 15,7 C 4,8 km/h (1 Bft) 94,74 %
27.09.2019 09:24 15,7 C 13,9 C 17,8 C 93 % 1014,7 hPa 0,0 l/m 1,8 km/h (1 Bft) O-NO 62 2 min 0,000 mm 0,8 UV-I 231 W/m 14,6 C 15,7 C 3,2 km/h (1 Bft) 93,88 %
27.09.2019 09:26 15,7 C 13,9 C 17,8 C 93 % 1014,7 hPa 0,0 l/m 1,5 km/h (1 Bft) O-SO 105 0 min 0,000 mm 0,8 UV-I 189 W/m 14,6 C 15,7 C 3,2 km/h (1 Bft) 95,74 %
27.09.2019 09:28 15,7 C 13,9 C 18,3 C 93 % 1014,7 hPa 0,0 l/m 3,1 km/h (1 Bft) O-SO 105 2 min 0,000 mm 0,9 UV-I 229 W/m 14,6 C 15,7 C 4,8 km/h (1 Bft) 95,74 %
27.09.2019 09:30 15,9 C 13,9 C 18,3 C 93 % 1014,7 hPa 0,0 l/m 2,4 km/h (1 Bft) O-SO 105 2 min 0,000 mm 1,0 UV-I 329 W/m 14,8 C 15,9 C 3,2 km/h (1 Bft) 93,62 %
27.09.2019 09:32 16,0 C 13,9 C 18,3 C 93 % 1014,8 hPa 0,0 l/m 1,7 km/h (1 Bft) O-SO 105 2 min 0,000 mm 1,0 UV-I 345 W/m 14,9 C 16,0 C 3,2 km/h (1 Bft) 95,74 %
27.09.2019 09:34 15,9 C 13,9 C 18,9 C 92 % 1014,7 hPa 0,0 l/m 0,9 km/h (0 Bft) O-SO 105 2 min 0,000 mm 1,0 UV-I 225 W/m 14,6 C 15,9 C 3,2 km/h (1 Bft) 97,96 %
27.09.2019 09:36 16,1 C 13,9 C 18,9 C 92 % 1014,7 hPa 0,0 l/m 2,0 km/h (1 Bft) O-SO 105 0 min 0,000 mm 1,0 UV-I 219 W/m 14,8 C 16,1 C 4,8 km/h (1 Bft) 97,87 %
27.09.2019 09:38 16,1 C 13,9 C 18,9 C 92 % 1014,7 hPa 0,0 l/m 2,1 km/h (1 Bft) O-SO 105 0 min 0,000 mm 1,0 UV-I 203 W/m 14,8 C 16,1 C 4,8 km/h (1 Bft) 95,74 %
27.09.2019 09:40 16,2 C 13,9 C 18,9 C 93 % 1014,7 hPa 0,0 l/m 3,2 km/h (1 Bft) O-SO 105 0 min 0,000 mm 1,0 UV-I 211 W/m 15,1 C 16,2 C 4,8 km/h (1 Bft) 97,87 %
27.09.2019 09:42 16,2 C 13,9 C 19,4 C 92 % 1014,6 hPa 0,0 l/m 3,4 km/h (1 Bft) O-SO 104 2 min 0,000 mm 1,1 UV-I 234 W/m 14,9 C 16,2 C 4,8 km/h (1 Bft) 97,87 %
27.09.2019 09:44 16,3 C 13,9 C 19,4 C 92 % 1014,6 hPa 0,0 l/m 2,3 km/h (1 Bft) O-SO 104 2 min 0,000 mm 1,2 UV-I 288 W/m 15,0 C 16,3 C 4,8 km/h (1 Bft) 100,00 %
27.09.2019 09:46 16,3 C 13,9 C 20,0 C 92 % 1014,6 hPa 0,0 l/m 2,4 km/h (1 Bft) O-SO 104 2 min 0,000 mm 1,2 UV-I 324 W/m 15,0 C 16,3 C 3,2 km/h (1 Bft) 97,92 %
27.09.2019 09:48 16,3 C 13,9 C 20,0 C 91 % 1014,6 hPa 0,0 l/m 2,9 km/h (1 Bft) O-SO 104 2 min 0,000 mm 1,2 UV-I 312 W/m 14,8 C 16,3 C 4,8 km/h (1 Bft) 100,00 %
27.09.2019 09:50 16,3 C 13,9 C 20,6 C 91 % 1014,6 hPa 0,0 l/m 2,8 km/h (1 Bft) O-SO 104 2 min 0,000 mm 1,2 UV-I 328 W/m 14,8 C 16,3 C 4,8 km/h (1 Bft) 100,00 %
27.09.2019 09:52 16,4 C 13,9 C 20,6 C 91 % 1014,5 hPa 0,0 l/m 1,7 km/h (1 Bft) O-SO 104 2 min 0,000 mm 1,2 UV-I 268 W/m 14,9 C 16,4 C 3,2 km/h (1 Bft) 100,00 %
27.09.2019 09:54 16,4 C 13,9 C 20,6 C 91 % 1014,5 hPa 0,0 l/m 0,8 km/h (0 Bft) O-SO 104 2 min 0,000 mm 1,2 UV-I 255 W/m 14,9 C 16,4 C 3,2 km/h (1 Bft) 100,00 %
27.09.2019 09:56 16,5 C 13,9 C 20,6 C 91 % 1014,6 hPa 0,0 l/m 1,3 km/h (1 Bft) O-SO 104 2 min 0,000 mm 1,3 UV-I 266 W/m 15,0 C 16,5 C 3,2 km/h (1 Bft) 97,87 %
27.09.2019 09:58 16,6 C 13,9 C 20,6 C 91 % 1014,6 hPa 0,0 l/m 1,8 km/h (1 Bft) O-SO 104 2 min 0,000 mm 1,3 UV-I 327 W/m 15,1 C 16,6 C 3,2 km/h (1 Bft) 95,74 %
27.09.2019 10:00 16,7 C 13,9 C 20,6 C 91 % 1014,5 hPa 0,0 l/m 2,0 km/h (1 Bft) O-SO 104 2 min 0,000 mm 1,5 UV-I 377 W/m 15,2 C 16,7 C 4,8 km/h (1 Bft) 100,00 %
27.09.2019 10:02 16,9 C 13,9 C 21,1 C 91 % 1014,4 hPa 0,0 l/m 1,8 km/h (1 Bft) O-SO 104 2 min 0,127 mm 1,6 UV-I 481 W/m 15,4 C 16,9 C 4,8 km/h (1 Bft) 100,00 %
27.09.2019 10:04 17,1 C 13,9 C 21,7 C 90 % 1014,4 hPa 0,0 l/m 1,7 km/h (1 Bft) O-SO 105 2 min 0,000 mm 1,6 UV-I 457 W/m 15,4 C 17,1 C 4,8 km/h (1 Bft) 97,87 %
27.09.2019 10:06 17,2 C 13,9 C 21,7 C 89 % 1014,4 hPa 0,0 l/m 3,1 km/h (1 Bft) O-SO 105 2 min 0,000 mm 1,7 UV-I 468 W/m 15,4 C 17,2 C 6,4 km/h (2 Bft) 97,87 %
27.09.2019 10:08 17,3 C 13,9 C 22,2 C 89 % 1014,4 hPa 0,0 l/m 3,7 km/h (1 Bft) O-SO 105 2 min 0,000 mm 1,6 UV-I 397 W/m 15,5 C 17,3 C 4,8 km/h (1 Bft) 100,00 %
27.09.2019 10:10 17,3 C 13,9 C 22,2 C 89 % 1014,4 hPa 0,0 l/m 3,4 km/h (1 Bft) O-SO 104 2 min 0,000 mm 1,5 UV-I 320 W/m 15,5 C 17,3 C 6,4 km/h (2 Bft) 100,00 %
27.09.2019 10:12 17,3 C 13,9 C 22,2 C 88 % 1014,3 hPa 0,0 l/m 2,0 km/h (1 Bft) O-SO 104 2 min 0,000 mm 1,5 UV-I 307 W/m 15,3 C 17,3 C 3,2 km/h (1 Bft) 100,00 %
27.09.2019 10:14 17,4 C 13,9 C 22,2 C 89 % 1014,3 hPa 0,0 l/m 3,7 km/h (1 Bft) O-SO 104 2 min 0,000 mm 1,5 UV-I 344 W/m 15,6 C 17,4 C 6,4 km/h (2 Bft) 100,00 %
27.09.2019 10:16 17,4 C 13,9 C 22,2 C 88 % 1014,3 hPa 0,0 l/m 3,5 km/h (1 Bft) O-NO 74 2 min 0,000 mm 1,5 UV-I 342 W/m 15,4 C 17,4 C 6,4 km/h (2 Bft) 97,87 %
27.09.2019 10:18 17,5 C 13,9 C 22,2 C 88 % 1014,4 hPa 0,0 l/m 3,1 km/h (1 Bft) O-NO 76 2 min 0,000 mm 1,5 UV-I 331 W/m 15,5 C 17,5 C 4,8 km/h (1 Bft) 100,00 %
27.09.2019 10:20 17,5 C 13,9 C 22,2 C 88 % 1014,4 hPa 0,0 l/m 2,8 km/h (1 Bft) O-NO 76 2 min 0,000 mm 1,5 UV-I 306 W/m 15,5 C 17,5 C 4,8 km/h (1 Bft) 97,87 %
27.09.2019 10:22 17,6 C 13,9 C 22,2 C 88 % 1014,3 hPa 0,0 l/m 2,7 km/h (1 Bft) O-NO 76 2 min 0,000 mm 1,5 UV-I 301 W/m 15,6 C 17,6 C 4,8 km/h (1 Bft) 100,00 %
27.09.2019 10:24 17,6 C 13,9 C 22,2 C 87 % 1014,4 hPa 0,0 l/m 2,3 km/h (1 Bft) O-NO 76 2 min 0,000 mm 1,6 UV-I 326 W/m 15,4 C 17,6 C 3,2 km/h (1 Bft) 100,00 %
27.09.2019 10:26 17,7 C 13,9 C 22,8 C 88 % 1014,2 hPa 0,0 l/m 3,4 km/h (1 Bft) S-SO 168 2 min 0,000 mm 1,5 UV-I 317 W/m 15,7 C 17,7 C 6,4 km/h (2 Bft) 100,00 %
27.09.2019 10:28 17,7 C 13,9 C 22,2 C 86 % 1014,2 hPa 0,0 l/m 5,7 km/h (1 Bft) SO 138 2 min 0,000 mm 1,5 UV-I 289 W/m 15,3 C 17,7 C 8,0 km/h (2 Bft) 98,00 %
27.09.2019 10:30 17,7 C 13,9 C 22,8 C 86 % 1014,2 hPa 0,0 l/m 2,5 km/h (1 Bft) SO 138 0 min 0,000 mm 1,5 UV-I 284 W/m 15,3 C 17,7 C 4,8 km/h (1 Bft) 97,87 %
27.09.2019 10:32 17,8 C 13,9 C 22,8 C 87 % 1014,2 hPa 0,0 l/m 2,8 km/h (1 Bft) SO 138 2 min 0,000 mm 1,6 UV-I 293 W/m 15,6 C 17,8 C 4,8 km/h (1 Bft) 98,00 %
27.09.2019 10:34 17,9 C 13,9 C 23,3 C 86 % 1014,2 hPa 0,0 l/m 3,0 km/h (1 Bft) SO 138 2 min 0,000 mm 1,7 UV-I 308 W/m 15,5 C 17,9 C 4,8 km/h (1 Bft) 97,87 %
27.09.2019 10:36 18,0 C 13,9 C 23,3 C 85 % 1014,1 hPa 0,0 l/m 3,3 km/h (1 Bft) S-SO 147 2 min 0,000 mm 1,7 UV-I 327 W/m 15,4 C 18,0 C 6,4 km/h (2 Bft) 95,74 %
27.09.2019 10:38 18,0 C 13,9 C 23,9 C 85 % 1014,1 hPa 0,0 l/m 4,4 km/h (1 Bft) O-SO 121 2 min 0,000 mm 1,7 UV-I 347 W/m 15,4 C 18,0 C 6,4 km/h (2 Bft) 97,87 %
27.09.2019 10:40 18,1 C 13,9 C 25,0 C 85 % 1014,1 hPa 0,0 l/m 3,9 km/h (1 Bft) O-SO 121 2 min 0,000 mm 1,8 UV-I 395 W/m 15,5 C 18,1 C 4,8 km/h (1 Bft) 97,87 %
27.09.2019 10:42 18,1 C 13,9 C 25,0 C 85 % 1014,0 hPa 0,0 l/m 2,0 km/h (1 Bft) O-SO 121 2 min 0,000 mm 1,8 UV-I 360 W/m 15,5 C 18,1 C 4,8 km/h (1 Bft) 98,00 %
27.09.2019 10:44 18,2 C 13,9 C 25,0 C 85 % 1014,0 hPa 0,0 l/m 4,7 km/h (1 Bft) O-SO 118 2 min 0,000 mm 1,7 UV-I 341 W/m 15,6 C 18,2 C 6,4 km/h (2 Bft) 97,87 %
27.09.2019 10:46 18,3 C 13,9 C 25,0 C 85 % 1013,9 hPa 0,0 l/m 3,3 km/h (1 Bft) O-SO 118 0 min 0,000 mm 1,6 UV-I 297 W/m 15,7 C 18,3 C 6,4 km/h (2 Bft) 97,87 %
27.09.2019 10:48 18,3 C 13,9 C 25,0 C 84 % 1014,0 hPa 0,0 l/m 6,9 km/h (2 Bft) SO 128 0 min 0,000 mm 1,6 UV-I 288 W/m 15,5 C 18,1 C 8,0 km/h (2 Bft) 95,83 %
27.09.2019 10:52 18,3 C 13,9 C 24,4 C 84 % 1014,0 hPa 0,0 l/m 3,8 km/h (1 Bft) SO 134 0 min 0,000 mm 1,6 UV-I 290 W/m 15,5 C 18,3 C 4,8 km/h (1 Bft) 98,23 %
27.09.2019 10:54 18,3 C 13,9 C 23,9 C 84 % 1014,0 hPa 0,0 l/m 3,7 km/h (1 Bft) SO 136 0 min 0,000 mm 1,5 UV-I 276 W/m 15,5 C 18,3 C 6,4 km/h (2 Bft) 96,00 %
27.09.2019 10:56 18,3 C 13,9 C 23,9 C 84 % 1014,0 hPa 0,0 l/m 3,6 km/h (1 Bft) S-SO 159 0 min 0,000 mm 1,5 UV-I 260 W/m 15,5 C 18,3 C 8,0 km/h (2 Bft) 100,00 %
27.09.2019 10:59 18,2 C 13,9 C 23,3 C 84 % 1013,9 hPa 0,0 l/m 4,4 km/h (1 Bft) S-SO 152 0 min 0,000 mm 1,4 UV-I 252 W/m 15,4 C 18,2 C 8,0 km/h (2 Bft) 98,46 %
27.09.2019 11:00 18,2 C 13,9 C 23,3 C 83 % 1013,9 hPa 0,0 l/m 1,9 km/h (1 Bft) S-SO 152 0 min 0,000 mm 1,4 UV-I 250 W/m 15,3 C 18,2 C 3,2 km/h (1 Bft) 100,00 %
27.09.2019 11:02 18,2 C 13,9 C 23,3 C 84 % 1013,9 hPa 0,0 l/m 1,6 km/h (1 Bft) S-SO 152 0 min 0,178 mm 1,4 UV-I 248 W/m 15,4 C 18,2 C 3,2 km/h (1 Bft) 100,00 %
27.09.2019 11:04 18,3 C 13,9 C 22,8 C 84 % 1013,8 hPa 0,0 l/m 1,4 km/h (1 Bft) S-SO 152 0 min 0,000 mm 1,4 UV-I 246 W/m 15,5 C 18,3 C 3,2 km/h (1 Bft) 97,37 %
27.09.2019 11:06 18,3 C 13,9 C 22,8 C 84 % 1013,9 hPa 0,0 l/m 2,3 km/h (1 Bft) S-SO 153 0 min 0,000 mm 1,4 UV-I 243 W/m 15,5 C 18,3 C 4,8 km/h (1 Bft) 96,23 %
27.09.2019 11:08 18,3 C 13,9 C 22,8 C 84 % 1013,7 hPa 0,0 l/m 3,7 km/h (1 Bft) S-SO 153 0 min 0,000 mm 1,4 UV-I 242 W/m 15,5 C 18,3 C 6,4 km/h (2 Bft) 98,00 %
27.09.2019 11:10 18,3 C 13,9 C 22,8 C 84 % 1013,7 hPa 0,0 l/m 1,0 km/h (0 Bft) S-SO 153 0 min 0,000 mm 1,4 UV-I 248 W/m 15,5 C 18,3 C 4,8 km/h (1 Bft) 96,55 %
27.09.2019 11:12 18,4 C 13,9 C 22,8 C 84 % 1013,9 hPa 0,0 l/m 0,8 km/h (0 Bft) S-SO 153 0 min 0,000 mm 1,4 UV-I 252 W/m 15,6 C 18,4 C 3,2 km/h (1 Bft) 98,11 %
27.09.2019 11:14 18,5 C 13,9 C 23,3 C 85 % 1013,9 hPa 0,0 l/m 0,1 km/h (0 Bft) S-SO 153 0 min 0,000 mm 1,5 UV-I 254 W/m 15,9 C 18,5 C 1,6 km/h (1 Bft) 98,11 %
27.09.2019 11:16 18,6 C 13,9 C 23,3 C 83 % 1013,9 hPa 0,0 l/m 0,4 km/h (0 Bft) S-SO 153 0 min 0,000 mm 1,5 UV-I 255 W/m 15,7 C 18,6 C 1,6 km/h (1 Bft) 98,00 %
27.09.2019 11:18 18,6 C 13,9 C 23,3 C 83 % 1013,9 hPa 0,0 l/m 1,1 km/h (1 Bft) S-SO 153 0 min 0,000 mm 1,5 UV-I 255 W/m 15,7 C 18,6 C 1,6 km/h (1 Bft) 97,87 %
27.09.2019 11:20 18,7 C 13,9 C 23,3 C 83 % 1013,9 hPa 0,0 l/m 0,5 km/h (0 Bft) S-SO 153 0 min 0,000 mm 1,5 UV-I 254 W/m 15,8 C 18,7 C 1,6 km/h (1 Bft) 97,87 %
27.09.2019 11:22 18,7 C 13,9 C 23,3 C 83 % 1013,9 hPa 0,0 l/m 1,7 km/h (1 Bft) S-SO 153 0 min 0,000 mm 1,4 UV-I 253 W/m 15,8 C 18,7 C 3,2 km/h (1 Bft) 96,00 %
27.09.2019 11:24 18,8 C 13,9 C 23,3 C 83 % 1013,8 hPa 0,0 l/m 2,0 km/h (1 Bft) S-SO 153 0 min 0,000 mm 1,4 UV-I 251 W/m 15,8 C 18,8 C 3,2 km/h (1 Bft) 94,74 %
27.09.2019 11:26 18,8 C 13,9 C 23,3 C 83 % 1013,9 hPa 0,0 l/m 1,0 km/h (0 Bft) S-SO 153 0 min 0,000 mm 1,5 UV-I 253 W/m 15,8 C 18,8 C 1,6 km/h (1 Bft) 97,87 %
27.09.2019 11:28 18,8 C 13,9 C 23,3 C 83 % 1013,8 hPa 0,0 l/m 0,5 km/h (0 Bft) S-SO 153 0 min 0,000 mm 1,5 UV-I 258 W/m 15,8 C 18,8 C 1,6 km/h (1 Bft) 95,74 %
27.09.2019 11:30 18,9 C 13,9 C 23,9 C 83 % 1013,9 hPa 0,0 l/m 0,8 km/h (0 Bft) S-SO 153 0 min 0,000 mm 1,5 UV-I 268 W/m 15,9 C 18,9 C 1,6 km/h (1 Bft) 93,62 %
27.09.2019 11:32 18,9 C 13,9 C 23,9 C 82 % 1013,9 hPa 0,0 l/m 0,3 km/h (0 Bft) S-SO 153 0 min 0,000 mm 1,6 UV-I 277 W/m 15,8 C 18,9 C 1,6 km/h (1 Bft) 97,87 %
27.09.2019 11:34 18,9 C 13,9 C 23,9 C 79 % 1013,9 hPa 0,0 l/m 1,0 km/h (0 Bft) S-SO 153 0 min 0,000 mm 1,7 UV-I 293 W/m 15,2 C 18,9 C 3,2 km/h (1 Bft) 97,87 %
27.09.2019 11:36 19,0 C 13,9 C 23,9 C 77 % 1013,8 hPa 0,0 l/m 3,9 km/h (1 Bft) S 186 0 min 0,000 mm 1,8 UV-I 312 W/m 14,9 C 19,0 C 8,0 km/h (2 Bft) 100,00 %
27.09.2019 11:38 19,1 C 13,9 C 23,9 C 78 % 1013,9 hPa 0,0 l/m 2,3 km/h (1 Bft) S 186 0 min 0,000 mm 1,9 UV-I 333 W/m 15,2 C 19,1 C 4,8 km/h (1 Bft) 98,21 %
27.09.2019 11:40 19,2 C 13,9 C 24,4 C 77 % 1013,9 hPa 0,0 l/m 1,6 km/h (1 Bft) S 186 0 min 0,000 mm 1,9 UV-I 334 W/m 15,1 C 19,2 C 3,2 km/h (1 Bft) 98,11 %
27.09.2019 11:42 19,3 C 13,9 C 25,0 C 78 % 1013,9 hPa 0,0 l/m 1,0 km/h (0 Bft) S 186 0 min 0,000 mm 2,0 UV-I 337 W/m 15,4 C 19,3 C 3,2 km/h (1 Bft) 100,00 %
27.09.2019 11:44 19,4 C 13,9 C 25,0 C 78 % 1013,9 hPa 0,0 l/m 4,1 km/h (1 Bft) S-SW 212 2 min 0,000 mm 2,1 UV-I 354 W/m 15,5 C 19,4 C 6,4 km/h (2 Bft) 100,00 %
27.09.2019 11:46 19,4 C 13,9 C 25,6 C 76 % 1013,9 hPa 0,0 l/m 0,7 km/h (0 Bft) S-SW 212 2 min 0,000 mm 2,1 UV-I 368 W/m 15,1 C 19,4 C 3,2 km/h (1 Bft) 100,00 %
27.09.2019 11:48 19,4 C 13,9 C 25,6 C 77 % 1013,9 hPa 0,0 l/m 0,7 km/h (0 Bft) S-SW 212 2 min 0,000 mm 1,7 UV-I 382 W/m 15,3 C 19,4 C 3,2 km/h (1 Bft) 96,15 %
27.09.2019 11:50 19,4 C 13,9 C 25,6 C 76 % 1013,8 hPa 0,0 l/m 3,1 km/h (1 Bft) SW 216 2 min 0,000 mm 2,0 UV-I 368 W/m 15,1 C 19,4 C 6,4 km/h (2 Bft) 100,00 %
27.09.2019 11:52 19,6 C 13,9 C 26,1 C 77 % 1013,8 hPa 0,0 l/m 2,6 km/h (1 Bft) SW 215 0 min 0,000 mm 2,3 UV-I 286 W/m 15,5 C 19,6 C 4,8 km/h (1 Bft) 100,00 %
27.09.2019 11:54 19,7 C 13,9 C 26,7 C 74 % 1013,7 hPa 0,0 l/m 3,6 km/h (1 Bft) S-SW 212 2 min 0,000 mm 2,4 UV-I 357 W/m 14,9 C 19,7 C 6,4 km/h (2 Bft) 100,00 %
27.09.2019 11:56 19,8 C 13,9 C 27,2 C 75 % 1013,6 hPa 0,0 l/m 3,5 km/h (1 Bft) W-SW 255 2 min 0,000 mm 2,4 UV-I 411 W/m 15,2 C 19,8 C 8,0 km/h (2 Bft) 97,73 %
27.09.2019 11:58 19,9 C 13,9 C 27,2 C 74 % 1013,6 hPa 0,0 l/m 4,2 km/h (1 Bft) S 184 2 min 0,000 mm 2,4 UV-I 432 W/m 15,1 C 19,9 C 6,4 km/h (2 Bft) 98,00 %
27.09.2019 12:00 20,0 C 13,9 C 27,2 C 74 % 1013,6 hPa 0,0 l/m 3,4 km/h (1 Bft) S 185 2 min 0,177 mm 2,4 UV-I 438 W/m 15,2 C 20,0 C 6,4 km/h (2 Bft) 100,00 %
27.09.2019 12:02 20,0 C 13,9 C 27,2 C 73 % 1013,5 hPa 0,0 l/m 3,7 km/h (1 Bft) W 263 2 min 0,000 mm 2,3 UV-I 425 W/m 15,0 C 20,0 C 6,4 km/h (2 Bft) 97,73 %
27.09.2019 12:04 20,1 C 13,9 C 26,7 C 70 % 1013,5 hPa 0,0 l/m 4,6 km/h (1 Bft) W 259 2 min 0,000 mm 2,3 UV-I 417 W/m 14,5 C 20,1 C 6,4 km/h (2 Bft) 98,00 %
27.09.2019 12:06 20,1 C 13,9 C 26,7 C 72 % 1013,4 hPa 0,0 l/m 1,7 km/h (1 Bft) W 259 2 min 0,000 mm 2,2 UV-I 360 W/m 14,9 C 20,1 C 4,8 km/h (1 Bft) 96,00 %
27.09.2019 12:08 20,1 C 13,9 C 26,1 C 72 % 1013,4 hPa 0,0 l/m 1,1 km/h (1 Bft) W-SW 257 2 min 0,000 mm 2,2 UV-I 349 W/m 14,9 C 20,1 C 3,2 km/h (1 Bft) 97,14 %
27.09.2019 12:10 20,1 C 13,9 C 26,1 C 71 % 1013,4 hPa 0,0 l/m 2,1 km/h (1 Bft) W-SW 249 0 min 0,000 mm 1,9 UV-I 330 W/m 14,7 C 20,1 C 3,2 km/h (1 Bft) 98,21 %
27.09.2019 12:12 20,1 C 13,9 C 26,1 C 71 % 1013,3 hPa 0,0 l/m 2,2 km/h (1 Bft) W-SW 247 0 min 0,000 mm 1,7 UV-I 313 W/m 14,7 C 20,1 C 4,8 km/h (1 Bft) 97,87 %
27.09.2019 12:14 20,1 C 13,9 C 25,6 C 71 % 1013,3 hPa 0,0 l/m 3,2 km/h (1 Bft) S 176 0 min 0,000 mm 1,9 UV-I 254 W/m 14,7 C 20,1 C 4,8 km/h (1 Bft) 97,87 %
27.09.2019 12:16 20,0 C 13,9 C 25,0 C 71 % 1013,2 hPa 0,0 l/m 3,2 km/h (1 Bft) W-SW 250 0 min 0,000 mm 1,4 UV-I 272 W/m 14,6 C 20,0 C 6,4 km/h (2 Bft) 97,44 %
27.09.2019 12:18 20,1 C 13,9 C 25,0 C 69 % 1013,2 hPa 0,0 l/m 3,9 km/h (1 Bft) W-SW 250 0 min 0,000 mm 1,7 UV-I 268 W/m 14,2 C 20,1 C 6,4 km/h (2 Bft) 96,72 %
27.09.2019 12:20 20,1 C 13,9 C 24,4 C 68 % 1013,3 hPa 0,0 l/m 5,3 km/h (1 Bft) W 259 0 min 0,000 mm 1,7 UV-I 236 W/m 14,0 C 20,1 C 9,7 km/h (2 Bft) 97,87 %
27.09.2019 12:22 20,1 C 13,9 C 24,4 C 69 % 1013,3 hPa 0,0 l/m 2,6 km/h (1 Bft) W 259 0 min 0,000 mm 1,7 UV-I 240 W/m 14,2 C 20,1 C 6,4 km/h (2 Bft) 97,62 %
27.09.2019 12:24 20,0 C 13,9 C 24,4 C 69 % 1013,3 hPa 0,0 l/m 1,9 km/h (1 Bft) W 259 0 min 0,000 mm 1,7 UV-I 232 W/m 14,1 C 20,0 C 3,2 km/h (1 Bft) 97,56 %
27.09.2019 12:26 20,0 C 13,9 C 24,4 C 69 % 1013,3 hPa 0,0 l/m 4,2 km/h (1 Bft) W-SW 254 0 min 0,000 mm 1,7 UV-I 245 W/m 14,1 C 20,0 C 6,4 km/h (2 Bft) 98,00 %
27.09.2019 12:29 20,1 C 13,9 C 24,4 C 68 % 1013,4 hPa 0,0 l/m 1,9 km/h (1 Bft) W-SW 254 0 min 0,000 mm 1,7 UV-I 241 W/m 14,0 C 20,1 C 3,2 km/h (1 Bft) 98,63 %
27.09.2019 12:30 20,1 C 13,9 C 24,4 C 70 % 1013,4 hPa 0,0 l/m 2,5 km/h (1 Bft) W-SW 254 0 min 0,000 mm 1,7 UV-I 197 W/m 14,5 C 20,1 C 4,8 km/h (1 Bft) 100,00 %
27.09.2019 12:32 20,1 C 13,9 C 24,4 C 68 % 1013,5 hPa 0,0 l/m 3,0 km/h (1 Bft) W-SW 254 0 min 0,000 mm 1,8 UV-I 267 W/m 14,0 C 20,1 C 6,4 km/h (2 Bft) 100,00 %
27.09.2019 12:34 20,1 C 13,9 C 24,4 C 68 % 1013,4 hPa 0,0 l/m 4,3 km/h (1 Bft) W-SW 255 0 min 0,000 mm 1,8 UV-I 285 W/m 14,0 C 20,1 C 8,0 km/h (2 Bft) 100,00 %
27.09.2019 12:36 20,1 C 13,9 C 24,4 C 68 % 1013,3 hPa 0,0 l/m 5,1 km/h (1 Bft) W-SW 243 0 min 0,000 mm 1,8 UV-I 240 W/m 14,0 C 20,1 C 9,7 km/h (2 Bft) 100,00 %
27.09.2019 12:38 20,1 C 13,9 C 24,4 C 68 % 1013,3 hPa 0,0 l/m 1,7 km/h (1 Bft) W-SW 243 0 min 0,000 mm 1,9 UV-I 259 W/m 14,0 C 20,1 C 4,8 km/h (1 Bft) 100,00 %
27.09.2019 12:40 20,2 C 13,9 C 24,4 C 67 % 1013,2 hPa 0,0 l/m 1,7 km/h (1 Bft) W-SW 243 0 min 0,000 mm 1,9 UV-I 289 W/m 13,9 C 20,2 C 3,2 km/h (1 Bft) 100,00 %
27.09.2019 12:42 20,2 C 13,9 C 24,4 C 69 % 1013,1 hPa 0,0 l/m 1,3 km/h (1 Bft) W-SW 243 0 min 0,000 mm 1,5 UV-I 281 W/m 14,3 C 20,2 C 3,2 km/h (1 Bft) 100,00 %
27.09.2019 12:44 20,2 C 13,9 C 25,0 C 66 % 1013,1 hPa 0,0 l/m 1,3 km/h (1 Bft) W-SW 243 0 min 0,000 mm 1,9 UV-I 291 W/m 13,6 C 20,2 C 3,2 km/h (1 Bft) 100,00 %
27.09.2019 12:46 20,2 C 13,9 C 25,0 C 67 % 1013,1 hPa 0,0 l/m 1,6 km/h (1 Bft) W-SW 243 0 min 0,000 mm 2,1 UV-I 317 W/m 13,9 C 20,2 C 3,2 km/h (1 Bft) 97,87 %
27.09.2019 12:48 20,2 C 13,9 C 25,0 C 66 % 1013,0 hPa 0,0 l/m 0,6 km/h (0 Bft) W-SW 243 0 min 0,000 mm 2,2 UV-I 346 W/m 13,6 C 20,2 C 1,6 km/h (1 Bft) 97,87 %
27.09.2019 12:50 20,3 C 13,9 C 26,1 C 66 % 1013,1 hPa 0,0 l/m 0,5 km/h (0 Bft) W-SW 243 2 min 0,000 mm 2,4 UV-I 360 W/m 13,7 C 20,3 C 3,2 km/h (1 Bft) 93,62 %
27.09.2019 12:52 20,4 C 13,9 C 26,7 C 68 % 1013,1 hPa 0,0 l/m 0,3 km/h (0 Bft) W-SW 243 2 min 0,000 mm 2,6 UV-I 441 W/m 14,3 C 20,4 C 1,6 km/h (1 Bft) 97,87 %
27.09.2019 12:54 20,6 C 13,9 C 27,8 C 69 % 1013,1 hPa 0,0 l/m 1,3 km/h (1 Bft) W-SW 243 2 min 0,000 mm 2,8 UV-I 436 W/m 14,7 C 20,6 C 3,2 km/h (1 Bft) 94,87 %
27.09.2019 12:56 20,7 C 13,9 C 28,9 C 68 % 1013,0 hPa 0,0 l/m 2,5 km/h (1 Bft) W-SW 246 2 min 0,000 mm 2,8 UV-I 469 W/m 14,6 C 20,7 C 4,8 km/h (1 Bft) 98,31 %
27.09.2019 12:58 20,9 C 13,9 C 28,9 C 67 % 1012,9 hPa 0,0 l/m 2,5 km/h (1 Bft) W 278 2 min 0,000 mm 2,8 UV-I 472 W/m 14,5 C 20,9 C 4,8 km/h (1 Bft) 97,14 %
27.09.2019 13:00 21,0 C 13,9 C 29,4 C 67 % 1012,9 hPa 0,0 l/m 2,3 km/h (1 Bft) W 278 2 min 0,000 mm 2,9 UV-I 486 W/m 14,6 C 21,0 C 3,2 km/h (1 Bft) 96,23 %
27.09.2019 13:02 20,9 C 13,9 C 29,4 C 66 % 1012,9 hPa 0,0 l/m 1,0 km/h (0 Bft) W 278 2 min 0,204 mm 2,9 UV-I 493 W/m 14,3 C 20,9 C 3,2 km/h (1 Bft) 91,49 %
27.09.2019 13:04 20,9 C 13,9 C 30,0 C 68 % 1012,8 hPa 0,0 l/m 2,4 km/h (1 Bft) W 278 2 min 0,000 mm 3,1 UV-I 528 W/m 14,8 C 20,9 C 4,8 km/h (1 Bft) 96,00 %
27.09.2019 13:06 21,0 C 13,9 C 30,6 C 66 % 1012,7 hPa 0,0 l/m 4,5 km/h (1 Bft) W 277 2 min 0,000 mm 3,2 UV-I 563 W/m 14,4 C 21,0 C 9,7 km/h (2 Bft) 94,00 %
27.09.2019 13:09 21,1 C 13,9 C 31,7 C 66 % 1012,7 hPa 0,0 l/m 3,3 km/h (1 Bft) W-SW 257 3 min 0,000 mm 3,3 UV-I 576 W/m 14,5 C 21,1 C 4,8 km/h (1 Bft) 94,29 %
27.09.2019 13:10 21,1 C 13,9 C 31,7 C 65 % 1012,7 hPa 0,0 l/m 2,0 km/h (1 Bft) W-SW 257 1 min 0,000 mm 3,2 UV-I 603 W/m 14,3 C 21,1 C 3,2 km/h (1 Bft) 97,42 %
27.09.2019 13:12 21,2 C 13,9 C 32,8 C 66 % 1012,7 hPa 0,0 l/m 3,0 km/h (1 Bft) W 262 2 min 0,000 mm 3,5 UV-I 659 W/m 14,6 C 21,2 C 4,8 km/h (1 Bft) 95,16 %
27.09.2019 13:14 21,3 C 13,9 C 32,8 C 65 % 1012,7 hPa 0,0 l/m 3,5 km/h (1 Bft) N 5 2 min 0,000 mm 3,5 UV-I 694 W/m 14,4 C 21,3 C 4,8 km/h (1 Bft) 95,74 %
27.09.2019 13:16 21,4 C 13,9 C 33,3 C 66 % 1012,6 hPa 0,0 l/m 2,5 km/h (1 Bft) N 5 2 min 0,000 mm 3,5 UV-I 710 W/m 14,8 C 21,4 C 3,2 km/h (1 Bft) 95,45 %
27.09.2019 13:18 21,6 C 13,9 C 33,9 C 68 % 1012,5 hPa 0,0 l/m 5,0 km/h (1 Bft) N 355 2 min 0,000 mm 3,7 UV-I 701 W/m 15,4 C 21,6 C 8,0 km/h (2 Bft) 96,43 %
27.09.2019 13:20 21,7 C 13,9 C 33,9 C 64 % 1012,6 hPa 0,0 l/m 4,6 km/h (1 Bft) N-NO 23 2 min 0,000 mm 3,7 UV-I 710 W/m 14,6 C 21,7 C 6,4 km/h (2 Bft) 91,43 %
27.09.2019 13:22 21,8 C 13,9 C 34,4 C 69 % 1012,5 hPa 0,0 l/m 5,0 km/h (1 Bft) N-NO 14 2 min 0,000 mm 3,6 UV-I 705 W/m 15,9 C 21,8 C 6,4 km/h (2 Bft) 96,43 %
27.09.2019 13:24 22,0 C 13,9 C 35,0 C 66 % 1012,5 hPa 0,0 l/m 3,5 km/h (1 Bft) NO 38 2 min 0,000 mm 3,6 UV-I 715 W/m 15,3 C 22,0 C 8,0 km/h (2 Bft) 94,00 %
27.09.2019 13:26 21,9 C 13,9 C 35,0 C 64 % 1012,4 hPa 0,0 l/m 1,7 km/h (1 Bft) NO 42 2 min 0,000 mm 3,5 UV-I 670 W/m 14,8 C 21,9 C 3,2 km/h (1 Bft) 97,87 %
27.09.2019 13:28 21,9 C 13,9 C 34,4 C 64 % 1012,4 hPa 0,0 l/m 3,6 km/h (1 Bft) O-SO 110 2 min 0,000 mm 3,6 UV-I 695 W/m 14,8 C 21,9 C 6,4 km/h (2 Bft) 94,87 %
27.09.2019 13:30 21,9 C 13,9 C 35,0 C 65 % 1012,3 hPa 0,0 l/m 5,0 km/h (1 Bft) O-NO 78 2 min 0,000 mm 3,4 UV-I 700 W/m 15,0 C 21,9 C 6,4 km/h (2 Bft) 94,23 %
27.09.2019 13:32 22,1 C 13,9 C 35,0 C 66 % 1012,3 hPa 0,0 l/m 6,4 km/h (2 Bft) O-NO 65 2 min 0,000 mm 3,4 UV-I 648 W/m 15,4 C 22,1 C 9,7 km/h (2 Bft) 98,00 %
27.09.2019 13:34 22,0 C 13,9 C 33,3 C 67 % 1012,3 hPa 0,0 l/m 5,4 km/h (1 Bft) O-NO 67 2 min 0,000 mm 2,5 UV-I 586 W/m 15,6 C 22,0 C 8,0 km/h (2 Bft) 94,87 %
27.09.2019 13:36 21,9 C 13,9 C 32,8 C 66 % 1012,2 hPa 0,0 l/m 4,3 km/h (1 Bft) O-NO 72 2 min 0,000 mm 3,2 UV-I 590 W/m 15,3 C 21,9 C 8,0 km/h (2 Bft) 96,00 %
27.09.2019 13:39 21,8 C 13,9 C 32,2 C 67 % 1012,1 hPa 0,0 l/m 4,6 km/h (1 Bft) N-NO 28 3 min 0,000 mm 3,1 UV-I 564 W/m 15,4 C 21,8 C 8,0 km/h (2 Bft) 94,52 %
27.09.2019 13:40 21,8 C 13,9 C 31,7 C 67 % 1012,1 hPa 0,0 l/m 5,5 km/h (1 Bft) N-NO 31 1 min 0,000 mm 3,1 UV-I 524 W/m 15,4 C 21,8 C 8,0 km/h (2 Bft) 95,83 %
27.09.2019 13:42 21,9 C 13,9 C 30,6 C 67 % 1012,0 hPa 0,0 l/m 7,5 km/h (2 Bft) SO 126 2 min 0,000 mm 3,1 UV-I 563 W/m 15,5 C 21,5 C 14,5 km/h (3 Bft) 97,14 %
27.09.2019 13:44 21,9 C 13,9 C 30,0 C 64 % 1012,1 hPa 0,0 l/m 4,2 km/h (1 Bft) O-SO 109 2 min 0,000 mm 3,1 UV-I 566 W/m 14,8 C 21,9 C 9,7 km/h (2 Bft) 94,34 %
27.09.2019 13:46 21,9 C 13,9 C 29,4 C 64 % 1012,1 hPa 0,0 l/m 5,1 km/h (1 Bft) O-SO 107 2 min 0,000 mm 3,1 UV-I 570 W/m 14,8 C 21,9 C 9,7 km/h (2 Bft) 97,14 %
27.09.2019 13:48 21,8 C 13,9 C 28,9 C 63 % 1012,0 hPa 0,0 l/m 1,8 km/h (1 Bft) O-SO 103 2 min 0,000 mm 3,0 UV-I 529 W/m 14,4 C 21,8 C 6,4 km/h (2 Bft) 93,55 %
27.09.2019 13:50 21,8 C 13,9 C 28,9 C 64 % 1012,0 hPa 0,0 l/m 1,6 km/h (1 Bft) O-NO 58 2 min 0,000 mm 3,1 UV-I 562 W/m 14,7 C 21,8 C 6,4 km/h (2 Bft) 96,00 %
27.09.2019 13:52 21,8 C 13,9 C 28,9 C 67 % 1011,9 hPa 0,0 l/m 7,5 km/h (2 Bft) O-SO 123 2 min 0,000 mm 2,4 UV-I 582 W/m 15,4 C 21,4 C 11,3 km/h (2 Bft) 95,12 %
27.09.2019 13:54 21,9 C 13,9 C 28,3 C 64 % 1011,9 hPa 0,0 l/m 8,8 km/h (2 Bft) O-SO 115 2 min 0,000 mm 3,0 UV-I 546 W/m 14,8 C 21,1 C 12,9 km/h (3 Bft) 94,34 %
27.09.2019 13:56 21,8 C 13,9 C 27,8 C 64 % 1011,9 hPa 0,0 l/m 4,1 km/h (1 Bft) O-NO 62 2 min 0,000 mm 2,9 UV-I 526 W/m 14,7 C 21,8 C 8,0 km/h (2 Bft) 97,14 %
27.09.2019 13:58 21,9 C 13,9 C 27,8 C 66 % 1011,9 hPa 0,0 l/m 3,4 km/h (1 Bft) SO 137 2 min 0,000 mm 2,9 UV-I 511 W/m 15,3 C 21,9 C 6,4 km/h (2 Bft) 96,23 %
27.09.2019 14:00 21,9 C 13,9 C 26,7 C 66 % 1011,9 hPa 0,0 l/m 7,0 km/h (2 Bft) NO 52 2 min 0,000 mm 2,6 UV-I 529 W/m 15,3 C 21,7 C 9,7 km/h (2 Bft) 96,00 %
27.09.2019 14:02 21,9 C 13,9 C 26,7 C 66 % 1011,9 hPa 0,0 l/m 4,0 km/h (1 Bft) NO 42 2 min 0,381 mm 2,9 UV-I 541 W/m 15,3 C 21,9 C 8,0 km/h (2 Bft) 98,00 %
27.09.2019 14:04 21,9 C 13,9 C 26,7 C 65 % 1011,9 hPa 0,0 l/m 2,4 km/h (1 Bft) N 355 2 min 0,000 mm 2,7 UV-I 476 W/m 15,0 C 21,9 C 4,8 km/h (1 Bft) 97,37 %
27.09.2019 14:06 21,9 C 13,9 C 26,1 C 64 % 1011,9 hPa 0,0 l/m 3,9 km/h (1 Bft) O 94 2 min 0,000 mm 2,6 UV-I 457 W/m 14,8 C 21,9 C 6,4 km/h (2 Bft) 97,87 %
27.09.2019 14:08 21,9 C 13,9 C 26,1 C 63 % 1011,8 hPa 0,0 l/m 1,4 km/h (1 Bft) O-SO 102 2 min 0,000 mm 2,6 UV-I 438 W/m 14,5 C 21,9 C 3,2 km/h (1 Bft) 96,23 %
27.09.2019 14:10 21,9 C 13,9 C 26,1 C 64 % 1011,8 hPa 0,0 l/m 5,4 km/h (1 Bft) O-SO 113 2 min 0,000 mm 2,3 UV-I 371 W/m 14,8 C 21,9 C 6,4 km/h (2 Bft) 100,00 %
27.09.2019 14:12 21,9 C 13,9 C 26,1 C 64 % 1011,8 hPa 0,0 l/m 4,4 km/h (1 Bft) O-SO 116 0 min 0,000 mm 2,1 UV-I 298 W/m 14,8 C 21,9 C 6,4 km/h (2 Bft) 100,00 %
27.09.2019 14:14 21,8 C 13,9 C 26,1 C 63 % 1011,8 hPa 0,0 l/m 4,0 km/h (1 Bft) O-SO 117 0 min 0,000 mm 2,2 UV-I 305 W/m 14,4 C 21,8 C 6,4 km/h (2 Bft) 98,00 %
27.09.2019 14:16 21,8 C 13,9 C 26,1 C 63 % 1011,8 hPa 0,0 l/m 1,9 km/h (1 Bft) O-SO 121 2 min 0,000 mm 2,3 UV-I 355 W/m 14,4 C 21,8 C 3,2 km/h (1 Bft) 98,00 %
27.09.2019 14:18 21,7 C 13,9 C 26,1 C 63 % 1011,8 hPa 0,0 l/m 1,8 km/h (1 Bft) S-SO 161 2 min 0,000 mm 2,2 UV-I 368 W/m 14,3 C 21,7 C 6,4 km/h (2 Bft) 100,00 %
27.09.2019 14:20 21,6 C 13,9 C 26,1 C 62 % 1011,8 hPa 0,0 l/m 1,6 km/h (1 Bft) S-SO 167 2 min 0,000 mm 2,2 UV-I 391 W/m 14,0 C 21,6 C 4,8 km/h (1 Bft) 100,00 %
27.09.2019 14:22 21,7 C 13,9 C 26,1 C 63 % 1011,7 hPa 0,0 l/m 1,1 km/h (1 Bft) S-SO 165 2 min 0,000 mm 2,2 UV-I 380 W/m 14,3 C 21,7 C 4,8 km/h (1 Bft) 100,00 %
27.09.2019 14:24 21,8 C 13,9 C 26,7 C 63 % 1011,7 hPa 0,0 l/m 2,0 km/h (1 Bft) N 349 2 min 0,000 mm 2,1 UV-I 364 W/m 14,4 C 21,8 C 4,8 km/h (1 Bft) 100,00 %
27.09.2019 14:26 21,8 C 13,9 C 26,7 C 62 % 1011,7 hPa 0,0 l/m 4,1 km/h (1 Bft) O-NO 69 2 min 0,000 mm 2,1 UV-I 365 W/m 14,2 C 21,8 C 6,4 km/h (2 Bft) 100,00 %
27.09.2019 14:28 21,9 C 13,9 C 26,7 C 64 % 1011,6 hPa 0,0 l/m 4,5 km/h (1 Bft) N-NO 25 2 min 0,000 mm 2,1 UV-I 368 W/m 14,8 C 21,9 C 8,0 km/h (2 Bft) 100,00 %
27.09.2019 14:30 22,2 C 13,9 C 26,7 C 68 % 1011,6 hPa 0,0 l/m 6,8 km/h (2 Bft) N-NO 25 2 min 0,000 mm 2,2 UV-I 396 W/m 16,0 C 22,1 C 9,7 km/h (2 Bft) 100,00 %
27.09.2019 14:32 22,3 C 13,9 C 26,7 C 68 % 1011,6 hPa 0,0 l/m 6,4 km/h (2 Bft) NO 46 2 min 0,000 mm 2,2 UV-I 412 W/m 16,1 C 22,3 C 8,0 km/h (2 Bft) 100,00 %
27.09.2019 14:34 22,2 C 13,9 C 26,1 C 67 % 1011,6 hPa 0,0 l/m 6,5 km/h (2 Bft) N 9 2 min 0,000 mm 2,2 UV-I 429 W/m 15,8 C 22,2 C 11,3 km/h (2 Bft) 100,00 %
27.09.2019 14:36 22,2 C 13,9 C 25,6 C 67 % 1011,6 hPa 0,0 l/m 8,4 km/h (2 Bft) N-NO 19 2 min 0,000 mm 2,2 UV-I 387 W/m 15,8 C 21,5 C 12,9 km/h (3 Bft) 98,00 %
27.09.2019 14:38 22,1 C 13,9 C 25,0 C 67 % 1011,5 hPa 0,0 l/m 8,5 km/h (2 Bft) N-NO 23 2 min 0,000 mm 2,1 UV-I 375 W/m 15,7 C 21,4 C 11,3 km/h (2 Bft) 100,00 %
27.09.2019 14:40 22,1 C 13,9 C 24,4 C 69 % 1011,5 hPa 0,0 l/m 7,8 km/h (2 Bft) N-NO 32 2 min 0,000 mm 2,3 UV-I 426 W/m 16,1 C 21,6 C 9,7 km/h (2 Bft) 100,00 %
27.09.2019 14:42 22,1 C 13,9 C 24,4 C 68 % 1011,4 hPa 0,0 l/m 6,8 km/h (2 Bft) NO 34 2 min 0,000 mm 2,4 UV-I 473 W/m 15,9 C 22,0 C 8,0 km/h (2 Bft) 98,11 %
27.09.2019 14:44 22,0 C 13,9 C 23,9 C 65 % 1011,4 hPa 0,0 l/m 8,2 km/h (2 Bft) NO 40 2 min 0,000 mm 2,3 UV-I 420 W/m 15,1 C 21,4 C 14,5 km/h (3 Bft) 100,00 %
27.09.2019 14:46 21,9 C 13,9 C 23,9 C 63 % 1011,4 hPa 0,0 l/m 6,4 km/h (2 Bft) N-NO 32 2 min 0,000 mm 2,2 UV-I 405 W/m 14,5 C 21,9 C 9,7 km/h (2 Bft) 100,00 %
27.09.2019 14:48 21,9 C 13,9 C 23,9 C 65 % 1011,5 hPa 0,0 l/m 5,5 km/h (1 Bft) N-NO 12 2 min 0,000 mm 2,2 UV-I 392 W/m 15,0 C 21,9 C 8,0 km/h (2 Bft) 100,00 %
27.09.2019 14:50 21,9 C 13,9 C 23,9 C 66 % 1011,5 hPa 0,0 l/m 5,4 km/h (1 Bft) N-NW 338 2 min 0,000 mm 2,2 UV-I 449 W/m 15,3 C 21,9 C 8,0 km/h (2 Bft) 97,37 %
27.09.2019 14:52 22,0 C 13,9 C 23,9 C 64 % 1011,4 hPa 0,0 l/m 6,7 km/h (2 Bft) N 355 2 min 0,000 mm 2,2 UV-I 427 W/m 14,9 C 21,9 C 11,3 km/h (2 Bft) 98,00 %
27.09.2019 14:54 22,1 C 13,9 C 23,9 C 65 % 1011,5 hPa 0,0 l/m 6,1 km/h (2 Bft) N 355 2 min 0,000 mm 2,2 UV-I 468 W/m 15,2 C 22,1 C 8,0 km/h (2 Bft) 98,11 %
27.09.2019 14:56 22,1 C 13,9 C 23,9 C 66 % 1011,6 hPa 0,0 l/m 5,8 km/h (2 Bft) N-NO 31 2 min 0,000 mm 2,1 UV-I 409 W/m 15,4 C 22,1 C 8,0 km/h (2 Bft) 98,00 %
27.09.2019 14:58 22,1 C 13,9 C 23,9 C 66 % 1011,6 hPa 0,0 l/m 3,3 km/h (1 Bft) N-NO 26 2 min 0,000 mm 1,9 UV-I 344 W/m 15,4 C 22,1 C 4,8 km/h (1 Bft) 97,87 %
27.09.2019 15:00 22,1 C 13,9 C 23,9 C 65 % 1011,6 hPa 0,0 l/m 4,0 km/h (1 Bft) N-NO 26 2 min 0,254 mm 2,0 UV-I 379 W/m 15,2 C 22,1 C 6,4 km/h (2 Bft) 97,73 %
27.09.2019 15:02 22,1 C 13,9 C 23,9 C 66 % 1011,6 hPa 0,0 l/m 3,8 km/h (1 Bft) N-NO 28 2 min 0,000 mm 1,9 UV-I 341 W/m 15,4 C 22,1 C 6,4 km/h (2 Bft) 97,37 %
27.09.2019 15:04 22,0 C 13,9 C 23,9 C 65 % 1011,6 hPa 0,0 l/m 5,0 km/h (1 Bft) N 355 2 min 0,000 mm 1,8 UV-I 329 W/m 15,1 C 22,0 C 8,0 km/h (2 Bft) 96,43 %
27.09.2019 15:06 22,0 C 13,9 C 23,9 C 68 % 1011,5 hPa 0,0 l/m 7,9 km/h (2 Bft) N-NO 32 2 min 0,000 mm 1,9 UV-I 388 W/m 15,8 C 21,5 C 12,9 km/h (3 Bft) 97,37 %
27.09.2019 15:08 22,1 C 13,9 C 23,9 C 67 % 1011,4 hPa 0,0 l/m 8,3 km/h (2 Bft) N-NO 30 2 min 0,000 mm 1,9 UV-I 373 W/m 15,7 C 21,5 C 14,5 km/h (3 Bft) 96,43 %
27.09.2019 15:10 22,1 C 13,9 C 23,9 C 69 % 1011,4 hPa 0,0 l/m 7,3 km/h (2 Bft) O-NO 62 2 min 0,000 mm 1,9 UV-I 391 W/m 16,1 C 21,8 C 12,9 km/h (3 Bft) 95,74 %
27.09.2019 15:12 22,1 C 13,9 C 23,9 C 66 % 1011,4 hPa 0,0 l/m 5,9 km/h (2 Bft) O-NO 62 2 min 0,000 mm 1,8 UV-I 357 W/m 15,4 C 22,1 C 9,7 km/h (2 Bft) 95,12 %
27.09.2019 15:14 22,1 C 13,9 C 23,9 C 67 % 1011,3 hPa 0,0 l/m 5,7 km/h (1 Bft) O-NO 69 2 min 0,000 mm 1,9 UV-I 387 W/m 15,7 C 22,1 C 9,7 km/h (2 Bft) 96,00 %
27.09.2019 15:16 22,1 C 13,9 C 23,9 C 67 % 1011,3 hPa 0,0 l/m 2,4 km/h (1 Bft) O-NO 60 2 min 0,000 mm 1,9 UV-I 421 W/m 15,7 C 22,1 C 3,2 km/h (1 Bft) 94,74 %
27.09.2019 15:18 22,1 C 13,9 C 23,9 C 66 % 1011,3 hPa 0,0 l/m 3,5 km/h (1 Bft) N 355 2 min 0,000 mm 1,9 UV-I 427 W/m 15,4 C 22,1 C 6,4 km/h (2 Bft) 94,34 %
27.09.2019 15:20 22,2 C 13,9 C 24,4 C 67 % 1011,3 hPa 0,0 l/m 5,5 km/h (1 Bft) O-NO 72 2 min 0,000 mm 1,9 UV-I 402 W/m 15,8 C 22,2 C 11,3 km/h (2 Bft) 94,34 %
27.09.2019 15:22 22,2 C 13,9 C 23,9 C 66 % 1011,2 hPa 0,0 l/m 4,9 km/h (1 Bft) NO 55 2 min 0,000 mm 1,9 UV-I 447 W/m 15,5 C 22,2 C 9,7 km/h (2 Bft) 93,62 %
27.09.2019 15:24 22,2 C 13,9 C 23,9 C 65 % 1011,2 hPa 0,0 l/m 4,1 km/h (1 Bft) O 85 2 min 0,000 mm 1,9 UV-I 414 W/m 15,3 C 22,2 C 11,3 km/h (2 Bft) 97,44 %
27.09.2019 15:26 22,3 C 13,9 C 23,9 C 64 % 1011,2 hPa 0,0 l/m 6,8 km/h (2 Bft) O 101 2 min 0,000 mm 1,9 UV-I 470 W/m 15,2 C 22,2 C 9,7 km/h (2 Bft) 96,00 %
27.09.2019 15:28 22,3 C 13,9 C 23,9 C 64 % 1011,2 hPa 0,0 l/m 4,2 km/h (1 Bft) NO 42 2 min 0,000 mm 1,7 UV-I 396 W/m 15,2 C 22,3 C 6,4 km/h (2 Bft) 98,11 %
27.09.2019 15:30 22,3 C 13,9 C 24,4 C 65 % 1011,2 hPa 0,0 l/m 4,5 km/h (1 Bft) O-NO 71 2 min 0,000 mm 1,6 UV-I 341 W/m 15,4 C 22,3 C 6,4 km/h (2 Bft) 97,37 %
27.09.2019 15:32 22,3 C 13,9 C 24,4 C 65 % 1011,2 hPa 0,0 l/m 8,0 km/h (2 Bft) O 79 2 min 0,000 mm 1,6 UV-I 342 W/m 15,4 C 21,8 C 11,3 km/h (2 Bft) 98,11 %
27.09.2019 15:34 22,3 C 13,9 C 23,9 C 65 % 1011,2 hPa 0,0 l/m 6,9 km/h (2 Bft) NO 54 2 min 0,000 mm 1,5 UV-I 332 W/m 15,4 C 22,1 C 9,7 km/h (2 Bft) 97,37 %
27.09.2019 15:36 22,2 C 13,9 C 23,9 C 65 % 1011,1 hPa 0,0 l/m 3,9 km/h (1 Bft) SO 127 2 min 0,000 mm 1,5 UV-I 336 W/m 15,3 C 22,2 C 6,4 km/h (2 Bft) 98,00 %
27.09.2019 15:39 22,2 C 13,9 C 24,4 C 64 % 1011,2 hPa 0,0 l/m 6,0 km/h (2 Bft) SO 136 3 min 0,000 mm 1,6 UV-I 394 W/m 15,1 C 22,2 C 9,7 km/h (2 Bft) 100,00 %
27.09.2019 15:40 22,2 C 13,9 C 24,4 C 63 % 1011,2 hPa 0,0 l/m 5,2 km/h (1 Bft) SO 144 1 min 0,000 mm 1,5 UV-I 384 W/m 14,8 C 22,2 C 8,0 km/h (2 Bft) 100,00 %
27.09.2019 15:42 22,2 C 13,9 C 25,0 C 64 % 1011,2 hPa 0,0 l/m 3,4 km/h (1 Bft) SO 142 2 min 0,000 mm 1,5 UV-I 348 W/m 15,1 C 22,2 C 6,4 km/h (2 Bft) 100,00 %
27.09.2019 15:44 22,2 C 13,9 C 25,0 C 64 % 1011,2 hPa 0,0 l/m 4,4 km/h (1 Bft) S 170 2 min 0,000 mm 1,5 UV-I 351 W/m 15,1 C 22,2 C 8,0 km/h (2 Bft) 100,00 %
27.09.2019 15:46 22,2 C 13,9 C 25,0 C 63 % 1011,1 hPa 0,0 l/m 2,1 km/h (1 Bft) S-SO 148 2 min 0,000 mm 1,3 UV-I 279 W/m 14,8 C 22,2 C 6,4 km/h (2 Bft) 100,00 %
27.09.2019 15:48 22,2 C 13,9 C 25,0 C 64 % 1011,1 hPa 0,0 l/m 3,0 km/h (1 Bft) NO 40 0 min 0,000 mm 1,2 UV-I 248 W/m 15,1 C 22,2 C 4,8 km/h (1 Bft) 100,00 %
27.09.2019 15:50 22,2 C 13,9 C 25,0 C 65 % 1011,2 hPa 0,0 l/m 4,1 km/h (1 Bft) O 88 2 min 0,000 mm 1,2 UV-I 259 W/m 15,3 C 22,2 C 6,4 km/h (2 Bft) 98,21 %
27.09.2019 15:52 22,1 C 13,9 C 24,4 C 65 % 1011,2 hPa 0,0 l/m 3,5 km/h (1 Bft) O 79 2 min 0,000 mm 1,2 UV-I 270 W/m 15,2 C 22,1 C 4,8 km/h (1 Bft) 100,00 %
27.09.2019 15:54 22,1 C 13,9 C 25,0 C 63 % 1011,2 hPa 0,0 l/m 5,3 km/h (1 Bft) O-NO 74 2 min 0,000 mm 1,2 UV-I 263 W/m 14,7 C 22,1 C 8,0 km/h (2 Bft) 100,00 %
27.09.2019 15:56 22,0 C 13,9 C 24,4 C 64 % 1011,3 hPa 0,0 l/m 5,1 km/h (1 Bft) O-NO 58 2 min 0,000 mm 1,2 UV-I 264 W/m 14,9 C 22,0 C 6,4 km/h (2 Bft) 100,00 %
27.09.2019 15:58 22,0 C 13,9 C 24,4 C 65 % 1011,2 hPa 0,0 l/m 3,5 km/h (1 Bft) O-NO 57 2 min 0,000 mm 1,2 UV-I 258 W/m 15,1 C 22,0 C 4,8 km/h (1 Bft) 95,74 %
27.09.2019 16:00 22,0 C 13,9 C 24,4 C 65 % 1011,2 hPa 0,0 l/m 3,6 km/h (1 Bft) O-SO 116 2 min 0,000 mm 1,1 UV-I 274 W/m 15,1 C 22,0 C 6,4 km/h (2 Bft) 100,00 %
27.09.2019 16:02 21,9 C 13,9 C 24,4 C 65 % 1011,3 hPa 0,0 l/m 2,4 km/h (1 Bft) O-SO 117 2 min 0,228 mm 1,1 UV-I 266 W/m 15,0 C 21,9 C 4,8 km/h (1 Bft) 100,00 %
27.09.2019 16:04 21,9 C 13,9 C 24,4 C 67 % 1011,4 hPa 0,0 l/m 2,8 km/h (1 Bft) O-NO 65 2 min 0,000 mm 1,1 UV-I 256 W/m 15,5 C 21,9 C 6,4 km/h (2 Bft) 100,00 %
27.09.2019 16:06 21,9 C 13,9 C 24,4 C 66 % 1011,3 hPa 0,0 l/m 4,1 km/h (1 Bft) O 84 2 min 0,000 mm 1,0 UV-I 260 W/m 15,3 C 21,9 C 6,4 km/h (2 Bft) 100,00 %
27.09.2019 16:08 21,9 C 13,9 C 24,4 C 65 % 1011,2 hPa 0,0 l/m 3,9 km/h (1 Bft) O 99 2 min 0,000 mm 1,1 UV-I 277 W/m 15,0 C 21,9 C 6,4 km/h (2 Bft) 100,00 %
27.09.2019 16:10 21,9 C 13,9 C 24,4 C 63 % 1011,2 hPa 0,0 l/m 2,5 km/h (1 Bft) O 99 2 min 0,000 mm 1,1 UV-I 267 W/m 14,5 C 21,9 C 4,8 km/h (1 Bft) 100,00 %
27.09.2019 16:12 21,9 C 13,9 C 23,9 C 66 % 1011,3 hPa 0,0 l/m 2,4 km/h (1 Bft) O 101 2 min 0,000 mm 1,0 UV-I 255 W/m 15,3 C 21,9 C 4,8 km/h (1 Bft) 97,37 %
27.09.2019 16:14 21,9 C 13,9 C 24,4 C 66 % 1011,3 hPa 0,0 l/m 3,6 km/h (1 Bft) O-SO 102 2 min 0,000 mm 1,0 UV-I 251 W/m 15,3 C 21,9 C 4,8 km/h (1 Bft) 100,00 %
27.09.2019 16:16 21,8 C 13,9 C 24,4 C 65 % 1011,3 hPa 0,0 l/m 1,7 km/h (1 Bft) O 101 2 min 0,000 mm 1,0 UV-I 236 W/m 14,9 C 21,8 C 4,8 km/h (1 Bft) 100,00 %
27.09.2019 16:18 21,9 C 13,9 C 23,9 C 65 % 1011,3 hPa 0,0 l/m 3,8 km/h (1 Bft) O-NO 63 2 min 0,000 mm 0,9 UV-I 226 W/m 15,0 C 21,9 C 6,4 km/h (2 Bft) 100,00 %
27.09.2019 16:20 21,8 C 13,9 C 23,3 C 65 % 1011,3 hPa 0,0 l/m 1,8 km/h (1 Bft) O-NO 63 2 min 0,000 mm 0,9 UV-I 224 W/m 14,9 C 21,8 C 3,2 km/h (1 Bft) 98,00 %
27.09.2019 16:22 21,8 C 13,9 C 23,3 C 67 % 1011,3 hPa 0,0 l/m 3,8 km/h (1 Bft) N-NO 15 2 min 0,000 mm 0,9 UV-I 229 W/m 15,4 C 21,8 C 6,4 km/h (2 Bft) 98,00 %
27.09.2019 16:24 21,8 C 13,9 C 23,3 C 68 % 1011,2 hPa 0,0 l/m 5,4 km/h (1 Bft) NO 36 2 min 0,000 mm 0,9 UV-I 214 W/m 15,6 C 21,8 C 8,0 km/h (2 Bft) 100,00 %
27.09.2019 16:26 21,9 C 13,9 C 23,3 C 69 % 1011,2 hPa 0,0 l/m 5,2 km/h (1 Bft) O 80 0 min 0,000 mm 0,8 UV-I 200 W/m 15,9 C 21,9 C 6,4 km/h (2 Bft) 97,14 %
27.09.2019 16:28 21,8 C 13,9 C 23,3 C 67 % 1011,2 hPa 0,0 l/m 4,7 km/h (1 Bft) O 80 0 min 0,000 mm 0,8 UV-I 196 W/m 15,4 C 21,8 C 6,4 km/h (2 Bft) 100,00 %
27.09.2019 16:30 21,8 C 13,9 C 23,3 C 68 % 1011,1 hPa 0,0 l/m 4,6 km/h (1 Bft) O 82 0 min 0,000 mm 0,8 UV-I 194 W/m 15,6 C 21,8 C 6,4 km/h (2 Bft) 100,00 %
27.09.2019 16:32 21,8 C 13,9 C 23,3 C 67 % 1011,2 hPa 0,0 l/m 4,1 km/h (1 Bft) O-NO 57 0 min 0,000 mm 0,7 UV-I 194 W/m 15,4 C 21,8 C 4,8 km/h (1 Bft) 95,12 %
27.09.2019 16:34 21,7 C 13,9 C 23,3 C 67 % 1011,2 hPa 0,0 l/m 2,0 km/h (1 Bft) O-NO 57 0 min 0,000 mm 0,7 UV-I 198 W/m 15,3 C 21,7 C 3,2 km/h (1 Bft) 100,00 %
27.09.2019 16:36 21,7 C 13,9 C 23,3 C 68 % 1011,2 hPa 0,0 l/m 4,0 km/h (1 Bft) NO 55 2 min 0,000 mm 0,7 UV-I 203 W/m 15,5 C 21,7 C 6,4 km/h (2 Bft) 100,00 %
27.09.2019 16:38 21,7 C 13,9 C 23,3 C 68 % 1011,2 hPa 0,0 l/m 3,4 km/h (1 Bft) NO 55 2 min 0,000 mm 0,7 UV-I 208 W/m 15,5 C 21,7 C 4,8 km/h (1 Bft) 100,00 %
27.09.2019 16:40 21,7 C 13,9 C 23,3 C 67 % 1011,2 hPa 0,0 l/m 4,5 km/h (1 Bft) N-NO 22 2 min 0,000 mm 0,7 UV-I 211 W/m 15,3 C 21,7 C 6,4 km/h (2 Bft) 100,00 %
27.09.2019 16:42 21,7 C 13,9 C 22,8 C 67 % 1011,2 hPa 0,0 l/m 3,8 km/h (1 Bft) N-NO 22 2 min 0,000 mm 0,7 UV-I 201 W/m 15,3 C 21,7 C 6,4 km/h (2 Bft) 100,00 %
27.09.2019 16:44 21,7 C 13,9 C 22,8 C 65 % 1011,2 hPa 0,0 l/m 2,7 km/h (1 Bft) N-NO 22 2 min 0,000 mm 0,7 UV-I 187 W/m 14,8 C 21,7 C 3,2 km/h (1 Bft) 97,37 %
27.09.2019 16:46 21,7 C 13,9 C 22,8 C 66 % 1011,2 hPa 0,0 l/m 2,0 km/h (1 Bft) N-NO 22 2 min 0,000 mm 0,6 UV-I 187 W/m 15,1 C 21,7 C 3,2 km/h (1 Bft) 96,00 %
27.09.2019 16:48 21,7 C 13,9 C 22,8 C 66 % 1011,2 hPa 0,0 l/m 3,1 km/h (1 Bft) N-NO 22 2 min 0,000 mm 0,6 UV-I 191 W/m 15,1 C 21,7 C 4,8 km/h (1 Bft) 97,37 %
27.09.2019 16:50 21,7 C 13,9 C 22,8 C 68 % 1011,2 hPa 0,0 l/m 4,3 km/h (1 Bft) O-SO 108 0 min 0,000 mm 0,6 UV-I 177 W/m 15,5 C 21,7 C 6,4 km/h (2 Bft) 94,00 %
27.09.2019 16:52 21,6 C 13,9 C 22,8 C 69 % 1011,2 hPa 0,0 l/m 2,5 km/h (1 Bft) O-SO 108 0 min 0,000 mm 0,6 UV-I 169 W/m 15,7 C 21,6 C 4,8 km/h (1 Bft) 94,34 %
27.09.2019 16:54 21,6 C 13,9 C 22,8 C 69 % 1011,3 hPa 0,0 l/m 2,9 km/h (1 Bft) O 92 0 min 0,000 mm 0,5 UV-I 158 W/m 15,7 C 21,6 C 6,4 km/h (2 Bft) 94,34 %
27.09.2019 16:56 21,5 C 13,9 C 22,8 C 70 % 1011,2 hPa 0,0 l/m 2,7 km/h (1 Bft) O 92 0 min 0,000 mm 0,5 UV-I 156 W/m 15,8 C 21,5 C 4,8 km/h (1 Bft) 97,37 %
27.09.2019 16:58 21,4 C 13,9 C 22,8 C 69 % 1011,2 hPa 0,0 l/m 4,8 km/h (1 Bft) O-NO 76 0 min 0,000 mm 0,5 UV-I 154 W/m 15,5 C 21,4 C 6,4 km/h (2 Bft) 94,00 %
27.09.2019 17:00 21,4 C 13,9 C 22,8 C 70 % 1011,2 hPa 0,0 l/m 3,9 km/h (1 Bft) O 100 0 min 0,000 mm 0,5 UV-I 153 W/m 15,7 C 21,4 C 6,4 km/h (2 Bft) 94,00 %
27.09.2019 17:02 21,4 C 13,9 C 22,8 C 69 % 1011,2 hPa 0,0 l/m 5,0 km/h (1 Bft) O 96 0 min 0,153 mm 0,5 UV-I 154 W/m 15,5 C 21,4 C 9,7 km/h (2 Bft) 93,62 %
27.09.2019 17:04 21,4 C 13,9 C 22,8 C 68 % 1011,1 hPa 0,0 l/m 3,1 km/h (1 Bft) O 96 0 min 0,000 mm 0,1 UV-I 154 W/m 15,2 C 21,4 C 4,8 km/h (1 Bft) 94,74 %
27.09.2019 17:06 21,3 C 13,9 C 22,8 C 68 % 1011,2 hPa 0,0 l/m 3,6 km/h (1 Bft) O 95 0 min 0,000 mm 0,0 UV-I 147 W/m 15,1 C 21,3 C 4,8 km/h (1 Bft) 96,00 %
27.09.2019 17:08 21,3 C 13,9 C 22,8 C 70 % 1011,1 hPa 0,0 l/m 4,8 km/h (1 Bft) O-SO 106 0 min 0,000 mm 0,0 UV-I 147 W/m 15,6 C 21,3 C 9,7 km/h (2 Bft) 95,74 %
27.09.2019 17:10 21,2 C 13,9 C 22,8 C 70 % 1011,1 hPa 0,0 l/m 2,7 km/h (1 Bft) O-SO 106 0 min 0,000 mm 0,0 UV-I 142 W/m 15,5 C 21,2 C 4,8 km/h (1 Bft) 93,62 %
27.09.2019 17:12 21,2 C 13,9 C 22,8 C 70 % 1011,2 hPa 0,0 l/m 3,6 km/h (1 Bft) O-SO 106 0 min 0,000 mm 0,0 UV-I 137 W/m 15,5 C 21,2 C 6,4 km/h (2 Bft) 98,11 %
27.09.2019 17:14 21,1 C 13,9 C 22,8 C 71 % 1011,2 hPa 0,0 l/m 3,6 km/h (1 Bft) O-SO 106 0 min 0,000 mm 0,0 UV-I 134 W/m 15,6 C 21,1 C 4,8 km/h (1 Bft) 97,56 %
27.09.2019 17:16 21,1 C 13,9 C 22,8 C 70 % 1011,2 hPa 0,0 l/m 2,9 km/h (1 Bft) O-SO 106 0 min 0,000 mm 0,0 UV-I 128 W/m 15,4 C 21,1 C 4,8 km/h (1 Bft) 97,87 %
27.09.2019 17:18 21,1 C 13,9 C 22,2 C 71 % 1011,2 hPa 0,0 l/m 2,5 km/h (1 Bft) O-SO 106 0 min 0,000 mm 0,0 UV-I 123 W/m 15,6 C 21,1 C 4,8 km/h (1 Bft) 98,11 %
27.09.2019 17:20 21,1 C 13,9 C 22,2 C 71 % 1011,2 hPa 0,0 l/m 3,8 km/h (1 Bft) O 97 0 min 0,000 mm 0,0 UV-I 118 W/m 15,6 C 21,1 C 4,8 km/h (1 Bft) 91,67 %
27.09.2019 17:22 21,1 C 13,9 C 22,2 C 70 % 1011,2 hPa 0,0 l/m 3,9 km/h (1 Bft) O 92 0 min 0,000 mm 0,0 UV-I 117 W/m 15,4 C 21,1 C 4,8 km/h (1 Bft) 100,00 %
27.09.2019 17:24 21,1 C 13,9 C 22,2 C 72 % 1011,2 hPa 0,0 l/m 2,5 km/h (1 Bft) O 92 0 min 0,000 mm 0,0 UV-I 117 W/m 15,8 C 21,1 C 3,2 km/h (1 Bft) 97,87 %
27.09.2019 17:26 21,0 C 13,9 C 22,2 C 72 % 1011,3 hPa 0,0 l/m 2,2 km/h (1 Bft) O 92 0 min 0,000 mm 0,0 UV-I 116 W/m 15,8 C 21,0 C 3,2 km/h (1 Bft) 98,11 %
27.09.2019 17:28 20,9 C 13,9 C 22,2 C 72 % 1011,3 hPa 0,0 l/m 1,8 km/h (1 Bft) O 93 0 min 0,000 mm 0,0 UV-I 116 W/m 15,7 C 20,9 C 3,2 km/h (1 Bft) 97,37 %
27.09.2019 17:30 20,9 C 13,9 C 22,2 C 72 % 1011,2 hPa 0,0 l/m 2,7 km/h (1 Bft) O 93 0 min 0,000 mm 0,0 UV-I 115 W/m 15,7 C 20,9 C 4,8 km/h (1 Bft) 96,00 %
27.09.2019 17:32 20,8 C 13,9 C 22,2 C 72 % 1011,2 hPa 0,0 l/m 3,3 km/h (1 Bft) O 98 0 min 0,000 mm 0,0 UV-I 110 W/m 15,6 C 20,8 C 4,8 km/h (1 Bft) 98,11 %
27.09.2019 17:34 20,8 C 13,9 C 21,7 C 73 % 1011,2 hPa 0,0 l/m 2,9 km/h (1 Bft) O 99 0 min 0,000 mm 0,0 UV-I 104 W/m 15,8 C 20,8 C 4,8 km/h (1 Bft) 97,37 %
27.09.2019 17:36 20,8 C 13,9 C 21,7 C 73 % 1011,2 hPa 0,0 l/m 2,7 km/h (1 Bft) O 99 0 min 0,000 mm 0,0 UV-I 100 W/m 15,8 C 20,8 C 4,8 km/h (1 Bft) 94,34 %
27.09.2019 17:38 20,7 C 13,9 C 21,7 C 74 % 1011,1 hPa 0,0 l/m 4,0 km/h (1 Bft) O-SO 111 0 min 0,000 mm 0,0 UV-I 97 W/m 15,9 C 20,7 C 4,8 km/h (1 Bft) 97,87 %
27.09.2019 17:40 20,7 C 13,9 C 21,7 C 76 % 1011,1 hPa 0,0 l/m 3,8 km/h (1 Bft) O-SO 111 0 min 0,000 mm 0,0 UV-I 102 W/m 16,3 C 20,7 C 4,8 km/h (1 Bft) 97,87 %
27.09.2019 17:42 20,6 C 13,9 C 21,7 C 76 % 1011,1 hPa 0,0 l/m 2,8 km/h (1 Bft) O-SO 111 2 min 0,000 mm 0,0 UV-I 106 W/m 16,2 C 20,6 C 4,8 km/h (1 Bft) 95,12 %
27.09.2019 17:44 20,5 C 13,9 C 21,7 C 76 % 1011,1 hPa 0,0 l/m 2,7 km/h (1 Bft) O-SO 111 2 min 0,000 mm 0,0 UV-I 104 W/m 16,1 C 20,5 C 4,8 km/h (1 Bft) 96,23 %
27.09.2019 17:46 20,5 C 13,9 C 21,1 C 76 % 1011,1 hPa 0,0 l/m 3,7 km/h (1 Bft) O-SO 116 0 min 0,000 mm 0,0 UV-I 95 W/m 16,1 C 20,5 C 4,8 km/h (1 Bft) 98,00 %
27.09.2019 17:48 20,4 C 13,9 C 21,1 C 74 % 1011,1 hPa 0,0 l/m 3,6 km/h (1 Bft) O-SO 116 0 min 0,000 mm 0,0 UV-I 89 W/m 15,6 C 20,4 C 4,8 km/h (1 Bft) 97,87 %
27.09.2019 17:50 20,4 C 13,9 C 21,1 C 75 % 1011,1 hPa 0,0 l/m 3,2 km/h (1 Bft) O-SO 114 0 min 0,000 mm 0,0 UV-I 87 W/m 15,8 C 20,4 C 4,8 km/h (1 Bft) 97,37 %
27.09.2019 17:52 20,4 C 13,9 C 21,1 C 75 % 1011,1 hPa 0,0 l/m 1,2 km/h (1 Bft) O-SO 114 0 min 0,000 mm 0,0 UV-I 86 W/m 15,8 C 20,4 C 3,2 km/h (1 Bft) 98,00 %
27.09.2019 17:54 20,4 C 13,9 C 21,1 C 76 % 1011,1 hPa 0,0 l/m 1,6 km/h (1 Bft) O-SO 114 2 min 0,000 mm 0,0 UV-I 85 W/m 16,0 C 20,4 C 3,2 km/h (1 Bft) 96,00 %
27.09.2019 17:56 20,3 C 13,9 C 20,6 C 75 % 1011,1 hPa 0,0 l/m 2,6 km/h (1 Bft) O-SO 115 0 min 0,000 mm 0,0 UV-I 78 W/m 15,7 C 20,3 C 4,8 km/h (1 Bft) 97,22 %
27.09.2019 17:59 20,3 C 13,9 C 20,6 C 75 % 1011,1 hPa 0,0 l/m 3,3 km/h (1 Bft) O-SO 118 0 min 0,000 mm 0,0 UV-I 71 W/m 15,7 C 20,3 C 6,4 km/h (2 Bft) 97,26 %
27.09.2019 18:00 20,3 C 13,9 C 20,6 C 76 % 1011,1 hPa 0,0 l/m 3,5 km/h (1 Bft) O-SO 118 0 min 0,000 mm 0,0 UV-I 68 W/m 15,9 C 20,3 C 4,8 km/h (1 Bft) 100,00 %
27.09.2019 18:02 20,2 C 13,9 C 20,6 C 76 % 1011,1 hPa 0,0 l/m 3,7 km/h (1 Bft) O-SO 117 0 min 0,076 mm 0,0 UV-I 64 W/m 15,8 C 20,2 C 4,8 km/h (1 Bft) 97,87 %
27.09.2019 18:04 20,2 C 13,9 C 20,0 C 76 % 1011,1 hPa 0,0 l/m 2,3 km/h (1 Bft) O-SO 117 0 min 0,000 mm 0,0 UV-I 63 W/m 15,8 C 20,2 C 4,8 km/h (1 Bft) 97,56 %
27.09.2019 18:06 20,1 C 13,9 C 20,0 C 76 % 1011,0 hPa 0,0 l/m 2,5 km/h (1 Bft) O-SO 117 0 min 0,000 mm 0,0 UV-I 60 W/m 15,7 C 20,1 C 3,2 km/h (1 Bft) 96,23 %
27.09.2019 18:08 20,1 C 13,9 C 20,0 C 76 % 1011,0 hPa 0,0 l/m 3,3 km/h (1 Bft) O-SO 117 0 min 0,000 mm 0,0 UV-I 55 W/m 15,7 C 20,1 C 4,8 km/h (1 Bft) 98,00 %
27.09.2019 18:10 20,0 C 13,9 C 19,4 C 76 % 1011,0 hPa 0,0 l/m 3,6 km/h (1 Bft) O-SO 118 0 min 0,000 mm 0,0 UV-I 53 W/m 15,6 C 20,0 C 4,8 km/h (1 Bft) 97,87 %
27.09.2019 18:12 19,9 C 13,9 C 19,4 C 76 % 1011,0 hPa 0,0 l/m 3,8 km/h (1 Bft) O-SO 118 0 min 0,000 mm 0,0 UV-I 49 W/m 15,5 C 19,9 C 4,8 km/h (1 Bft) 95,74 %
27.09.2019 18:14 19,9 C 13,9 C 19,4 C 76 % 1011,0 hPa 0,0 l/m 3,0 km/h (1 Bft) O-SO 118 0 min 0,000 mm 0,0 UV-I 44 W/m 15,5 C 19,9 C 6,4 km/h (2 Bft) 98,00 %
27.09.2019 18:16 19,9 C 13,9 C 19,4 C 77 % 1011,0 hPa 0,0 l/m 3,5 km/h (1 Bft) O-SO 118 0 min 0,000 mm 0,0 UV-I 41 W/m 15,7 C 19,9 C 4,8 km/h (1 Bft) 94,74 %
27.09.2019 18:18 19,8 C 13,9 C 19,4 C 77 % 1011,0 hPa 0,0 l/m 2,9 km/h (1 Bft) O-SO 118 0 min 0,000 mm 0,0 UV-I 40 W/m 15,6 C 19,8 C 4,8 km/h (1 Bft) 93,62 %
27.09.2019 18:20 19,8 C 13,9 C 19,4 C 78 % 1011,0 hPa 0,0 l/m 3,0 km/h (1 Bft) O-SO 118 0 min 0,000 mm 0,0 UV-I 40 W/m 15,8 C 19,8 C 4,8 km/h (1 Bft) 95,45 %
27.09.2019 18:22 19,7 C 13,9 C 19,4 C 78 % 1011,1 hPa 0,0 l/m 3,7 km/h (1 Bft) O-SO 119 0 min 0,000 mm 0,0 UV-I 38 W/m 15,8 C 19,7 C 4,8 km/h (1 Bft) 94,34 %
27.09.2019 18:24 19,7 C 13,9 C 19,4 C 79 % 1011,1 hPa 0,0 l/m 2,7 km/h (1 Bft) SO 141 0 min 0,000 mm 0,0 UV-I 32 W/m 16,0 C 19,7 C 4,8 km/h (1 Bft) 96,00 %
27.09.2019 18:26 19,7 C 13,9 C 19,4 C 78 % 1011,1 hPa 0,0 l/m 3,0 km/h (1 Bft) SO 142 0 min 0,000 mm 0,0 UV-I 26 W/m 15,8 C 19,7 C 4,8 km/h (1 Bft) 95,12 %
27.09.2019 18:28 19,6 C 13,9 C 19,4 C 78 % 1011,1 hPa 0,0 l/m 1,1 km/h (1 Bft) SO 142 0 min 0,000 mm 0,0 UV-I 21 W/m 15,7 C 19,6 C 3,2 km/h (1 Bft) 92,00 %
27.09.2019 18:30 19,6 C 13,9 C 19,4 C 78 % 1011,2 hPa 0,0 l/m 0,0 km/h (0 Bft) SO 142 0 min 0,000 mm 0,0 UV-I 18 W/m 15,7 C 19,6 C 0,0 km/h (0 Bft) 95,74 %
27.09.2019 18:32 19,6 C 13,9 C 19,4 C 78 % 1011,2 hPa 0,0 l/m 0,4 km/h (0 Bft) SO 142 0 min 0,000 mm 0,0 UV-I 16 W/m 15,7 C 19,6 C 1,6 km/h (1 Bft) 95,24 %
27.09.2019 18:34 19,7 C 13,9 C 19,4 C 78 % 1011,2 hPa 0,0 l/m 0,7 km/h (0 Bft) SO 142 0 min 0,000 mm 0,0 UV-I 14 W/m 15,8 C 19,7 C 1,6 km/h (1 Bft) 95,74 %
27.09.2019 18:36 19,7 C 13,9 C 19,4 C 78 % 1011,2 hPa 0,0 l/m 0,6 km/h (0 Bft) SO 142 0 min 0,000 mm 0,0 UV-I 13 W/m 15,8 C 19,7 C 3,2 km/h (1 Bft) 98,00 %
27.09.2019 18:38 19,7 C 13,9 C 19,4 C 79 % 1011,2 hPa 0,0 l/m 0,0 km/h (0 Bft) SO 142 0 min 0,000 mm 0,0 UV-I 12 W/m 16,0 C 19,7 C 0,0 km/h (0 Bft) 100,00 %
27.09.2019 18:40 19,6 C 13,9 C 19,4 C 80 % 1011,2 hPa 0,0 l/m 0,0 km/h (0 Bft) SO 142 2 min 0,000 mm 0,0 UV-I 12 W/m 16,1 C 19,6 C 0,0 km/h (0 Bft) 100,00 %
27.09.2019 18:42 19,4 C 13,9 C 19,4 C 81 % 1011,2 hPa 0,0 l/m 0,0 km/h (0 Bft) SO 143 2 min 0,000 mm 0,0 UV-I 12 W/m 16,1 C 19,4 C 1,6 km/h (1 Bft) 100,00 %
27.09.2019 18:44 19,3 C 13,9 C 18,9 C 81 % 1011,2 hPa 0,0 l/m 0,0 km/h (0 Bft) SO 143 0 min 0,000 mm 0,0 UV-I 12 W/m 16,0 C 19,3 C 0,0 km/h (0 Bft) 100,00 %
27.09.2019 18:46 19,3 C 13,9 C 18,9 C 81 % 1011,2 hPa 0,0 l/m 0,0 km/h (0 Bft) SO 143 0 min 0,000 mm 0,0 UV-I 11 W/m 16,0 C 19,3 C 0,0 km/h (0 Bft) 97,87 %
27.09.2019 18:49 19,2 C 13,9 C 18,9 C 81 % 1011,2 hPa 0,0 l/m 0,0 km/h (0 Bft) SO 144 0 min 0,000 mm 0,0 UV-I 9 W/m 15,9 C 19,2 C 0,0 km/h (0 Bft) 97,26 %
27.09.2019 18:50 19,2 C 13,9 C 18,9 C 81 % 1011,2 hPa 0,0 l/m 0,0 km/h (0 Bft) SO 146 0 min 0,000 mm 0,0 UV-I 7 W/m 15,9 C 19,2 C 0,0 km/h (0 Bft) 100,00 %
27.09.2019 18:52 19,1 C 13,9 C 18,9 C 80 % 1011,2 hPa 0,0 l/m 0,0 km/h (0 Bft) S-SO 147 0 min 0,000 mm 0,0 UV-I 7 W/m 15,6 C 19,1 C 0,0 km/h (0 Bft) 97,87 %
27.09.2019 18:54 19,1 C 13,9 C 18,9 C 80 % 1011,2 hPa 0,0 l/m 0,5 km/h (0 Bft) S-SO 150 0 min 0,000 mm 0,0 UV-I 5 W/m 15,6 C 19,1 C 4,8 km/h (1 Bft) 94,34 %
27.09.2019 18:56 19,2 C 13,9 C 18,3 C 79 % 1011,2 hPa 0,0 l/m 3,0 km/h (1 Bft) S-SO 153 0 min 0,000 mm 0,0 UV-I 5 W/m 15,5 C 19,2 C 4,8 km/h (1 Bft) 97,56 %
27.09.2019 18:58 19,2 C 13,9 C 18,3 C 79 % 1011,3 hPa 0,0 l/m 1,9 km/h (1 Bft) S-SO 153 0 min 0,000 mm 0,0 UV-I 5 W/m 15,5 C 19,2 C 3,2 km/h (1 Bft) 96,00 %
27.09.2019 19:00 19,2 C 13,9 C 18,3 C 79 % 1011,3 hPa 0,0 l/m 1,0 km/h (0 Bft) S-SO 153 0 min 0,000 mm 0,0 UV-I 1 W/m 15,5 C 19,2 C 1,6 km/h (1 Bft) 98,11 %
27.09.2019 19:02 19,2 C 13,9 C 18,3 C 80 % 1011,3 hPa 0,0 l/m 1,0 km/h (0 Bft) S-SO 155 0 min 0,025 mm 0,0 UV-I 0 W/m 15,7 C 19,2 C 3,2 km/h (1 Bft) 97,56 %
27.09.2019 19:04 19,1 C 13,9 C 18,3 C 80 % 1011,3 hPa 0,0 l/m 1,7 km/h (1 Bft) S-SO 155 0 min 0,000 mm 0,0 UV-I 0 W/m 15,6 C 19,1 C 3,2 km/h (1 Bft) 100,00 %
27.09.2019 19:06 19,1 C 13,9 C 18,3 C 80 % 1011,3 hPa 0,0 l/m 1,8 km/h (1 Bft) S-SO 155 0 min 0,000 mm 0,0 UV-I 0 W/m 15,6 C 19,1 C 3,2 km/h (1 Bft) 96,00 %
27.09.2019 19:08 19,0 C 13,9 C 18,3 C 81 % 1011,3 hPa 0,0 l/m 3,0 km/h (1 Bft) S-SO 158 0 min 0,000 mm 0,0 UV-I 0 W/m 15,7 C 19,0 C 4,8 km/h (1 Bft) 95,74 %
27.09.2019 19:10 18,9 C 13,9 C 18,3 C 80 % 1011,3 hPa 0,0 l/m 3,0 km/h (1 Bft) S 172 0 min 0,000 mm 0,0 UV-I 0 W/m 15,4 C 18,9 C 6,4 km/h (2 Bft) 100,00 %
27.09.2019 19:12 18,9 C 13,9 C 18,3 C 80 % 1011,3 hPa 0,0 l/m 2,7 km/h (1 Bft) S 173 0 min 0,000 mm 0,0 UV-I 0 W/m 15,4 C 18,9 C 4,8 km/h (1 Bft) 96,23 %
27.09.2019 19:14 18,8 C 13,9 C 17,8 C 80 % 1011,4 hPa 0,0 l/m 3,1 km/h (1 Bft) S 185 0 min 0,000 mm 0,0 UV-I 0 W/m 15,3 C 18,8 C 4,8 km/h (1 Bft) 97,87 %
27.09.2019 19:16 18,8 C 13,9 C 17,8 C 81 % 1011,4 hPa 0,0 l/m 3,5 km/h (1 Bft) S 186 0 min 0,000 mm 0,0 UV-I 0 W/m 15,5 C 18,8 C 4,8 km/h (1 Bft) 97,56 %
27.09.2019 19:18 18,7 C 13,9 C 17,8 C 81 % 1011,4 hPa 0,0 l/m 2,6 km/h (1 Bft) S 186 0 min 0,000 mm 0,0 UV-I 0 W/m 15,4 C 18,7 C 4,8 km/h (1 Bft) 98,00 %
27.09.2019 19:20 18,7 C 13,9 C 17,8 C 81 % 1011,4 hPa 0,0 l/m 3,0 km/h (1 Bft) S 185 0 min 0,000 mm 0,0 UV-I 0 W/m 15,4 C 18,7 C 4,8 km/h (1 Bft) 98,00 %
27.09.2019 19:22 18,6 C 13,9 C 17,2 C 81 % 1011,4 hPa 0,0 l/m 3,8 km/h (1 Bft) S 190 0 min 0,000 mm 0,0 UV-I 0 W/m 15,3 C 18,6 C 6,4 km/h (2 Bft) 100,00 %
27.09.2019 19:24 18,6 C 13,9 C 17,2 C 81 % 1011,5 hPa 0,0 l/m 5,1 km/h (1 Bft) S 188 0 min 0,000 mm 0,0 UV-I 0 W/m 15,3 C 18,6 C 8,0 km/h (2 Bft) 100,00 %
27.09.2019 19:26 18,6 C 13,9 C 17,8 C 81 % 1011,5 hPa 0,0 l/m 5,4 km/h (1 Bft) S 189 0 min 0,000 mm 0,0 UV-I 0 W/m 15,3 C 18,6 C 8,0 km/h (2 Bft) 100,00 %
27.09.2019 19:28 18,6 C 13,9 C 17,8 C 81 % 1011,6 hPa 0,0 l/m 4,8 km/h (1 Bft) S-SW 198 0 min 0,000 mm 0,0 UV-I 0 W/m 15,3 C 18,6 C 8,0 km/h (2 Bft) 97,56 %
27.09.2019 19:30 18,5 C 13,9 C 17,8 C 81 % 1011,6 hPa 0,0 l/m 5,0 km/h (1 Bft) S 191 0 min 0,000 mm 0,0 UV-I 0 W/m 15,2 C 18,5 C 6,4 km/h (2 Bft) 100,00 %
27.09.2019 19:32 18,4 C 13,9 C 17,8 C 81 % 1011,7 hPa 0,0 l/m 5,9 km/h (2 Bft) S-SW 197 0 min 0,000 mm 0,0 UV-I 0 W/m 15,1 C 18,4 C 9,7 km/h (2 Bft) 100,00 %
27.09.2019 19:34 18,5 C 13,9 C 17,8 C 81 % 1011,8 hPa 0,0 l/m 6,6 km/h (2 Bft) S 177 0 min 0,000 mm 0,0 UV-I 0 W/m 15,2 C 18,4 C 9,7 km/h (2 Bft) 100,00 %
27.09.2019 19:36 18,6 C 13,9 C 17,8 C 81 % 1011,7 hPa 0,0 l/m 7,4 km/h (2 Bft) S 182 0 min 0,000 mm 0,0 UV-I 0 W/m 15,3 C 18,1 C 9,7 km/h (2 Bft) 100,00 %
27.09.2019 19:39 18,6 C 13,9 C 17,8 C 80 % 1011,7 hPa 0,0 l/m 7,8 km/h (2 Bft) S 177 0 min 0,000 mm 0,0 UV-I 0 W/m 15,1 C 18,0 C 11,3 km/h (2 Bft) 100,00 %
27.09.2019 19:40 18,7 C 13,9 C 17,8 C 80 % 1011,7 hPa 0,0 l/m 9,6 km/h (2 Bft) S 171 0 min 0,000 mm 0,0 UV-I 0 W/m 15,2 C 17,4 C 12,9 km/h (3 Bft) 100,00 %
27.09.2019 19:42 18,7 C 13,9 C 17,8 C 79 % 1011,7 hPa 0,0 l/m 7,5 km/h (2 Bft) S 175 0 min 0,000 mm 0,0 UV-I 0 W/m 15,0 C 18,2 C 11,3 km/h (2 Bft) 98,21 %
27.09.2019 19:44 18,8 C 13,9 C 17,8 C 79 % 1011,6 hPa 0,0 l/m 7,7 km/h (2 Bft) S 175 0 min 0,000 mm 0,0 UV-I 0 W/m 15,1 C 18,2 C 11,3 km/h (2 Bft) 100,00 %
27.09.2019 19:46 18,8 C 13,9 C 17,8 C 78 % 1011,6 hPa 0,0 l/m 8,8 km/h (2 Bft) S-SO 168 0 min 0,000 mm 0,0 UV-I 0 W/m 14,9 C 17,8 C 14,5 km/h (3 Bft) 96,00 %
27.09.2019 19:48 18,8 C 13,9 C 17,8 C 78 % 1011,6 hPa 0,0 l/m 9,5 km/h (2 Bft) S-SO 163 0 min 0,000 mm 0,0 UV-I 0 W/m 14,9 C 17,5 C 14,5 km/h (3 Bft) 97,87 %
27.09.2019 19:50 18,8 C 13,9 C 17,8 C 78 % 1011,7 hPa 0,0 l/m 8,7 km/h (2 Bft) S 172 0 min 0,000 mm 0,0 UV-I 0 W/m 14,9 C 17,8 C 14,5 km/h (3 Bft) 98,00 %
27.09.2019 19:52 18,9 C 13,9 C 17,8 C 77 % 1011,6 hPa 0,0 l/m 9,6 km/h (2 Bft) S-SO 164 0 min 0,000 mm 0,0 UV-I 0 W/m 14,8 C 17,6 C 14,5 km/h (3 Bft) 98,00 %
27.09.2019 19:54 18,9 C 13,9 C 17,8 C 77 % 1011,7 hPa 0,0 l/m 8,2 km/h (2 Bft) S-SO 167 0 min 0,000 mm 0,0 UV-I 0 W/m 14,8 C 18,1 C 12,9 km/h (3 Bft) 97,87 %
27.09.2019 19:56 18,9 C 13,9 C 17,8 C 77 % 1011,7 hPa 0,0 l/m 8,7 km/h (2 Bft) S 177 0 min 0,000 mm 0,0 UV-I 0 W/m 14,8 C 17,9 C 16,1 km/h (3 Bft) 97,87 %
27.09.2019 19:58 18,9 C 13,9 C 17,8 C 76 % 1011,7 hPa 0,0 l/m 9,9 km/h (2 Bft) S-SO 162 0 min 0,000 mm 0,0 UV-I 0 W/m 14,6 C 17,5 C 14,5 km/h (3 Bft) 97,37 %
27.09.2019 20:00 19,0 C 13,9 C 17,8 C 76 % 1011,7 hPa 0,0 l/m 7,0 km/h (2 Bft) S-SW 211 0 min 0,000 mm 0,0 UV-I 0 W/m 14,7 C 18,7 C 12,9 km/h (3 Bft) 97,87 %
27.09.2019 20:02 18,9 C 13,9 C 17,8 C 76 % 1011,8 hPa 0,0 l/m 6,0 km/h (2 Bft) S-SW 196 0 min 0,026 mm 0,0 UV-I 0 W/m 14,6 C 18,9 C 9,7 km/h (2 Bft) 97,87 %
27.09.2019 20:04 18,8 C 13,9 C 17,8 C 77 % 1011,8 hPa 0,0 l/m 6,2 km/h (2 Bft) S 182 0 min 0,000 mm 0,0 UV-I 0 W/m 14,7 C 18,8 C 9,7 km/h (2 Bft) 98,11 %
27.09.2019 20:06 18,7 C 13,9 C 17,2 C 78 % 1011,8 hPa 0,0 l/m 5,9 km/h (2 Bft) S-SW 198 0 min 0,000 mm 0,0 UV-I 0 W/m 14,8 C 18,7 C 9,7 km/h (2 Bft) 95,74 %
27.09.2019 20:08 18,6 C 13,9 C 17,2 C 78 % 1011,8 hPa 0,0 l/m 6,5 km/h (2 Bft) S-SW 193 0 min 0,000 mm 0,0 UV-I 0 W/m 14,7 C 18,6 C 9,7 km/h (2 Bft) 97,14 %
27.09.2019 20:10 18,6 C 13,9 C 17,2 C 78 % 1011,8 hPa 0,0 l/m 8,2 km/h (2 Bft) S 178 0 min 0,000 mm 0,0 UV-I 0 W/m 14,7 C 17,8 C 11,3 km/h (2 Bft) 100,00 %
27.09.2019 20:12 18,5 C 13,9 C 17,2 C 79 % 1011,8 hPa 0,0 l/m 7,2 km/h (2 Bft) S 179 0 min 0,000 mm 0,0 UV-I 0 W/m 14,8 C 18,1 C 9,7 km/h (2 Bft) 100,00 %
27.09.2019 20:14 18,4 C 13,9 C 17,2 C 79 % 1012,0 hPa 0,0 l/m 5,7 km/h (1 Bft) S 180 0 min 0,000 mm 0,0 UV-I 0 W/m 14,7 C 18,4 C 9,7 km/h (2 Bft) 100,00 %
27.09.2019 20:16 18,3 C 13,9 C 17,2 C 80 % 1012,0 hPa 0,0 l/m 6,2 km/h (2 Bft) S-SW 211 0 min 0,000 mm 0,0 UV-I 0 W/m 14,8 C 18,3 C 9,7 km/h (2 Bft) 100,00 %
27.09.2019 20:18 18,2 C 13,9 C 17,2 C 80 % 1012,0 hPa 0,0 l/m 6,6 km/h (2 Bft) S 185 0 min 0,000 mm 0,0 UV-I 0 W/m 14,7 C 18,1 C 9,7 km/h (2 Bft) 97,87 %
27.09.2019 20:20 18,2 C 13,9 C 17,2 C 81 % 1012,1 hPa 0,0 l/m 6,7 km/h (2 Bft) SW 217 0 min 0,000 mm 0,0 UV-I 0 W/m 14,9 C 18,1 C 9,7 km/h (2 Bft) 100,00 %
27.09.2019 20:22 18,1 C 13,9 C 16,7 C 81 % 1012,1 hPa 0,0 l/m 5,4 km/h (1 Bft) S 188 0 min 0,000 mm 0,0 UV-I 0 W/m 14,8 C 18,1 C 8,0 km/h (2 Bft) 98,08 %
27.09.2019 20:24 18,1 C 13,9 C 16,7 C 82 % 1012,1 hPa 0,0 l/m 6,8 km/h (2 Bft) S-SO 153 0 min 0,000 mm 0,0 UV-I 0 W/m 15,0 C 17,9 C 11,3 km/h (2 Bft) 97,62 %
27.09.2019 20:26 18,0 C 13,9 C 16,7 C 82 % 1012,1 hPa 0,0 l/m 8,2 km/h (2 Bft) S 178 0 min 0,000 mm 0,0 UV-I 0 W/m 14,9 C 17,2 C 12,9 km/h (3 Bft) 100,00 %
27.09.2019 20:28 18,1 C 13,9 C 17,2 C 82 % 1012,2 hPa 0,0 l/m 7,2 km/h (2 Bft) S-SW 204 0 min 0,000 mm 0,0 UV-I 0 W/m 15,0 C 17,7 C 12,9 km/h (3 Bft) 100,00 %
27.09.2019 20:30 18,1 C 13,9 C 17,2 C 82 % 1012,2 hPa 0,0 l/m 6,1 km/h (2 Bft) S 190 0 min 0,000 mm 0,0 UV-I 0 W/m 15,0 C 18,1 C 9,7 km/h (2 Bft) 97,56 %
27.09.2019 20:32 18,1 C 13,9 C 17,2 C 82 % 1012,2 hPa 0,0 l/m 6,3 km/h (2 Bft) S-SW 197 0 min 0,000 mm 0,0 UV-I 0 W/m 15,0 C 18,1 C 9,7 km/h (2 Bft) 100,00 %
27.09.2019 20:34 18,1 C 13,9 C 17,2 C 83 % 1012,2 hPa 0,0 l/m 6,5 km/h (2 Bft) S 181 0 min 0,000 mm 0,0 UV-I 0 W/m 15,2 C 18,1 C 9,7 km/h (2 Bft) 97,87 %
27.09.2019 20:36 18,1 C 13,9 C 17,2 C 83 % 1012,2 hPa 0,0 l/m 7,7 km/h (2 Bft) S-SW 201 0 min 0,000 mm 0,0 UV-I 0 W/m 15,2 C 17,5 C 12,9 km/h (3 Bft) 100,00 %
27.09.2019 20:38 18,1 C 13,9 C 17,8 C 83 % 1012,2 hPa 0,0 l/m 5,9 km/h (2 Bft) SW 219 0 min 0,000 mm 0,0 UV-I 0 W/m 15,2 C 18,1 C 9,7 km/h (2 Bft) 98,11 %
27.09.2019 20:40 18,1 C 13,9 C 17,8 C 82 % 1012,4 hPa 0,0 l/m 8,4 km/h (2 Bft) W-NW 284 0 min 0,000 mm 0,0 UV-I 0 W/m 15,0 C 17,2 C 16,1 km/h (3 Bft) 100,00 %
27.09.2019 20:42 17,9 C 13,9 C 17,2 C 82 % 1013,0 hPa 0,0 l/m 15,4 km/h (3 Bft) W-SW 255 0 min 0,000 mm 0,0 UV-I 0 W/m 14,8 C 14,6 C 29,0 km/h (5 Bft) 100,00 %
27.09.2019 20:44 17,8 C 13,9 C 17,8 C 82 % 1013,0 hPa 0,0 l/m 12,3 km/h (3 Bft) W-SW 258 0 min 0,000 mm 0,0 UV-I 0 W/m 14,7 C 15,4 C 20,9 km/h (4 Bft) 100,00 %
27.09.2019 20:46 17,9 C 13,9 C 17,8 C 81 % 1013,1 hPa 0,0 l/m 9,7 km/h (2 Bft) SW 235 0 min 0,000 mm 0,0 UV-I 0 W/m 14,6 C 16,4 C 16,1 km/h (3 Bft) 100,00 %
27.09.2019 20:48 17,9 C 13,9 C 17,8 C 80 % 1013,1 hPa 0,0 l/m 17,6 km/h (3 Bft) W-NW 301 0 min 0,000 mm 0,0 UV-I 0 W/m 14,4 C 14,0 C 27,4 km/h (4 Bft) 97,87 %
27.09.2019 20:50 18,0 C 13,9 C 17,8 C 79 % 1013,1 hPa 0,0 l/m 11,3 km/h (2 Bft) W-NW 297 0 min 0,000 mm 0,0 UV-I 0 W/m 14,3 C 16,0 C 17,7 km/h (3 Bft) 97,56 %
27.09.2019 20:52 18,1 C 13,9 C 17,8 C 79 % 1013,1 hPa 0,0 l/m 7,4 km/h (2 Bft) N 355 0 min 0,000 mm 0,0 UV-I 0 W/m 14,4 C 17,6 C 16,1 km/h (3 Bft) 98,21 %
27.09.2019 20:54 18,0 C 13,9 C 17,8 C 79 % 1013,1 hPa 0,0 l/m 9,1 km/h (2 Bft) W-NW 283 0 min 0,000 mm 0,0 UV-I 0 W/m 14,3 C 16,8 C 14,5 km/h (3 Bft) 97,37 %
27.09.2019 20:56 17,9 C 13,9 C 17,8 C 79 % 1013,0 hPa 0,0 l/m 6,0 km/h (2 Bft) W-NW 288 0 min 0,000 mm 0,0 UV-I 0 W/m 14,2 C 17,9 C 12,9 km/h (3 Bft) 96,43 %
27.09.2019 20:58 17,9 C 13,9 C 17,2 C 79 % 1013,0 hPa 0,0 l/m 4,0 km/h (1 Bft) W 274 0 min 0,000 mm 0,0 UV-I 0 W/m 14,2 C 17,9 C 9,7 km/h (2 Bft) 98,00 %
27.09.2019 21:00 17,9 C 13,9 C 17,2 C 79 % 1012,9 hPa 0,0 l/m 1,8 km/h (1 Bft) W 273 0 min 0,025 mm 0,0 UV-I 0 W/m 14,2 C 17,9 C 3,2 km/h (1 Bft) 97,87 %
27.09.2019 21:02 17,8 C 13,9 C 17,2 C 79 % 1013,1 hPa 0,0 l/m 4,4 km/h (1 Bft) W-NW 302 0 min 0,000 mm 0,0 UV-I 0 W/m 14,1 C 17,8 C 6,4 km/h (2 Bft) 94,44 %
27.09.2019 21:04 17,8 C 13,9 C 17,2 C 79 % 1013,1 hPa 0,0 l/m 2,7 km/h (1 Bft) N-NW 336 0 min 0,000 mm 0,0 UV-I 0 W/m 14,1 C 17,8 C 6,4 km/h (2 Bft) 98,11 %
27.09.2019 21:06 17,7 C 13,9 C 16,7 C 80 % 1013,1 hPa 0,0 l/m 3,6 km/h (1 Bft) N-NO 28 0 min 0,000 mm 0,0 UV-I 0 W/m 14,2 C 17,7 C 9,7 km/h (2 Bft) 97,87 %
27.09.2019 21:08 17,6 C 13,9 C 16,7 C 80 % 1013,1 hPa 0,0 l/m 2,6 km/h (1 Bft) N-NW 336 0 min 0,000 mm 0,0 UV-I 0 W/m 14,1 C 17,6 C 4,8 km/h (1 Bft) 97,83 %
27.09.2019 21:10 17,5 C 13,9 C 16,7 C 80 % 1013,1 hPa 0,0 l/m 3,1 km/h (1 Bft) NW 313 0 min 0,000 mm 0,0 UV-I 0 W/m 14,0 C 17,5 C 3,2 km/h (1 Bft) 95,12 %
27.09.2019 21:12 17,4 C 13,9 C 16,7 C 81 % 1013,2 hPa 0,0 l/m 0,9 km/h (0 Bft) NW 313 0 min 0,000 mm 0,0 UV-I 0 W/m 14,1 C 17,4 C 3,2 km/h (1 Bft) 94,00 %
27.09.2019 21:14 17,4 C 13,9 C 16,1 C 81 % 1013,2 hPa 0,0 l/m 0,4 km/h (0 Bft) NW 313 0 min 0,000 mm 0,0 UV-I 0 W/m 14,1 C 17,4 C 4,8 km/h (1 Bft) 97,37 %
27.09.2019 21:16 17,3 C 13,9 C 16,1 C 81 % 1013,2 hPa 0,0 l/m 1,6 km/h (1 Bft) W 273 0 min 0,000 mm 0,0 UV-I 0 W/m 14,0 C 17,3 C 4,8 km/h (1 Bft) 94,64 %
27.09.2019 21:18 17,3 C 13,9 C 16,1 C 81 % 1013,2 hPa 0,0 l/m 1,6 km/h (1 Bft) N-NW 331 0 min 0,000 mm 0,0 UV-I 0 W/m 14,0 C 17,3 C 4,8 km/h (1 Bft) 96,00 %
27.09.2019 21:20 17,2 C 13,9 C 16,1 C 81 % 1013,2 hPa 0,0 l/m 1,3 km/h (1 Bft) N-NW 331 0 min 0,000 mm 0,0 UV-I 0 W/m 13,9 C 17,2 C 3,2 km/h (1 Bft) 95,74 %
27.09.2019 21:22 17,1 C 13,9 C 16,1 C 82 % 1013,1 hPa 0,0 l/m 3,2 km/h (1 Bft) N-NW 333 0 min 0,000 mm 0,0 UV-I 0 W/m 14,0 C 17,1 C 4,8 km/h (1 Bft) 97,37 %
27.09.2019 21:24 17,1 C 13,9 C 16,1 C 82 % 1013,1 hPa 0,0 l/m 2,2 km/h (1 Bft) N-NW 334 0 min 0,000 mm 0,0 UV-I 0 W/m 14,0 C 17,1 C 3,2 km/h (1 Bft) 98,21 %
27.09.2019 21:26 17,1 C 13,9 C 16,1 C 82 % 1013,1 hPa 0,0 l/m 1,9 km/h (1 Bft) N-NW 334 0 min 0,000 mm 0,0 UV-I 0 W/m 14,0 C 17,1 C 3,2 km/h (1 Bft) 95,74 %
27.09.2019 21:28 17,1 C 13,9 C 16,1 C 81 % 1013,0 hPa 0,0 l/m 1,7 km/h (1 Bft) N 360 0 min 0,000 mm 0,0 UV-I 0 W/m 13,8 C 17,1 C 6,4 km/h (2 Bft) 98,00 %
27.09.2019 21:30 17,2 C 13,9 C 16,1 C 81 % 1013,1 hPa 0,0 l/m 2,2 km/h (1 Bft) N 360 0 min 0,000 mm 0,0 UV-I 0 W/m 13,9 C 17,2 C 3,2 km/h (1 Bft) 97,37 %
27.09.2019 21:32 17,1 C 13,9 C 16,1 C 82 % 1013,1 hPa 0,0 l/m 0,9 km/h (0 Bft) N 360 0 min 0,000 mm 0,0 UV-I 0 W/m 14,0 C 17,1 C 3,2 km/h (1 Bft) 96,23 %
27.09.2019 21:34 17,1 C 13,9 C 16,1 C 82 % 1013,1 hPa 0,0 l/m 0,8 km/h (0 Bft) N 360 0 min 0,000 mm 0,0 UV-I 0 W/m 14,0 C 17,1 C 1,6 km/h (1 Bft) 96,00 %
27.09.2019 21:36 17,1 C 13,9 C 16,1 C 82 % 1013,1 hPa 0,0 l/m 0,9 km/h (0 Bft) N 360 0 min 0,000 mm 0,0 UV-I 0 W/m 14,0 C 17,1 C 1,6 km/h (1 Bft) 97,56 %
27.09.2019 21:38 17,0 C 13,9 C 16,1 C 83 % 1013,2 hPa 0,0 l/m 1,2 km/h (1 Bft) N 360 0 min 0,000 mm 0,0 UV-I 0 W/m 14,1 C 17,0 C 3,2 km/h (1 Bft) 97,62 %
27.09.2019 21:40 16,9 C 13,9 C 16,1 C 83 % 1013,2 hPa 0,0 l/m 0,1 km/h (0 Bft) N 360 0 min 0,000 mm 0,0 UV-I 0 W/m 14,0 C 16,9 C 1,6 km/h (1 Bft) 95,74 %
27.09.2019 21:42 16,8 C 13,9 C 16,1 C 83 % 1013,2 hPa 0,0 l/m 0,1 km/h (0 Bft) N 360 0 min 0,000 mm 0,0 UV-I 0 W/m 13,9 C 16,8 C 1,6 km/h (1 Bft) 98,00 %
27.09.2019 21:44 16,8 C 13,9 C 16,1 C 83 % 1013,2 hPa 0,0 l/m 0,0 km/h (0 Bft) N 360 0 min 0,000 mm 0,0 UV-I 0 W/m 13,9 C 16,8 C 0,0 km/h (0 Bft) 98,11 %
27.09.2019 21:46 16,7 C 13,9 C 16,1 C 84 % 1013,2 hPa 0,0 l/m 0,0 km/h (0 Bft) N 360 0 min 0,000 mm 0,0 UV-I 0 W/m 14,0 C 16,7 C 0,0 km/h (0 Bft) 97,56 %
27.09.2019 21:48 16,7 C 13,9 C 16,1 C 84 % 1013,2 hPa 0,0 l/m 0,1 km/h (0 Bft) N 360 0 min 0,000 mm 0,0 UV-I 0 W/m 14,0 C 16,7 C 1,6 km/h (1 Bft) 98,00 %
27.09.2019 21:50 16,7 C 13,9 C 16,1 C 84 % 1013,2 hPa 0,0 l/m 1,9 km/h (1 Bft) N 360 0 min 0,000 mm 0,0 UV-I 0 W/m 14,0 C 16,7 C 3,2 km/h (1 Bft) 97,87 %
27.09.2019 21:52 16,7 C 13,9 C 16,1 C 84 % 1013,2 hPa 0,0 l/m 0,8 km/h (0 Bft) N 360 0 min 0,000 mm 0,0 UV-I 0 W/m 14,0 C 16,7 C 1,6 km/h (1 Bft) 98,00 %
27.09.2019 21:54 16,7 C 13,9 C 16,1 C 84 % 1013,2 hPa 0,0 l/m 0,0 km/h (0 Bft) N 360 0 min 0,000 mm 0,0 UV-I 0 W/m 14,0 C 16,7 C 0,0 km/h (0 Bft) 97,14 %
27.09.2019 21:56 16,7 C 13,9 C 16,1 C 84 % 1013,2 hPa 0,0 l/m 1,2 km/h (1 Bft) N 360 0 min 0,000 mm 0,0 UV-I 0 W/m 14,0 C 16,7 C 3,2 km/h (1 Bft) 96,23 %
27.09.2019 21:58 16,7 C 13,9 C 16,1 C 84 % 1013,2 hPa 0,0 l/m 1,5 km/h (1 Bft) N 355 0 min 0,000 mm 0,0 UV-I 0 W/m 14,0 C 16,7 C 3,2 km/h (1 Bft) 97,87 %
27.09.2019 22:00 16,7 C 13,9 C 16,1 C 84 % 1013,2 hPa 0,0 l/m 2,4 km/h (1 Bft) N 355 0 min 0,000 mm 0,0 UV-I 0 W/m 14,0 C 16,7 C 3,2 km/h (1 Bft) 96,00 %
27.09.2019 22:02 16,8 C 13,9 C 16,7 C 83 % 1013,3 hPa 0,0 l/m 2,9 km/h (1 Bft) N 355 0 min 0,000 mm 0,0 UV-I 0 W/m 13,9 C 16,8 C 4,8 km/h (1 Bft) 97,87 %
27.09.2019 22:04 16,8 C 13,9 C 16,7 C 83 % 1013,3 hPa 0,0 l/m 4,1 km/h (1 Bft) W 262 0 min 0,000 mm 0,0 UV-I 0 W/m 13,9 C 16,8 C 6,4 km/h (2 Bft) 97,87 %
27.09.2019 22:06 16,8 C 13,9 C 16,7 C 83 % 1013,3 hPa 0,0 l/m 4,8 km/h (1 Bft) W-SW 254 0 min 0,000 mm 0,0 UV-I 0 W/m 13,9 C 16,8 C 8,0 km/h (2 Bft) 97,87 %
27.09.2019 22:08 16,9 C 13,9 C 16,7 C 83 % 1013,3 hPa 0,0 l/m 5,9 km/h (2 Bft) W-SW 246 0 min 0,000 mm 0,0 UV-I 0 W/m 14,0 C 16,9 C 11,3 km/h (2 Bft) 97,37 %
27.09.2019 22:10 16,9 C 13,9 C 16,7 C 83 % 1013,4 hPa 0,0 l/m 3,4 km/h (1 Bft) S-SW 192 0 min 0,000 mm 0,0 UV-I 0 W/m 14,0 C 16,9 C 6,4 km/h (2 Bft) 96,00 %
27.09.2019 22:12 16,9 C 13,9 C 16,7 C 83 % 1013,4 hPa 0,0 l/m 3,9 km/h (1 Bft) S-SW 204 0 min 0,000 mm 0,0 UV-I 0 W/m 14,0 C 16,9 C 6,4 km/h (2 Bft) 96,00 %
27.09.2019 22:14 16,9 C 13,9 C 16,7 C 82 % 1013,4 hPa 0,0 l/m 4,0 km/h (1 Bft) S 189 0 min 0,000 mm 0,0 UV-I 0 W/m 13,8 C 16,9 C 9,7 km/h (2 Bft) 98,00 %
27.09.2019 22:16 16,9 C 13,9 C 16,7 C 82 % 1013,3 hPa 0,0 l/m 9,4 km/h (2 Bft) S 188 0 min 0,000 mm 0,0 UV-I 0 W/m 13,8 C 15,5 C 14,5 km/h (3 Bft) 95,74 %
27.09.2019 22:18 16,9 C 13,9 C 16,7 C 82 % 1013,3 hPa 0,0 l/m 7,5 km/h (2 Bft) S-SW 206 0 min 0,000 mm 0,0 UV-I 0 W/m 13,8 C 16,3 C 11,3 km/h (2 Bft) 97,87 %
27.09.2019 22:20 16,9 C 13,9 C 16,7 C 82 % 1013,3 hPa 0,0 l/m 6,7 km/h (2 Bft) S 177 0 min 0,000 mm 0,0 UV-I 0 W/m 13,8 C 16,8 C 9,7 km/h (2 Bft) 97,44 %
27.09.2019 22:22 16,9 C 13,9 C 16,7 C 82 % 1013,4 hPa 0,0 l/m 7,3 km/h (2 Bft) S 187 0 min 0,000 mm 0,0 UV-I 0 W/m 13,8 C 16,4 C 9,7 km/h (2 Bft) 98,00 %
27.09.2019 22:24 16,9 C 13,9 C 16,7 C 82 % 1013,4 hPa 0,0 l/m 8,7 km/h (2 Bft) S 190 0 min 0,000 mm 0,0 UV-I 0 W/m 13,8 C 15,8 C 12,9 km/h (3 Bft) 96,55 %
27.09.2019 22:26 16,9 C 13,9 C 16,7 C 82 % 1013,4 hPa 0,0 l/m 8,2 km/h (2 Bft) S 171 0 min 0,000 mm 0,0 UV-I 0 W/m 13,8 C 16,0 C 11,3 km/h (2 Bft) 94,92 %
27.09.2019 22:28 16,9 C 13,9 C 16,7 C 83 % 1013,4 hPa 0,0 l/m 7,1 km/h (2 Bft) S-SW 193 0 min 0,000 mm 0,0 UV-I 0 W/m 14,0 C 16,5 C 9,7 km/h (2 Bft) 98,11 %
27.09.2019 22:30 16,8 C 13,9 C 16,7 C 83 % 1013,5 hPa 0,0 l/m 7,7 km/h (2 Bft) S-SW 204 0 min 0,000 mm 0,0 UV-I 0 W/m 13,9 C 16,1 C 11,3 km/h (2 Bft) 97,37 %
27.09.2019 22:32 16,8 C 13,9 C 16,7 C 83 % 1013,6 hPa 0,0 l/m 5,3 km/h (1 Bft) SW 221 0 min 0,000 mm 0,0 UV-I 0 W/m 13,9 C 16,8 C 8,0 km/h (2 Bft) 96,23 %
27.09.2019 22:34 16,8 C 13,9 C 16,7 C 84 % 1013,9 hPa 0,0 l/m 6,4 km/h (2 Bft) SW 229 0 min 0,000 mm 0,0 UV-I 0 W/m 14,1 C 16,8 C 11,3 km/h (2 Bft) 98,00 %
27.09.2019 22:36 16,7 C 13,9 C 16,7 C 84 % 1013,9 hPa 0,0 l/m 6,9 km/h (2 Bft) W-SW 254 0 min 0,000 mm 0,0 UV-I 0 W/m 14,0 C 16,4 C 11,3 km/h (2 Bft) 95,12 %
27.09.2019 22:38 16,6 C 13,9 C 16,1 C 85 % 1014,0 hPa 0,0 l/m 8,3 km/h (2 Bft) S-SW 212 0 min 0,000 mm 0,0 UV-I 0 W/m 14,1 C 15,6 C 11,3 km/h (2 Bft) 95,74 %
27.09.2019 22:40 16,6 C 13,9 C 16,1 C 85 % 1014,0 hPa 0,0 l/m 6,4 km/h (2 Bft) SW 220 0 min 0,000 mm 0,0 UV-I 0 W/m 14,1 C 16,6 C 8,0 km/h (2 Bft) 98,11 %
27.09.2019 22:42 16,5 C 13,9 C 16,1 C 86 % 1014,0 hPa 0,0 l/m 6,7 km/h (2 Bft) SW 227 0 min 0,000 mm 0,0 UV-I 0 W/m 14,1 C 16,4 C 12,9 km/h (3 Bft) 98,00 %
27.09.2019 22:44 16,4 C 13,9 C 16,1 C 86 % 1014,1 hPa 0,0 l/m 7,5 km/h (2 Bft) S-SW 200 0 min 0,000 mm 0,0 UV-I 0 W/m 14,1 C 15,8 C 11,3 km/h (2 Bft) 93,62 %
27.09.2019 22:46 16,4 C 13,9 C 15,6 C 86 % 1014,1 hPa 0,0 l/m 10,4 km/h (2 Bft) W-SW 237 0 min 0,000 mm 0,0 UV-I 0 W/m 14,1 C 14,5 C 16,1 km/h (3 Bft) 94,74 %
27.09.2019 22:48 16,4 C 13,9 C 16,1 C 86 % 1014,1 hPa 0,0 l/m 7,6 km/h (2 Bft) SW 224 0 min 0,000 mm 0,0 UV-I 0 W/m 14,1 C 15,8 C 11,3 km/h (2 Bft) 95,45 %
27.09.2019 22:50 16,4 C 13,9 C 15,6 C 86 % 1014,3 hPa 0,0 l/m 8,6 km/h (2 Bft) SW 230 0 min 0,000 mm 0,0 UV-I 0 W/m 14,1 C 15,3 C 12,9 km/h (3 Bft) 96,23 %
27.09.2019 22:52 16,3 C 13,9 C 15,6 C 87 % 1014,2 hPa 0,0 l/m 7,1 km/h (2 Bft) S-SW 205 0 min 0,000 mm 0,0 UV-I 0 W/m 14,1 C 15,9 C 11,3 km/h (2 Bft) 93,62 %
27.09.2019 22:54 16,3 C 13,9 C 15,6 C 87 % 1014,2 hPa 0,0 l/m 7,6 km/h (2 Bft) SW 217 0 min 0,000 mm 0,0 UV-I 0 W/m 14,1 C 15,7 C 11,3 km/h (2 Bft) 92,00 %
27.09.2019 22:56 16,2 C 13,9 C 15,6 C 88 % 1014,1 hPa 0,0 l/m 8,6 km/h (2 Bft) S-SW 201 0 min 0,000 mm 0,0 UV-I 0 W/m 14,2 C 15,1 C 14,5 km/h (3 Bft) 93,62 %
27.09.2019 22:58 16,1 C 13,9 C 15,6 C 88 % 1014,1 hPa 0,0 l/m 9,8 km/h (2 Bft) S 190 0 min 0,000 mm 0,0 UV-I 0 W/m 14,1 C 14,4 C 12,9 km/h (3 Bft) 95,24 %
27.09.2019 23:00 16,1 C 13,9 C 15,6 C 88 % 1014,1 hPa 0,0 l/m 10,7 km/h (2 Bft) S-SW 209 0 min 0,000 mm 0,0 UV-I 0 W/m 14,1 C 14,0 C 19,3 km/h (3 Bft) 95,45 %
27.09.2019 23:02 16,1 C 13,9 C 15,6 C 88 % 1014,1 hPa 0,0 l/m 11,3 km/h (2 Bft) S-SW 200 0 min 0,025 mm 0,0 UV-I 0 W/m 14,1 C 13,8 C 22,5 km/h (4 Bft) 96,23 %
27.09.2019 23:04 16,1 C 13,9 C 15,6 C 89 % 1014,1 hPa 0,0 l/m 10,8 km/h (2 Bft) SW 217 0 min 0,000 mm 0,0 UV-I 0 W/m 14,3 C 14,0 C 17,7 km/h (3 Bft) 97,14 %
27.09.2019 23:06 16,0 C 13,9 C 15,6 C 89 % 1014,1 hPa 0,0 l/m 10,0 km/h (2 Bft) SW 234 0 min 0,000 mm 0,0 UV-I 0 W/m 14,2 C 14,2 C 19,3 km/h (3 Bft) 98,39 %
27.09.2019 23:08 16,0 C 13,9 C 15,6 C 89 % 1014,1 hPa 0,0 l/m 9,9 km/h (2 Bft) S 177 0 min 0,000 mm 0,0 UV-I 0 W/m 14,2 C 14,3 C 14,5 km/h (3 Bft) 95,12 %
27.09.2019 23:10 16,0 C 13,9 C 15,6 C 89 % 1014,0 hPa 0,0 l/m 9,5 km/h (2 Bft) S-SW 198 0 min 0,000 mm 0,0 UV-I 0 W/m 14,2 C 14,4 C 16,1 km/h (3 Bft) 96,00 %
27.09.2019 23:12 15,9 C 13,9 C 15,6 C 89 % 1014,1 hPa 0,0 l/m 7,3 km/h (2 Bft) S-SW 208 0 min 0,000 mm 0,0 UV-I 0 W/m 14,1 C 15,4 C 11,3 km/h (2 Bft) 92,68 %
27.09.2019 23:14 15,9 C 13,9 C 15,6 C 89 % 1014,1 hPa 0,0 l/m 7,2 km/h (2 Bft) S-SW 192 0 min 0,000 mm 0,0 UV-I 0 W/m 14,1 C 15,5 C 11,3 km/h (2 Bft) 94,34 %
27.09.2019 23:16 15,9 C 13,9 C 15,6 C 89 % 1014,1 hPa 0,0 l/m 7,0 km/h (2 Bft) S 185 0 min 0,000 mm 0,0 UV-I 0 W/m 14,1 C 15,6 C 11,3 km/h (2 Bft) 98,00 %
27.09.2019 23:18 15,9 C 13,9 C 15,6 C 89 % 1014,0 hPa 0,0 l/m 5,4 km/h (1 Bft) S-SW 195 0 min 0,000 mm 0,0 UV-I 0 W/m 14,1 C 15,9 C 9,7 km/h (2 Bft) 97,87 %
27.09.2019 23:20 15,9 C 13,9 C 15,6 C 90 % 1014,0 hPa 0,0 l/m 5,3 km/h (1 Bft) S-SO 155 0 min 0,000 mm 0,0 UV-I 0 W/m 14,3 C 15,9 C 12,9 km/h (3 Bft) 100,00 %
27.09.2019 23:22 15,9 C 13,9 C 15,6 C 90 % 1014,0 hPa 0,0 l/m 7,2 km/h (2 Bft) S-SW 209 0 min 0,000 mm 0,0 UV-I 0 W/m 14,3 C 15,5 C 11,3 km/h (2 Bft) 100,00 %
27.09.2019 23:24 15,9 C 13,9 C 15,6 C 90 % 1013,9 hPa 0,0 l/m 7,9 km/h (2 Bft) S 180 0 min 0,000 mm 0,0 UV-I 0 W/m 14,3 C 15,1 C 12,9 km/h (3 Bft) 98,00 %
27.09.2019 23:26 15,9 C 13,9 C 15,6 C 90 % 1013,7 hPa 0,0 l/m 8,5 km/h (2 Bft) S-SW 196 0 min 0,000 mm 0,0 UV-I 0 W/m 14,3 C 14,8 C 14,5 km/h (3 Bft) 100,00 %
27.09.2019 23:29 15,9 C 13,9 C 15,6 C 90 % 1014,0 hPa 0,0 l/m 7,1 km/h (2 Bft) S-SW 194 0 min 0,000 mm 0,0 UV-I 0 W/m 14,3 C 15,5 C 9,7 km/h (2 Bft) 98,86 %
27.09.2019 23:30 15,9 C 13,9 C 15,6 C 90 % 1014,0 hPa 0,0 l/m 9,5 km/h (2 Bft) S-SW 204 0 min 0,000 mm 0,0 UV-I 0 W/m 14,3 C 14,3 C 12,9 km/h (3 Bft) 100,00 %
27.09.2019 23:32 15,9 C 13,9 C 15,0 C 89 % 1014,0 hPa 0,0 l/m 8,4 km/h (2 Bft) S-SW 198 0 min 0,000 mm 0,0 UV-I 0 W/m 14,1 C 14,8 C 12,9 km/h (3 Bft) 100,00 %
27.09.2019 23:34 15,9 C 13,9 C 15,0 C 89 % 1014,0 hPa 0,0 l/m 10,3 km/h (2 Bft) S 175 0 min 0,000 mm 0,0 UV-I 0 W/m 14,1 C 14,0 C 16,1 km/h (3 Bft) 98,11 %
27.09.2019 23:36 15,9 C 13,9 C 15,0 C 89 % 1014,0 hPa 0,0 l/m 6,0 km/h (2 Bft) S-SW 205 0 min 0,000 mm 0,0 UV-I 0 W/m 14,1 C 15,9 C 9,7 km/h (2 Bft) 97,87 %
27.09.2019 23:39 15,9 C 13,9 C 15,0 C 89 % 1014,0 hPa 0,0 l/m 6,9 km/h (2 Bft) S-SW 207 0 min 0,000 mm 0,0 UV-I 0 W/m 14,1 C 15,6 C 16,1 km/h (3 Bft) 100,00 %
27.09.2019 23:40 15,9 C 13,9 C 15,0 C 89 % 1014,0 hPa 0,0 l/m 6,8 km/h (2 Bft) S-SW 204 0 min 0,000 mm 0,0 UV-I 0 W/m 14,1 C 15,7 C 11,3 km/h (2 Bft) 100,00 %
27.09.2019 23:42 15,8 C 13,9 C 15,0 C 89 % 1014,0 hPa 0,0 l/m 6,6 km/h (2 Bft) S-SW 211 0 min 0,000 mm 0,0 UV-I 0 W/m 14,0 C 15,7 C 11,3 km/h (2 Bft) 100,00 %
27.09.2019 23:44 15,8 C 13,9 C 15,0 C 89 % 1014,0 hPa 0,0 l/m 5,6 km/h (1 Bft) S-SW 202 0 min 0,000 mm 0,0 UV-I 0 W/m 14,0 C 15,8 C 9,7 km/h (2 Bft) 97,14 %
27.09.2019 23:46 15,8 C 13,9 C 15,0 C 89 % 1014,0 hPa 0,0 l/m 8,3 km/h (2 Bft) S-SW 210 0 min 0,000 mm 0,0 UV-I 0 W/m 14,0 C 14,8 C 14,5 km/h (3 Bft) 100,00 %
27.09.2019 23:48 15,8 C 13,9 C 15,0 C 89 % 1014,0 hPa 0,0 l/m 6,5 km/h (2 Bft) S 190 0 min 0,000 mm 0,0 UV-I 0 W/m 14,0 C 15,8 C 12,9 km/h (3 Bft) 97,87 %
27.09.2019 23:50 15,7 C 13,9 C 15,0 C 89 % 1014,0 hPa 0,0 l/m 5,5 km/h (1 Bft) S-SW 202 0 min 0,000 mm 0,0 UV-I 0 W/m 13,9 C 15,7 C 12,9 km/h (3 Bft) 100,00 %
27.09.2019 23:52 15,7 C 13,9 C 15,0 C 89 % 1014,0 hPa 0,0 l/m 4,2 km/h (1 Bft) SW 218 0 min 0,000 mm 0,0 UV-I 0 W/m 13,9 C 15,7 C 8,0 km/h (2 Bft) 100,00 %
27.09.2019 23:54 15,7 C 13,9 C 14,4 C 89 % 1014,0 hPa 0,0 l/m 4,6 km/h (1 Bft) S-SW 207 0 min 0,000 mm 0,0 UV-I 0 W/m 13,9 C 15,7 C 8,0 km/h (2 Bft) 100,00 %
27.09.2019 23:56 15,6 C 13,9 C 15,0 C 90 % 1014,0 hPa 0,0 l/m 7,7 km/h (2 Bft) S-SW 194 0 min 0,000 mm 0,0 UV-I 0 W/m 14,0 C 14,9 C 12,9 km/h (3 Bft) 100,00 %
27.09.2019 23:58 15,6 C 13,9 C 15,0 C 90 % 1014,0 hPa 0,0 l/m 5,8 km/h (2 Bft) SW 227 0 min 0,000 mm 0,0 UV-I 0 W/m 14,0 C 15,6 C 8,0 km/h (2 Bft) 98,21 %
_ Min-Zeit 06:04 00:00 06:00 14:20 18:06 - 00:48 - - - - - - 00:42 06:04 00:48 13:20
Minimum _ 13,7 C 13,9 C 12,8 C 62 % 1011,0 hPa - 0,0 km/h (0 Bft) - - - - - - 12,8 C 13,7 C 0,0 km/h (0 Bft) 91,43 %
_ Max-Zeit 14:32 00:00 13:24 07:02 00:00 07:40 20:48 - - 13:09 14:02 13:18 13:24 17:40 14:32 20:42 01:14
Maximum _ 22,3 C 13,9 C 35,0 C 97 % 1015,5 hPa 0,2 l/m 17,6 km/h
W-NW (3 Bft)
- - 3 min 0,381 mm 3,7 UV-I 715 W/m 16,3 C 22,3 C 29,0 km/h
W-NW (5 Bft)
100,00 %
Durchschnitt _ 17,3 C 13,9 C 18,7 C 84 % 1013,5 hPa #0,2 l/m 3,3 km/h (1 Bft) S - #5:48 h #1,930 mm 1,7 UV-I 249 W/m 14,3 C 17,2 C 5,5 km/h (1 Bft) 97,41 %